GFSMW_sfc_thetae_000.txt.gz
Theta_e
320 321 323 325 325 326 325 327 326 326 324 323 319 317 315 317 318 318 318 317 318 317 316 315 315 314 313 314 314 312 311 311 313 313 312 312 313 315 314 313 312 311 310
315 318 320 324 326 325 324 323 322 320 318 317 317 317 317 316 316 317 316 317 316 315 312 313 312 312 310 310 311 311 309 308 309 307 307 302 305 309 311 313 313 312 312
313 315 317 319 321 320 319 317 316 315 316 317 315 314 314 313 312 312 312 313 314 313 312 312 312 311 309 307 307 308 306 304 305 306 303 299 298 302 306 307 310 311 313
312 313 315 316 317 317 318 316 316 315 314 315 313 312 310 309 312 314 312 312 312 311 310 309 309 309 308 306 307 306 306 304 301 303 306 302 299 296 296 302 305 307 309
312 312 313 315 316 317 318 317 315 314 314 313 312 311 312 311 311 310 309 309 309 308 308 307 305 306 305 305 306 304 303 303 301 299 298 296 296 296 293 292 294 298 301
312 312 314 315 315 317 317 316 314 313 314 313 313 311 308 308 307 307 305 304 304 304 305 305 305 305 304 303 303 303 301 298 298 298 297 295 294 293 292 291 291 291 295
312 312 312 312 313 315 315 315 314 312 313 311 310 309 309 308 306 304 302 301 301 301 301 303 303 302 302 303 303 302 301 298 295 295 295 295 293 293 293 291 290 289 292
312 311 312 313 313 315 315 315 313 311 312 312 310 310 309 305 304 303 301 300 300 301 302 302 302 301 300 299 299 297 298 297 297 297 296 294 293 294 293 292 289 286 288
310 311 312 313 313 313 314 314 313 312 312 312 310 307 306 305 304 302 302 301 302 301 301 300 299 300 299 298 296 295 294 294 294 295 294 292 293 294 294 293 293 290 285
310 311 311 312 313 313 313 315 312 310 309 306 305 303 303 305 303 303 301 301 301 300 299 299 298 298 298 297 296 294 295 294 293 294 294 293 294 293 293 293 293 292 289
309 310 310 310 311 311 311 311 309 307 306 305 303 304 303 303 302 301 300 299 298 298 297 297 296 296 295 295 295 293 293 292 291 292 293 292 293 292 292 292 291 289 289
308 308 308 308 308 308 308 307 307 306 305 304 304 302 302 301 300 299 298 297 296 297 296 295 294 294 294 294 293 292 292 291 290 291 290 290 292 290 290 290 289 288 289
306 307 307 306 306 305 305 304 305 306 305 304 302 301 300 298 297 297 296 296 295 295 294 292 291 290 290 289 289 289 289 288 287 287 287 288 288 286 286 287 286 287 288
305 305 305 304 303 303 302 303 302 305 304 303 301 300 299 296 295 295 294 294 294 292 291 290 290 290 289 289 288 288 286 285 285 285 285 286 286 286 286 286 285 285 283
303 303 303 302 301 301 301 301 301 303 303 302 300 300 298 296 296 295 294 293 292 291 290 289 289 289 288 286 284 284 283 283 283 283 284 285 287 290 287 286 283 282 281
301 301 301 300 299 299 298 298 298 299 303 300 299 300 299 297 295 294 293 292 290 289 289 288 288 287 288 284 283 282 280 282 281 280 282 283 286 286 288 288 287 284 280
299 299 299 298 297 296 296 296 296 298 299 298 299 299 296 294 295 294 292 290 288 288 288 288 288 287 285 284 283 282 280 280 280 280 281 282 284 285 285 285 285 285 286
298 298 297 297 297 297 296 295 295 295 295 296 297 297 296 294 294 293 291 290 288 287 287 287 287 285 286 286 285 282 279 279 279 280 280 280 281 282 283 281 280 281 281
298 297 297 296 296 295 295 294 294 294 294 294 295 295 295 293 292 291 290 288 287 287 287 287 285 284 284 286 285 282 279 279 278 280 280 281 280 282 284 281 279 279 280
296 296 296 295 294 294 294 293 292 292 292 294 294 293 293 293 291 291 289 288 287 287 286 285 284 285 283 285 284 282 278 277 278 279 280 281 281 281 281 280 280 278 280
296 296 295 293 293 293 293 291 291 290 294 294 294 293 293 291 291 290 288 287 286 285 284 283 283 283 283 282 283 282 279 277 277 277 277 279 282 281 280 280 278 278 279
294 294 293 292 293 293 292 291 290 293 294 294 293 292 292 291 290 288 286 286 285 284 282 279 281 281 281 283 282 281 280 279 277 276 279 279 281 280 280 279 280 280 279
293 294 292 292 293 293 292 291 291 292 292 292 291 291 290 290 289 286 285 284 284 281 280 280 278 278 279 279 280 279 279 278 277 278 278 279 280 279 279 280 280 279 278
292 293 292 291 291 292 292 292 292 292 290 289 289 289 288 287 287 287 285 283 282 280 280 278 276 276 277 276 276 276 276 277 277 276 277 278 278 277 278 279 279 279 279
292 292 291 291 291 292 292 292 291 290 288 288 288 286 286 286 286 286 283 283 281 280 278 277 276 272 271 274 277 276 276 276 276 275 276 275 274 274 276 276 277 278 277
291 291 291 291 291 291 291 291 290 289 287 285 285 286 285 285 285 284 283 283 281 280 280 278 275 274 277 277 277 277 278 278 277 275 273 272 273 273 274 274 274 275 276

GFSMW_sfc_thetae_003.txt.gz
Theta_e
313 317 317 316 316 319 318 317 316 312 313 311 310 309 307 308 308 309 311 311 310 310 309 308 309 308 307 306 306 307 306 306 307 304 306 306 308 308 309 311 310 309 309
312 313 313 312 312 312 311 311 311 310 310 310 309 308 307 308 307 308 309 310 310 309 308 307 307 306 305 304 303 303 303 302 304 301 301 298 302 304 306 306 309 307 311
308 311 311 309 309 308 308 308 308 308 309 309 307 306 305 305 306 308 308 309 309 307 306 305 304 304 304 302 301 303 301 299 301 301 300 295 293 297 301 303 302 301 303
309 310 309 307 308 307 307 307 308 307 308 307 305 304 304 304 306 306 305 306 305 305 305 304 302 303 302 301 301 304 300 300 298 299 301 298 295 291 290 296 298 298 298
306 306 307 308 308 307 306 306 306 307 307 305 304 305 303 303 304 304 301 300 301 302 303 302 301 301 301 299 299 299 298 298 297 296 295 294 293 296 293 289 290 294 295
305 307 308 309 307 306 306 305 305 305 306 305 304 304 301 301 301 298 297 298 298 300 300 301 300 300 299 298 298 298 297 296 297 298 297 296 293 290 289 288 289 289 291
304 305 306 305 305 304 305 305 306 306 305 304 303 302 301 299 297 296 295 296 297 297 298 298 297 297 297 297 296 295 295 294 293 292 292 292 291 292 291 290 290 288 289
304 304 305 304 305 306 306 306 306 306 307 304 302 301 300 299 298 298 298 298 297 296 298 297 297 297 296 295 294 293 293 294 293 292 293 292 293 291 290 289 288 287 288
303 304 307 308 308 308 306 306 306 305 302 301 300 300 302 301 300 299 297 296 297 299 297 296 296 295 295 295 294 292 291 292 291 291 291 292 292 290 291 292 293 289 284
304 304 305 305 304 304 305 304 303 302 301 299 301 303 302 302 301 297 296 296 295 296 295 294 294 293 293 293 292 291 290 290 289 291 290 290 291 294 293 291 290 290 288
301 302 302 303 303 303 302 302 302 302 300 301 302 301 300 298 297 296 294 294 294 294 294 293 292 292 291 291 291 290 290 289 289 289 289 289 291 290 291 291 290 289 288
301 301 302 301 300 299 299 299 300 300 300 300 299 298 298 297 295 294 293 293 292 293 292 291 289 289 288 287 288 288 289 288 286 285 285 285 287 285 287 289 289 288 288
301 301 300 300 298 298 298 298 298 299 300 300 298 297 298 295 292 291 292 291 291 290 289 288 288 287 287 286 286 285 285 284 283 283 283 283 283 282 284 284 284 284 285
300 299 299 298 297 296 296 295 295 296 298 300 299 298 298 296 292 293 292 291 290 288 287 287 287 287 287 286 285 284 282 281 282 282 282 282 282 282 283 284 283 284 280
298 297 297 295 294 293 292 292 292 294 294 296 297 297 297 294 294 293 292 292 290 288 286 286 286 286 285 284 281 281 280 279 280 280 281 281 283 286 287 285 283 281 279
296 296 297 295 293 291 291 292 291 291 293 292 292 295 295 294 294 294 293 291 288 286 285 285 285 284 285 283 283 280 278 279 279 278 279 280 283 283 285 285 285 284 280
295 295 295 292 292 291 291 289 290 291 291 291 293 295 294 293 294 294 292 288 286 284 284 284 284 283 280 283 282 282 279 278 277 277 278 279 281 281 282 283 283 282 283
295 295 292 291 290 289 289 289 289 290 290 290 292 293 292 292 294 294 289 287 285 283 282 282 283 282 283 285 285 282 278 278 279 279 279 279 279 281 281 280 279 279 280
294 291 290 290 288 288 288 288 288 288 289 291 291 291 291 291 291 290 288 287 284 282 282 283 282 281 281 285 284 282 278 279 278 280 280 279 279 281 282 280 279 279 279
292 290 290 288 287 288 288 288 287 287 289 291 291 291 290 290 290 290 288 284 283 283 283 282 282 284 280 284 284 282 276 274 276 278 278 280 280 282 281 279 276 275 276
291 291 289 287 287 288 288 287 287 287 290 291 291 291 291 290 289 288 285 283 281 282 280 280 280 281 281 280 282 281 276 276 277 276 276 278 280 281 281 280 278 277 278
290 290 288 287 288 289 288 287 286 288 290 289 289 289 289 289 288 284 283 282 280 280 277 274 273 276 277 281 279 279 279 278 275 275 277 277 280 280 279 279 280 280 279
288 289 287 288 288 288 288 287 287 288 288 287 286 286 287 287 286 284 282 280 279 276 276 276 271 273 276 273 278 278 278 278 276 276 277 279 278 278 278 279 279 278 278
286 287 287 287 287 288 289 288 288 288 287 285 285 285 284 284 284 284 281 279 274 274 277 275 272 271 272 271 272 274 274 277 277 276 276 277 277 276 277 277 277 277 277
287 287 286 287 288 288 288 288 288 287 286 285 285 283 282 282 282 282 280 279 278 278 274 272 272 264 263 270 278 277 276 276 277 275 273 274 274 274 275 275 275 275 276
287 287 288 288 288 288 287 288 288 286 283 283 281 280 280 279 281 281 279 283 282 282 281 279 273 268 275 278 279 279 278 278 277 274 272 271 271 271 272 272 273 274 274

GFSMW_sfc_thetae_006.txt.gz
Theta_e
309 311 312 312 312 311 312 311 312 314 310 309 309 309 305 306 306 306 309 309 309 309 307 305 306 305 304 302 302 302 301 301 302 299 301 300 301 302 303 304 303 305 304
307 308 309 309 308 307 310 310 309 308 309 310 309 307 305 305 306 311 309 308 307 306 305 303 302 303 302 300 300 300 299 300 300 298 297 294 298 297 301 301 300 299 301
306 307 307 305 304 304 305 306 305 306 307 307 305 305 305 306 306 305 304 304 303 303 302 301 301 301 300 299 298 299 298 297 298 298 297 292 290 293 297 297 295 295 296
307 307 305 304 304 303 303 304 305 305 305 305 304 304 303 302 303 302 300 299 300 301 301 300 300 300 300 298 298 300 297 297 295 297 299 296 294 292 290 292 295 294 295
305 305 305 305 305 304 303 303 305 305 304 303 303 303 301 300 301 299 297 297 298 299 299 300 300 299 298 297 296 297 295 295 294 294 294 293 293 295 290 287 289 292 292
303 305 306 306 305 304 303 302 303 304 304 303 302 303 300 299 297 295 294 295 297 297 298 299 296 295 295 295 294 293 293 292 292 292 292 291 290 289 288 288 288 288 289
303 304 304 304 304 304 304 303 304 304 304 303 300 299 298 296 295 295 297 297 298 297 297 296 295 294 294 294 293 292 293 293 292 292 291 292 291 291 290 289 289 287 289
303 303 303 302 302 304 303 303 302 299 300 299 298 299 298 299 299 299 295 297 297 296 295 295 294 294 294 293 292 291 290 290 290 288 289 289 289 289 289 290 288 285 287
300 301 302 302 303 303 301 303 302 300 299 299 299 299 301 301 300 301 298 297 295 296 294 294 293 292 292 292 291 289 289 288 287 287 288 288 289 289 290 292 289 285 282
300 301 301 301 301 301 303 304 302 300 298 299 300 302 301 300 299 296 294 293 293 294 293 292 291 291 291 290 290 289 288 287 287 288 287 287 288 289 290 290 290 288 286
299 299 299 299 299 299 298 299 298 300 298 298 298 297 297 296 296 294 294 293 293 294 294 292 290 289 288 288 287 287 288 287 286 285 284 284 284 283 284 285 286 288 288
299 299 298 297 296 296 296 295 296 297 297 298 298 297 297 296 294 293 292 292 292 292 291 291 289 287 286 285 285 285 285 283 282 282 282 282 283 281 281 282 282 283 285
297 297 296 295 295 294 293 291 291 291 292 294 295 296 297 296 292 292 291 291 290 291 290 289 287 286 286 285 284 284 283 281 281 281 280 280 280 279 280 280 281 282 284
296 295 295 294 292 291 290 290 290 290 290 290 291 291 292 295 291 290 291 293 293 293 289 287 287 287 286 285 283 282 280 280 280 281 280 280 279 278 279 281 281 282 280
295 295 294 292 289 289 289 289 289 290 290 290 289 291 293 292 292 293 293 293 293 293 288 286 286 285 285 283 281 281 280 279 280 280 279 279 280 283 283 282 282 281 279
294 294 294 290 290 289 288 288 289 289 290 289 290 293 293 293 292 292 292 291 291 287 286 285 284 283 284 284 284 282 279 279 278 277 278 278 280 280 282 283 283 283 280
293 293 292 290 289 287 288 287 288 289 289 289 291 291 293 292 291 292 291 291 287 288 284 283 283 281 281 284 285 284 280 278 277 277 277 278 280 280 280 281 282 282 283
293 292 289 288 287 287 287 287 288 287 288 289 290 290 290 290 290 290 289 289 287 285 282 281 282 281 282 285 285 283 279 278 278 279 278 277 278 279 279 279 280 280 280
291 290 289 288 286 286 287 287 287 287 287 289 289 289 289 289 288 289 288 288 285 281 282 282 281 280 280 284 284 282 278 277 277 278 278 278 278 280 282 280 277 277 278
290 289 288 287 286 287 287 286 286 286 286 289 289 289 289 289 288 287 286 285 282 282 282 281 280 282 278 282 282 280 274 272 275 277 278 279 278 280 281 279 278 275 276
289 289 287 286 286 287 287 286 286 285 287 289 289 289 288 287 287 286 283 282 281 281 279 279 278 279 279 278 280 280 275 274 275 275 276 277 279 280 280 280 278 278 279
287 287 286 286 286 287 287 285 285 287 287 287 287 286 286 286 286 283 282 282 281 278 276 270 272 274 275 279 278 279 278 278 271 274 276 277 279 279 279 279 279 279 278
285 286 285 285 286 287 287 285 286 287 287 285 285 284 284 284 284 281 279 279 277 274 274 276 270 272 275 272 278 278 278 278 274 276 277 278 277 278 278 278 278 278 276
284 285 285 285 285 286 287 286 287 287 285 284 284 283 282 283 282 281 280 278 273 272 276 274 272 270 271 270 272 273 270 275 276 275 275 275 276 275 276 276 276 276 276
285 285 285 285 285 286 287 287 287 286 284 284 284 282 280 281 281 279 279 279 279 277 274 272 272 263 263 269 277 277 274 273 274 270 271 272 272 272 272 272 273 274 275
285 284 285 285 285 286 285 286 286 285 284 283 282 280 278 277 280 280 280 283 283 282 283 280 273 267 274 278 280 279 278 277 276 269 267 266 267 270 270 269 270 272 273

GFSMW_sfc_thetae_009.txt.gz
Theta_e
306 308 308 310 310 311 312 313 315 316 312 309 309 309 304 305 306 307 308 307 306 305 302 301 301 302 300 299 299 299 299 298 299 297 298 297 296 298 300 300 299 299 300
305 306 307 307 307 309 310 310 309 309 309 310 308 307 306 305 309 308 305 304 303 301 301 299 299 299 299 298 297 297 297 297 298 296 295 292 295 296 298 297 297 295 297
304 305 305 302 303 304 305 305 305 306 307 309 307 304 304 304 303 301 300 299 301 300 300 299 299 299 298 296 296 296 296 294 296 296 294 290 288 290 294 295 293 292 293
305 304 302 301 301 300 301 302 303 303 304 304 303 302 301 301 301 299 296 296 299 298 299 298 298 297 297 295 296 296 293 293 292 294 296 293 291 287 287 290 292 292 293
303 303 303 303 302 302 301 301 303 303 303 302 302 302 300 298 298 295 295 295 297 297 298 297 297 297 296 294 293 292 292 292 290 290 290 291 291 290 288 286 287 289 290
302 303 304 304 302 301 301 300 301 302 302 301 300 300 297 296 294 293 294 294 295 296 297 298 296 295 294 292 292 291 290 290 290 290 289 289 290 289 289 287 287 287 289
302 304 304 302 301 300 300 302 301 299 298 298 297 297 295 294 295 297 298 297 297 297 296 295 294 293 293 292 291 290 289 289 287 287 287 288 288 289 290 288 287 287 288
303 301 300 300 299 299 297 297 297 297 298 298 297 297 298 297 299 300 299 297 295 295 294 293 293 293 293 291 290 289 288 287 286 285 286 286 287 287 287 287 286 282 282
298 299 300 299 299 299 299 298 297 297 298 299 298 298 298 298 298 298 296 294 293 295 293 294 294 294 291 291 290 288 287 287 286 285 285 285 286 285 286 287 287 285 279
298 298 298 298 297 298 298 299 299 298 297 297 297 298 298 297 297 296 294 293 292 295 295 295 293 292 291 291 288 287 286 287 286 286 285 284 284 283 284 283 284 285 283
297 298 297 298 296 295 295 294 296 295 293 293 295 295 295 295 295 293 292 292 292 294 294 293 291 290 288 287 286 285 286 286 285 282 282 281 282 281 280 281 281 281 281
297 297 296 296 295 292 291 291 290 290 291 292 292 293 293 293 292 292 291 292 292 290 290 291 292 289 287 286 285 285 285 283 281 281 280 280 282 279 279 279 279 279 281
295 295 294 294 291 290 290 289 289 288 289 289 289 289 290 291 292 291 290 291 290 291 292 292 288 286 286 285 284 284 282 281 281 280 280 279 279 277 277 278 278 279 281
294 294 293 292 291 290 289 288 288 288 288 288 288 290 291 291 289 288 289 290 291 291 290 291 287 286 286 285 284 282 280 280 281 281 280 279 278 277 277 278 280 282 281
294 294 292 291 289 288 288 287 288 288 289 288 288 290 291 291 290 290 290 290 290 291 290 287 285 285 284 283 281 281 280 279 279 280 280 279 280 283 281 279 278 279 280
295 294 294 291 289 287 286 287 287 288 288 287 289 290 290 291 291 291 290 292 291 290 284 288 285 282 283 285 285 283 279 279 279 277 278 279 280 280 281 281 282 281 279
293 292 292 289 288 287 287 286 287 287 287 287 289 290 289 290 289 289 290 289 288 286 285 282 281 281 281 285 285 285 281 280 278 278 278 278 279 279 279 280 281 281 282
292 292 290 288 287 286 286 286 286 286 286 287 288 289 288 288 288 288 288 287 287 286 281 281 281 281 282 285 284 283 280 278 278 277 277 277 277 279 279 279 279 279 279
292 290 288 287 286 285 286 285 285 285 286 286 287 288 288 287 287 286 286 286 285 282 281 282 281 280 280 283 282 280 276 276 276 277 277 277 277 279 281 279 278 278 279
289 288 286 285 285 285 285 284 285 285 285 286 287 288 287 287 286 285 284 284 280 281 281 281 280 281 278 281 281 279 274 270 274 275 276 278 278 280 280 278 277 275 277
286 286 286 285 285 285 286 285 285 284 286 287 287 286 286 284 284 283 282 281 281 281 279 279 278 278 278 277 279 279 273 273 275 275 275 276 279 279 280 279 278 277 279
285 285 285 284 285 286 285 284 283 285 286 286 285 285 284 284 284 281 280 280 279 278 276 270 272 274 275 278 278 279 278 278 272 274 275 276 278 278 278 278 279 278 277
283 284 284 285 285 285 285 283 284 286 285 285 284 283 283 283 282 280 278 278 277 274 275 276 270 272 275 273 277 278 278 278 271 274 277 277 277 277 276 277 277 276 275
283 284 284 283 283 285 285 285 285 286 285 284 284 284 283 282 281 280 280 278 274 274 277 274 272 270 271 270 271 273 269 274 274 272 271 273 275 273 273 273 274 275 274
284 284 283 283 283 284 285 284 284 284 283 283 285 283 282 281 280 280 279 278 279 279 275 273 272 263 262 269 275 276 271 267 270 266 264 268 270 270 271 270 271 272 273
283 282 283 283 283 284 283 283 284 284 283 284 284 283 283 280 280 279 278 283 283 283 283 282 273 267 275 278 279 279 278 277 276 266 261 259 262 267 270 268 267 268 269

GFSMW_sfc_thetae_012.txt.gz
Theta_e
305 308 310 312 312 313 316 314 314 314 312 308 309 307 306 307 306 304 304 305 305 303 300 299 299 299 298 297 298 297 297 297 298 296 295 297 296 298 300 299 297 298 299
303 305 306 307 309 309 312 313 310 309 309 309 307 308 305 304 304 301 300 300 300 299 299 298 298 297 297 296 296 296 295 295 296 294 293 290 293 295 297 297 296 294 296
302 303 303 302 306 306 304 305 305 305 306 307 304 302 303 303 301 299 296 297 298 298 298 298 297 297 296 296 295 294 294 292 294 294 293 289 286 290 293 294 294 292 293
301 301 300 300 300 299 300 301 302 302 303 302 302 301 299 299 298 296 294 295 297 298 298 298 297 296 295 297 294 294 292 293 290 292 294 292 291 288 286 290 292 291 293
300 302 300 300 300 300 300 300 301 302 301 300 301 300 297 297 295 294 294 294 296 297 297 296 296 296 294 293 292 291 290 290 289 288 289 289 290 290 289 285 287 291 292
300 301 302 303 302 301 299 299 300 299 299 299 298 297 296 294 294 295 295 294 294 295 295 296 294 293 292 292 291 290 289 288 288 288 288 288 287 285 286 284 285 285 288
299 300 301 301 299 298 298 299 297 297 297 297 296 296 295 294 295 295 295 295 295 295 294 293 293 292 292 294 292 289 288 287 286 286 286 287 286 287 287 286 284 283 284
301 300 298 297 296 296 295 296 296 296 297 297 296 296 295 295 296 296 296 295 294 294 293 292 292 292 293 293 293 291 288 288 287 285 285 285 286 286 286 285 283 280 281
297 297 298 297 297 297 297 296 296 297 297 296 296 296 296 296 296 296 295 294 293 294 292 291 293 292 294 292 290 288 287 287 287 286 285 285 285 285 284 285 283 281 276
297 297 296 296 296 296 296 297 297 293 293 292 293 294 293 293 293 293 292 292 292 292 294 294 293 293 291 290 290 289 286 286 285 286 284 283 283 282 282 281 282 281 279
295 295 294 294 294 295 294 294 292 291 290 290 291 290 291 291 291 291 291 290 291 292 292 293 290 289 289 288 286 285 284 284 284 283 282 281 281 281 281 280 280 279 279
295 294 294 294 292 291 291 290 290 290 290 290 289 289 290 290 290 290 290 290 290 290 290 289 291 291 287 285 283 283 283 283 282 281 281 281 282 279 279 278 278 278 279
294 293 293 293 291 290 289 290 290 289 288 287 287 288 289 289 289 289 289 289 288 288 290 292 291 288 286 284 284 283 283 281 281 281 280 280 279 278 278 277 277 278 280
293 292 292 291 288 289 290 289 288 287 287 287 287 288 288 289 289 288 288 288 288 290 292 290 289 286 285 284 283 282 281 280 281 281 280 279 279 278 278 278 278 279 278
292 292 291 289 289 290 288 287 287 287 287 287 287 288 289 289 289 289 289 289 289 292 292 287 285 284 284 284 281 281 280 280 279 280 280 280 281 283 282 279 278 278 278
293 294 293 291 290 288 287 286 286 287 287 286 286 288 289 289 288 289 288 288 288 288 287 285 284 282 283 285 285 284 281 280 279 279 279 279 280 280 281 280 281 280 278
293 293 293 292 289 287 286 285 286 286 286 286 287 288 288 288 287 287 287 287 286 285 286 283 281 280 281 285 285 284 281 279 278 277 277 277 278 278 278 279 280 281 281
293 292 292 290 287 286 285 285 285 285 285 285 286 287 287 286 286 286 286 285 285 285 283 280 280 281 283 284 284 282 278 277 277 277 276 276 276 278 278 279 279 279 280
292 292 290 287 285 285 285 284 284 284 284 285 285 286 286 286 285 285 284 283 283 282 281 281 281 281 279 282 282 280 277 276 276 277 277 277 277 279 281 279 277 277 278
291 289 287 285 284 284 284 284 284 284 284 285 285 286 286 285 284 282 282 282 280 281 281 281 280 280 278 280 280 279 274 271 274 276 277 277 278 279 280 278 276 275 277
286 286 285 284 284 285 285 283 283 283 284 285 285 285 285 284 283 282 281 280 280 280 278 279 278 278 278 277 279 280 273 273 275 275 275 276 278 279 279 279 277 277 278
284 285 284 284 284 284 284 283 282 284 284 285 284 284 284 283 284 281 279 280 279 277 275 271 273 275 275 278 278 279 279 278 269 273 275 275 278 277 277 276 278 278 276
284 284 284 284 284 284 283 282 284 284 284 283 283 283 283 283 282 280 278 278 277 273 274 276 271 273 275 273 277 278 278 277 270 272 274 276 276 275 275 275 276 275 274
284 284 283 282 283 283 284 284 283 283 283 283 283 283 282 283 282 281 280 278 273 273 276 274 273 270 271 270 271 272 270 272 273 270 269 270 274 271 272 273 272 272 273
284 283 283 282 282 283 283 283 282 282 282 283 283 283 281 283 282 280 279 279 279 278 275 274 273 266 263 269 274 275 270 266 270 264 263 265 267 269 270 271 270 270 270
283 283 283 282 283 282 282 282 282 282 281 284 284 284 283 284 281 280 279 282 283 283 284 283 275 269 275 278 280 280 279 277 275 266 261 257 257 263 268 269 269 268 267

GFSMW_sfc_thetae_015.txt.gz
Theta_e
312 317 319 322 323 323 324 324 322 319 317 315 316 316 317 314 311 310 310 309 309 308 309 308 308 308 307 307 307 306 303 302 304 301 299 300 305 306 306 305 304 303 302
311 314 317 320 322 322 321 321 319 317 318 319 318 318 315 313 309 307 307 307 307 307 307 308 307 308 307 306 305 304 301 302 303 297 297 293 296 301 303 302 302 301 301
311 312 314 318 319 320 318 315 315 315 315 315 313 312 313 311 309 306 305 305 306 306 307 307 308 307 306 305 303 302 301 298 300 302 296 291 290 294 298 298 299 300 299
310 310 309 309 310 309 311 312 311 310 309 310 311 310 309 309 306 304 305 306 306 307 306 306 306 305 304 303 302 301 299 297 294 296 298 296 295 289 287 294 296 297 295
307 306 305 306 306 308 309 309 308 308 308 309 310 309 307 305 305 305 305 305 305 305 304 304 304 304 302 301 300 299 296 296 293 293 292 292 292 292 289 285 288 292 293
306 306 307 307 306 307 307 307 306 306 307 308 308 308 306 304 305 305 305 305 305 306 305 303 303 302 301 299 298 297 295 295 295 294 292 290 288 287 287 286 286 286 289
306 306 306 306 306 306 306 305 305 303 304 304 304 304 303 303 303 304 304 304 304 305 305 302 301 299 298 298 297 295 294 295 293 292 291 292 291 291 290 288 286 286 288
306 306 305 304 303 303 304 304 304 303 304 304 304 305 305 304 302 301 301 300 301 302 303 302 299 299 298 297 296 296 296 295 294 293 293 292 292 293 292 289 287 284 285
305 304 303 303 302 303 303 304 302 300 299 301 301 300 299 299 298 299 300 299 301 300 301 300 298 299 298 297 297 296 295 294 294 294 293 293 292 293 291 290 288 285 280
303 303 302 302 303 304 303 302 299 297 297 298 298 297 297 298 298 298 297 297 299 300 300 299 299 298 298 297 296 295 295 293 293 292 292 292 291 290 289 289 288 286 283
302 301 300 301 301 302 300 297 295 296 296 296 296 297 297 297 297 297 297 297 298 299 298 299 298 297 295 295 294 294 293 291 291 292 290 289 289 288 288 287 286 284 283
301 299 299 298 298 297 296 293 296 296 296 295 295 295 296 297 296 296 296 297 296 297 296 296 295 295 296 294 292 291 290 290 290 289 288 287 287 286 286 285 284 283 283
299 298 298 295 294 293 294 295 295 294 294 293 294 295 295 295 296 296 296 296 296 295 295 295 294 294 295 293 291 290 289 289 288 287 286 286 285 285 285 284 283 282 282
298 298 297 296 293 294 295 293 295 294 293 293 293 294 295 295 295 295 296 295 296 296 296 295 293 293 291 290 289 288 288 287 286 286 286 285 285 283 283 282 282 281 280
297 297 296 295 294 293 293 295 294 293 294 293 293 293 295 295 295 295 295 295 295 295 296 295 291 291 289 288 288 287 287 286 286 285 284 284 283 282 282 281 280 280 279
297 297 297 295 292 294 295 294 293 293 293 292 292 293 293 294 294 294 293 293 294 294 294 292 291 289 287 286 286 287 286 285 283 281 282 281 280 281 280 280 280 280 279
297 297 296 297 296 295 294 293 292 292 291 291 291 292 292 292 293 293 292 292 292 292 292 292 289 287 287 286 285 283 284 282 281 281 280 279 280 280 280 280 281 281 281
297 297 297 297 297 294 292 292 290 290 290 290 290 291 291 291 292 291 291 291 291 291 291 289 287 287 285 284 282 281 283 281 281 280 280 279 279 280 279 281 280 280 280
298 297 297 296 292 291 290 289 289 289 289 289 290 290 290 291 291 290 289 289 289 289 288 287 286 285 284 282 281 281 281 280 280 280 280 280 279 279 281 280 279 278 279
297 295 291 290 290 289 290 289 288 288 288 289 289 290 291 290 290 289 289 289 289 286 287 285 285 282 283 280 280 281 281 279 279 280 279 278 279 279 279 279 278 276 278
290 288 289 289 289 289 289 288 288 288 289 289 289 290 290 289 290 289 289 288 287 286 285 283 283 282 282 281 279 280 281 280 279 278 278 279 278 278 278 277 278 277 278
288 289 288 288 288 288 288 287 287 288 288 288 288 289 289 288 288 288 288 286 286 285 283 282 282 283 282 279 279 279 280 279 279 277 278 278 277 277 276 276 276 276 277
287 288 288 287 287 288 288 287 288 288 287 287 288 288 288 288 288 287 287 285 284 284 283 282 283 283 282 282 279 279 279 279 278 279 277 276 276 275 275 275 275 274 276
287 287 286 286 286 287 287 287 287 287 286 286 287 288 287 286 288 287 286 285 284 284 283 284 283 283 282 282 281 280 282 278 278 277 277 275 275 274 274 275 275 275 274
286 286 286 286 286 286 287 287 287 286 286 286 286 286 286 285 285 287 286 284 285 285 284 284 283 283 282 282 281 280 281 280 278 275 276 275 274 274 274 274 274 274 273
286 286 286 286 286 286 286 286 286 286 286 285 287 286 286 285 286 286 285 284 284 283 284 284 283 284 281 279 280 281 281 279 276 276 275 274 273 273 273 273 273 273 271

GFSMW_sfc_thetae_018.txt.gz
Theta_e
321 325 327 329 331 332 333 332 330 330 329 326 323 321 321 321 319 317 316 315 314 314 314 313 313 313 312 312 311 310 309 307 308 305 303 304 305 307 307 307 306 307 306
321 323 327 329 330 330 331 331 329 328 326 325 325 325 323 319 316 316 314 313 312 312 311 312 312 312 310 310 310 308 305 305 306 302 301 297 300 302 305 304 303 304 304
320 322 325 328 329 328 329 328 326 324 324 323 322 320 320 317 316 315 314 312 312 311 311 311 311 310 309 307 308 307 304 302 303 302 299 295 293 296 299 301 300 302 301
322 323 322 322 325 325 323 322 322 321 318 316 317 317 316 315 313 312 312 313 312 312 311 310 310 309 308 307 307 305 303 300 298 299 299 299 297 292 291 297 298 297 297
318 316 317 319 319 319 319 318 316 315 316 317 317 315 313 311 312 312 310 311 311 311 309 309 308 308 308 307 305 303 301 301 299 298 296 295 295 294 291 288 291 294 295
314 313 314 314 314 315 316 316 314 314 314 314 313 312 310 308 308 307 306 305 305 305 306 307 308 308 307 305 303 301 301 300 298 296 295 293 291 290 290 288 289 289 292
312 311 310 311 312 313 314 313 312 311 311 310 309 308 308 307 303 302 301 300 300 300 301 303 305 306 306 304 302 300 301 297 296 295 294 294 293 293 292 290 289 288 290
312 311 312 312 312 312 312 312 310 308 308 307 306 305 302 300 301 301 300 300 299 300 302 303 305 305 304 300 300 301 299 298 296 295 295 294 294 293 292 290 289 286 287
311 312 312 312 311 311 311 310 307 305 304 302 301 301 301 301 301 301 301 300 300 299 301 304 304 304 303 302 300 300 298 298 297 296 295 294 294 294 293 292 291 287 283
312 312 310 310 311 311 310 308 305 302 300 300 301 301 301 301 301 301 299 299 299 299 300 301 302 301 302 302 299 299 298 296 296 295 294 293 293 293 293 291 291 289 286
311 311 310 310 310 309 306 303 302 299 298 301 301 301 301 301 300 300 299 298 299 299 298 299 300 300 299 298 299 298 297 295 294 294 292 293 293 291 291 291 290 288 287
312 311 308 308 308 306 303 302 301 299 301 300 299 299 300 300 299 299 298 299 298 298 298 298 298 298 297 298 297 297 295 293 292 292 292 291 290 291 291 289 288 287 286
310 308 307 305 305 303 301 300 300 300 300 299 298 299 299 298 298 298 298 298 297 297 298 298 297 297 297 297 296 294 293 293 292 292 291 290 290 289 288 288 287 285 284
308 306 305 304 303 301 299 298 300 302 301 299 298 297 298 298 298 298 297 297 297 297 297 297 297 297 295 294 293 293 292 292 291 291 290 290 288 287 286 285 284 284 283
305 305 305 303 301 299 298 300 303 303 300 298 298 298 298 298 298 298 297 297 297 296 296 296 296 296 294 293 292 292 291 291 290 290 288 287 285 282 282 282 282 282 281
304 305 305 304 301 300 298 302 302 300 299 297 297 298 297 297 297 297 296 296 295 295 295 295 295 295 293 286 286 286 290 289 288 286 286 286 284 283 281 281 281 281 281
305 304 305 304 302 299 302 301 300 299 297 296 296 296 296 295 295 295 295 295 294 295 294 295 295 293 292 286 284 283 288 287 286 285 284 284 283 283 283 282 281 282 282
305 306 306 303 303 301 301 301 298 296 296 295 294 295 294 294 294 295 294 294 294 293 293 293 292 292 289 284 282 282 287 286 285 284 284 284 283 283 281 281 281 282 283
307 307 306 303 300 299 298 296 295 295 294 293 292 293 293 293 293 293 293 294 293 293 292 292 291 291 290 283 281 282 286 285 284 284 284 282 282 281 280 280 279 280 281
308 305 302 299 297 296 294 294 294 293 291 291 292 292 292 293 292 292 293 294 293 291 291 290 291 285 288 282 281 282 286 284 283 284 283 280 280 279 279 279 279 278 279
305 302 298 296 295 294 294 292 291 290 292 292 292 292 292 292 292 293 293 293 292 291 290 289 289 288 287 286 280 280 284 284 282 282 282 282 279 278 278 278 279 278 278
299 297 295 293 292 292 292 290 290 292 291 291 291 291 292 292 292 292 292 292 291 289 289 287 288 289 287 282 281 280 280 281 282 281 282 281 278 278 277 277 276 276 277
295 293 291 290 291 291 291 289 290 291 291 291 291 291 292 291 291 291 291 291 290 289 288 287 287 287 288 287 281 280 280 280 281 282 280 278 277 277 278 276 276 276 279
290 291 288 291 290 290 289 291 291 291 290 289 290 291 289 288 288 289 289 290 289 288 287 286 286 287 286 286 286 285 285 281 281 282 282 279 277 277 278 279 279 279 277
290 290 289 289 288 289 290 291 290 290 289 289 289 289 289 288 287 287 287 289 290 288 287 287 286 286 285 285 285 284 284 284 282 279 281 281 280 279 279 279 278 278 277
289 287 288 288 289 288 289 289 289 288 288 288 289 290 289 288 288 287 287 286 285 284 284 284 285 288 285 282 282 281 281 281 279 280 280 280 280 278 278 278 278 278 276

GFSMW_sfc_thetae_021.txt.gz
Theta_e
325 327 329 330 330 334 335 332 331 331 329 329 328 327 322 323 322 320 319 318 317 316 316 316 316 316 314 314 313 312 310 306 307 305 304 304 307 308 306 306 307 306 306
323 325 328 330 331 332 334 332 331 331 331 330 327 325 325 322 319 318 318 316 316 315 314 315 314 314 311 311 310 309 306 305 306 302 301 296 298 303 304 303 303 306 303
321 324 327 329 331 330 330 329 330 330 328 328 325 324 322 319 317 317 316 315 315 315 314 313 312 311 309 306 307 307 306 301 303 304 299 293 292 296 300 300 301 304 301
323 325 326 328 329 330 332 330 328 326 325 323 320 319 318 316 316 315 315 315 315 313 312 311 310 309 308 307 306 305 304 302 299 301 301 301 299 292 290 295 297 298 297
323 324 326 326 327 326 325 325 323 319 319 320 320 318 316 315 314 314 311 310 309 308 307 306 307 308 308 307 307 305 304 302 301 299 298 297 296 295 291 288 291 294 295
322 320 321 321 321 321 321 319 317 317 318 318 317 315 312 310 308 306 304 303 303 303 304 303 304 305 306 306 306 305 303 302 301 298 297 295 292 291 290 288 289 290 292
317 316 315 315 316 317 317 317 316 314 315 313 311 310 309 305 304 302 301 301 301 301 302 303 303 303 304 305 304 303 302 302 298 297 296 295 294 294 292 290 289 288 291
315 314 314 314 315 316 316 315 314 312 311 310 307 305 303 302 302 302 302 301 300 300 301 302 303 304 304 304 303 301 302 301 299 297 296 295 295 294 293 291 289 287 288
313 313 314 315 315 315 315 315 313 310 308 306 306 303 302 303 303 302 303 301 301 300 300 301 301 302 303 303 303 302 301 299 298 298 297 295 295 295 294 293 291 289 284
313 314 314 315 315 315 315 315 311 307 306 305 304 301 303 303 304 303 301 300 300 300 300 299 300 300 301 302 302 300 300 298 298 297 295 294 294 294 293 292 292 291 288
314 314 314 314 314 315 313 310 307 306 305 303 302 304 302 302 303 302 301 300 300 299 299 299 298 298 298 299 298 298 298 297 297 296 294 294 294 292 292 293 291 290 289
315 315 314 313 313 312 310 307 307 307 303 303 301 302 302 302 301 301 301 300 299 299 298 298 298 298 298 297 297 297 297 296 294 294 293 292 292 291 291 290 289 289 289
315 315 314 312 312 311 308 306 306 305 303 301 301 301 301 301 301 300 300 299 299 298 298 297 297 297 297 296 296 294 294 294 293 293 292 291 290 289 288 288 287 287 286
314 315 314 312 311 311 308 306 305 306 303 302 301 300 301 301 301 300 299 299 298 297 297 297 297 297 296 295 295 294 294 293 293 292 292 291 289 287 286 284 284 284 283
313 313 312 311 310 309 307 305 305 306 303 301 300 300 301 301 300 299 299 299 298 297 297 296 296 296 296 294 294 293 293 292 291 291 290 289 286 283 283 283 282 282 281
311 312 311 310 309 307 305 303 305 304 304 301 299 300 300 299 299 298 298 297 297 296 296 295 295 295 295 287 286 286 290 290 289 288 288 288 287 286 284 283 282 282 280
310 311 310 310 309 307 305 303 305 304 301 300 299 299 298 298 297 296 295 295 296 296 295 294 294 294 293 287 285 283 288 289 289 287 286 285 285 285 285 284 283 283 284
310 310 311 310 310 309 305 305 303 301 299 298 297 297 297 295 295 294 295 295 296 295 294 294 293 293 290 285 283 283 287 289 288 287 286 285 285 284 281 281 281 281 282
311 311 312 311 311 306 305 302 300 299 297 296 296 295 294 293 293 293 294 294 295 294 294 293 292 291 290 284 283 282 287 287 286 286 286 284 283 281 280 279 279 279 281
311 311 312 311 309 305 303 299 297 297 296 295 294 293 293 293 292 293 293 294 294 293 293 292 292 287 291 284 283 282 286 285 285 285 285 282 280 279 279 279 278 277 279
311 311 310 306 304 299 297 296 294 293 293 293 293 292 293 293 293 293 293 293 293 293 292 291 291 291 290 288 283 282 284 285 284 283 283 284 281 279 279 278 278 278 278
309 307 303 300 297 296 296 295 293 293 292 292 292 292 293 293 293 293 293 293 293 292 291 290 290 291 290 285 283 282 281 282 282 282 283 284 280 279 278 278 278 277 278
303 301 298 293 293 294 292 291 291 292 292 291 291 292 293 293 292 291 290 291 291 290 290 288 288 288 290 290 284 283 281 281 281 284 283 280 280 279 280 279 278 278 280
296 295 294 293 289 292 291 292 292 292 291 290 290 291 290 289 290 291 290 289 290 290 288 288 287 288 288 289 289 285 284 281 282 283 284 282 280 280 279 280 281 281 280
294 292 289 289 290 291 291 291 291 291 289 289 290 290 290 290 290 290 289 289 291 289 289 289 288 289 287 287 287 286 286 286 283 281 282 282 282 281 281 281 281 280 280
289 288 289 289 289 290 290 291 291 289 289 288 289 290 290 290 290 289 288 288 287 287 285 285 286 290 287 286 284 284 283 281 281 281 281 281 282 280 280 280 279 280 279

GFSMW_sfc_thetae_027.txt.gz
Theta_e
315 316 315 318 325 326 327 327 324 324 323 320 319 318 318 317 313 312 312 311 310 310 308 308 308 306 305 303 302 301 299 298 299 296 294 295 296 295 294 295 295 295 297
315 318 319 320 326 326 326 326 326 325 324 322 323 321 317 314 310 310 309 310 309 309 309 307 305 304 302 301 300 299 297 298 296 293 291 289 291 293 295 293 293 291 294
315 318 319 319 326 326 325 325 325 325 325 324 325 316 312 309 308 307 307 308 309 309 307 306 304 302 301 299 299 298 297 294 294 295 292 287 285 288 291 291 291 289 289
318 319 320 319 325 325 326 325 326 325 326 325 314 311 309 307 307 307 307 307 308 304 301 301 299 298 299 299 299 300 297 295 292 293 296 291 290 284 283 287 288 288 289
317 318 319 323 325 327 326 326 324 325 323 320 316 310 307 306 306 304 301 298 299 300 300 299 297 296 297 296 297 297 297 295 293 292 291 289 288 287 284 281 283 286 287
315 318 322 323 323 325 322 320 315 313 312 310 310 308 306 300 298 296 296 297 299 297 299 298 297 297 296 296 297 297 295 294 294 293 293 290 287 285 284 282 282 283 285
315 318 320 319 318 314 315 312 310 309 307 305 302 301 299 297 296 296 296 298 295 294 294 295 295 295 296 297 297 295 295 294 293 292 291 291 290 289 288 285 283 282 284
315 315 314 313 312 311 309 308 309 307 305 304 299 298 298 297 297 297 296 297 296 295 294 295 294 295 295 295 295 295 295 294 293 292 291 291 290 291 289 287 283 280 281
311 312 312 311 310 309 309 307 307 305 304 300 299 298 297 298 298 297 297 297 296 296 295 295 294 294 294 294 293 293 295 294 293 294 295 292 293 293 293 291 287 284 277
309 310 310 310 310 309 309 307 306 304 300 300 299 298 297 299 298 298 298 295 295 295 294 293 293 293 293 293 293 292 292 291 291 293 292 292 292 293 292 289 286 284 282
308 308 308 310 310 310 309 308 304 300 299 300 299 298 297 299 299 298 297 296 296 294 294 293 293 293 293 293 292 291 291 292 291 291 291 290 291 290 289 287 284 282 281
309 308 308 309 309 309 308 307 301 300 300 299 299 298 298 301 300 299 298 296 294 294 293 293 294 294 293 292 292 291 290 289 289 289 288 288 289 285 284 282 280 280 279
307 307 307 308 309 308 308 306 301 301 300 298 297 297 300 300 299 298 297 296 294 293 293 293 293 293 293 292 292 292 290 289 289 288 287 286 285 282 280 279 278 278 280
309 308 307 309 309 309 308 305 302 302 300 298 297 299 299 299 299 297 296 295 295 293 292 292 293 293 293 293 293 291 289 289 289 289 287 286 283 280 279 279 277 278 277
306 307 307 307 308 307 306 305 303 301 300 298 298 299 299 300 298 297 296 296 295 294 294 294 293 293 292 291 289 288 287 286 285 285 285 284 284 286 282 279 277 277 276
302 304 308 308 308 307 306 305 302 301 301 301 300 300 299 298 297 296 295 295 293 293 293 292 292 291 291 288 288 286 284 285 284 282 281 282 284 284 285 284 283 281 277
303 304 306 308 307 307 307 303 302 303 302 302 301 298 297 296 294 293 292 291 291 292 292 292 291 290 288 288 287 285 283 283 282 281 280 281 283 281 279 280 280 280 281
303 303 304 306 307 306 304 303 303 303 300 297 296 294 293 293 293 292 291 291 292 291 290 290 291 290 288 288 287 284 281 282 282 281 281 280 278 279 279 277 276 277 277
301 302 304 304 302 302 301 300 298 296 296 294 292 292 292 292 292 291 291 291 290 289 290 291 290 288 286 287 286 283 280 281 281 282 281 281 278 281 281 277 276 275 276
300 295 295 295 293 294 295 292 291 291 291 291 291 292 292 292 291 291 291 290 290 290 290 288 288 288 285 286 286 283 279 280 279 280 280 282 279 280 280 276 274 273 275
294 294 293 291 291 293 293 290 290 290 291 292 292 292 292 292 292 290 290 289 288 287 285 285 285 285 283 283 286 286 280 279 279 279 278 278 281 281 281 281 275 274 277
292 292 291 290 292 293 292 291 290 291 292 292 292 292 291 291 291 289 288 287 286 284 283 283 284 282 283 284 286 286 284 282 277 279 278 278 283 282 282 281 280 280 279
290 290 289 289 290 291 291 290 291 292 292 291 289 290 290 290 289 286 285 284 284 280 281 282 282 283 283 282 285 286 285 284 277 278 279 282 282 283 281 282 282 278 274
290 291 289 288 289 291 291 290 290 290 289 288 288 288 287 287 286 286 285 283 279 278 281 280 280 283 284 281 281 281 282 281 280 278 278 277 278 275 276 276 278 277 274
289 289 289 289 289 289 289 289 289 289 287 287 286 285 282 284 284 285 284 283 283 283 281 280 281 278 283 284 283 282 280 278 279 273 272 274 273 275 276 275 275 274 273
289 289 287 288 288 288 288 288 288 287 285 285 284 282 280 281 283 283 283 286 286 286 287 286 284 283 285 286 287 287 285 285 284 279 271 269 267 270 274 273 273 270 271

GFSMW_sfc_thetae_030.txt.gz
Theta_e
317 320 326 326 323 324 323 324 322 321 320 318 316 316 316 315 315 313 311 309 308 309 307 306 304 304 302 300 300 298 297 297 296 293 293 293 293 293 293 292 292 292 293
311 315 321 322 322 322 324 323 323 321 320 319 318 319 316 312 310 308 308 307 307 307 306 305 303 302 301 299 298 297 295 296 294 291 290 287 290 292 292 290 291 288 290
311 312 316 320 321 321 323 323 323 322 320 320 320 315 310 308 306 305 305 306 307 307 305 304 302 301 300 299 298 298 296 293 293 293 291 286 284 286 289 289 288 287 287
313 316 316 320 321 323 324 324 324 323 322 320 318 314 311 307 305 304 304 305 306 301 300 299 297 297 296 295 296 299 295 293 291 291 294 290 289 284 282 286 286 287 288
314 315 319 322 323 323 323 323 323 323 323 322 315 311 307 306 306 304 302 298 297 298 299 297 296 296 295 295 295 295 295 293 291 291 290 289 288 286 284 280 283 285 287
313 315 321 324 323 323 323 323 322 321 319 321 312 310 305 303 301 296 294 295 296 297 296 296 295 294 294 295 295 294 294 293 293 292 294 292 290 285 283 281 281 282 284
313 316 319 321 322 322 322 322 316 308 308 309 306 305 301 300 297 296 295 295 297 296 295 295 295 294 294 294 295 294 293 292 291 291 291 290 290 288 287 284 282 281 283
315 317 318 319 319 319 316 313 309 303 302 302 300 299 298 297 297 296 298 297 296 295 295 295 294 293 293 292 292 292 293 293 291 291 291 291 291 290 289 288 287 282 281
313 313 312 313 310 308 308 309 307 304 301 300 300 300 299 298 298 297 297 297 296 296 296 294 292 295 293 292 291 291 292 292 292 291 291 291 291 291 292 292 291 286 279
310 311 311 310 310 308 307 306 305 304 301 300 299 299 299 299 298 298 297 297 296 296 295 294 294 292 292 291 291 291 291 290 290 291 290 290 290 292 291 289 288 285 283
311 311 311 311 310 309 307 306 303 300 300 299 297 298 298 298 299 299 297 297 296 296 295 293 294 292 292 291 290 290 290 290 290 289 289 290 290 288 287 285 283 282 281
311 311 311 310 309 308 307 306 303 300 299 299 298 297 298 300 299 298 297 296 295 295 293 293 292 292 292 292 290 290 290 290 288 289 288 288 291 286 284 282 280 279 279
307 308 308 308 308 308 308 306 303 300 300 300 298 297 298 299 298 298 296 295 293 293 292 292 292 292 292 292 292 291 290 288 288 289 287 286 286 283 281 280 278 277 280
307 306 307 308 309 309 308 305 301 301 301 299 297 297 299 299 296 297 294 294 293 294 292 292 292 293 291 292 292 290 288 288 288 288 287 285 284 281 279 278 277 277 276
305 304 304 305 306 306 305 302 301 302 300 298 297 298 299 298 297 294 293 294 293 293 293 292 292 292 292 291 290 289 287 285 284 285 284 283 283 286 281 279 277 277 276
301 303 305 305 306 306 305 304 301 301 300 299 298 299 299 298 296 295 293 291 292 292 292 291 291 290 291 290 290 287 284 285 284 282 281 281 284 285 285 284 283 280 276
301 304 305 305 305 305 305 303 302 300 299 299 300 298 296 294 293 293 292 291 291 292 291 290 290 290 290 289 289 287 283 282 281 281 280 281 283 282 280 280 280 279 279
300 300 301 305 304 304 303 300 301 300 299 296 295 294 293 292 292 292 292 292 291 290 289 289 290 289 289 288 288 286 281 281 282 281 280 280 279 279 279 277 277 277 277
294 293 293 294 295 297 298 295 294 292 291 291 291 292 291 292 293 292 291 291 290 289 289 289 289 288 286 288 287 284 280 281 281 282 281 281 279 281 282 278 277 276 276
293 292 292 291 291 291 292 290 289 290 290 291 292 293 293 292 291 291 290 290 289 288 288 287 287 287 284 287 287 284 279 280 280 280 280 283 280 282 281 277 275 273 275
292 292 291 290 290 292 292 290 291 290 292 294 294 294 293 292 292 291 289 287 286 285 283 283 283 283 284 283 287 287 280 280 280 280 279 279 282 282 282 282 276 274 277
291 291 290 290 291 293 292 291 291 293 293 293 292 292 291 290 289 287 285 285 283 282 282 279 281 281 284 285 286 287 285 282 279 279 279 279 282 283 283 281 281 282 279
288 289 289 289 290 290 290 289 291 292 291 289 288 288 288 288 287 284 283 282 282 278 280 280 279 280 282 284 286 286 286 284 279 280 280 281 283 283 282 283 282 278 274
288 290 289 289 289 290 289 288 289 288 288 286 286 286 285 284 284 284 283 283 279 278 281 280 280 279 280 281 281 283 284 284 281 280 281 278 278 275 275 275 278 276 274
289 290 289 288 288 288 288 288 287 287 286 285 285 284 281 283 283 283 283 282 282 282 280 280 280 277 278 281 284 282 282 282 281 279 274 273 273 275 276 274 275 275 273
288 288 288 288 287 287 287 287 287 286 285 284 283 281 280 280 282 282 282 285 285 286 286 286 283 282 284 285 286 287 286 285 283 278 277 276 274 273 275 272 273 271 271

GFSMW_sfc_thetae_033.txt.gz
Theta_e
319 322 323 323 325 323 322 323 320 318 318 317 316 314 314 314 314 313 310 309 310 308 305 304 303 302 300 299 299 297 296 295 294 292 292 292 291 291 291 290 289 290 291
318 321 322 324 324 323 322 322 321 318 318 318 316 317 315 312 311 309 307 307 307 306 305 303 301 300 299 297 297 296 295 295 293 291 289 286 289 290 291 288 289 287 288
316 318 321 322 322 321 322 322 321 320 318 318 317 312 308 307 305 304 303 305 306 305 304 302 300 299 299 296 296 296 295 293 293 292 291 286 284 285 288 288 287 286 286
314 316 320 321 320 319 322 323 322 320 319 318 317 313 311 308 304 303 303 304 304 301 299 297 296 296 295 294 295 296 294 292 291 290 293 289 288 284 283 286 286 286 287
311 312 316 320 321 320 321 322 321 322 321 319 318 314 309 305 304 303 302 296 297 297 298 297 297 296 295 294 294 294 294 293 290 290 290 289 287 286 284 280 283 285 286
309 312 314 318 319 320 321 321 321 321 321 319 316 313 307 304 303 299 295 295 295 296 295 296 295 297 296 294 295 293 293 293 292 291 291 290 287 285 284 282 281 281 284
310 313 317 318 319 320 320 321 321 320 319 319 313 309 306 304 303 299 295 296 295 294 295 296 296 296 295 295 295 293 293 291 290 290 290 290 289 288 286 284 282 281 282
312 315 318 320 319 320 320 321 319 311 310 311 307 304 303 304 305 303 299 297 296 296 296 296 296 295 295 294 290 290 291 292 291 291 291 290 290 290 288 286 286 286 285
311 315 319 320 319 320 319 318 310 306 304 303 301 299 301 301 301 301 298 297 297 296 296 295 295 295 294 291 291 290 290 291 291 290 290 290 291 290 290 290 291 288 282
310 312 315 315 316 314 310 309 306 303 301 300 301 300 301 300 299 298 297 296 296 297 296 295 295 294 292 291 290 290 291 290 289 290 289 289 290 290 290 289 287 286 281
310 312 314 313 312 309 308 306 303 300 299 300 299 298 297 298 297 297 297 296 297 296 296 295 294 292 291 291 291 290 289 289 288 288 287 288 289 288 287 286 284 282 282
310 312 312 310 308 308 307 305 304 301 301 300 299 299 297 297 298 297 297 297 296 295 295 293 292 291 291 291 290 289 289 288 287 287 287 288 290 286 284 283 281 280 278
308 308 308 308 308 307 307 306 304 302 300 300 299 297 297 298 298 297 296 295 293 293 292 291 291 291 292 291 290 289 289 287 287 287 286 286 285 283 281 280 279 277 279
306 306 306 308 309 308 306 305 303 300 301 301 299 298 298 299 298 298 296 295 294 293 292 292 292 292 291 290 290 290 288 287 287 287 286 285 284 282 280 279 278 277 276
304 303 304 305 306 306 305 303 301 302 303 299 298 299 299 299 298 297 295 295 294 294 293 293 293 293 292 290 290 288 287 285 284 284 284 283 283 285 282 279 277 276 275
302 304 304 305 306 305 304 302 301 302 300 299 299 299 299 296 296 294 293 292 292 293 293 292 292 291 290 290 290 288 285 284 283 282 281 281 285 286 286 285 283 279 276
300 301 303 302 303 303 304 301 300 299 298 299 299 296 294 292 292 293 292 292 292 292 291 290 290 289 290 290 290 289 283 282 281 281 281 280 282 283 281 283 282 281 280
295 294 293 298 301 300 299 298 298 297 295 293 292 293 292 292 293 293 292 292 292 291 290 289 289 288 288 289 289 288 282 281 281 281 280 280 279 280 279 278 277 277 277
291 290 290 291 291 292 293 291 290 291 291 291 293 293 294 293 293 292 291 291 291 290 288 288 286 285 285 288 288 286 280 280 281 282 281 281 279 282 283 278 277 277 277
291 290 290 290 289 290 291 289 289 290 290 292 293 294 293 292 291 291 291 290 289 288 286 285 284 285 284 286 288 286 279 280 280 280 281 284 281 282 283 278 276 274 276
290 291 290 290 290 291 291 290 292 292 293 295 295 294 293 292 292 291 290 288 286 284 282 282 282 282 283 283 287 288 282 281 280 280 279 280 283 283 283 282 277 275 277
289 290 289 289 290 291 292 292 291 293 293 293 293 292 292 291 289 287 285 284 283 281 281 279 281 281 282 285 285 287 287 283 281 280 281 280 283 284 283 282 282 282 279
286 288 288 288 290 291 292 290 291 290 289 288 287 286 287 287 286 284 283 282 281 279 280 280 280 280 281 281 285 286 286 286 282 282 281 282 283 284 282 283 283 279 274
286 288 289 288 288 289 289 289 288 287 286 285 285 285 284 284 284 283 283 282 279 279 281 281 280 279 280 279 279 281 281 284 284 282 282 281 281 279 279 276 279 276 275
289 289 288 288 288 288 287 286 285 286 285 284 284 284 282 282 282 283 283 282 282 282 281 281 280 278 279 280 282 282 280 281 283 283 280 278 278 277 277 275 276 274 273
288 288 288 287 285 284 284 284 285 284 283 283 283 282 281 281 282 282 282 285 286 285 286 285 284 283 284 285 286 286 286 286 285 280 276 277 276 276 276 275 275 272 271

GFSMW_sfc_thetae_036.txt.gz
Theta_e
316 316 318 318 320 322 322 321 319 317 318 316 315 313 313 314 313 314 311 312 310 307 306 304 302 301 299 298 298 296 295 295 293 293 292 292 292 292 291 291 290 291 291
314 316 318 318 320 322 322 320 320 317 318 319 314 315 313 312 311 309 307 309 307 305 304 302 300 299 298 297 296 296 294 294 293 291 289 287 290 291 291 290 290 289 289
315 316 318 319 320 322 321 322 320 318 318 317 315 310 309 307 306 304 303 304 305 304 302 301 299 298 297 295 295 295 294 292 292 292 291 287 285 286 289 289 288 288 288
314 317 319 319 320 321 321 322 320 318 317 317 316 312 312 307 305 303 302 303 303 300 299 297 296 295 295 294 295 295 294 293 291 292 293 290 289 286 285 288 287 287 288
310 314 317 320 321 320 318 320 320 319 320 318 317 314 311 309 307 302 301 297 296 296 296 296 295 294 294 295 297 297 296 293 291 290 290 289 288 287 285 283 284 286 288
308 312 315 318 319 316 317 319 319 320 320 318 316 314 309 305 304 301 296 295 294 294 295 294 294 294 294 296 296 294 293 292 292 292 291 291 289 287 284 282 282 282 285
307 307 309 314 315 316 317 319 320 320 319 318 315 312 309 308 307 302 297 295 294 293 294 295 295 296 296 296 295 293 294 292 291 290 290 291 290 289 287 285 283 283 286
307 308 311 313 316 317 318 319 320 321 319 318 316 313 314 309 307 302 298 297 295 296 297 296 297 297 296 294 293 292 290 291 291 290 290 290 290 290 288 286 284 285 288
306 309 312 314 316 317 318 319 320 321 318 318 314 310 309 307 305 301 300 297 296 296 295 298 297 296 295 294 293 292 291 291 291 291 290 289 290 290 290 289 289 289 283
306 309 313 316 317 317 318 318 320 317 313 310 308 306 305 306 304 301 298 296 295 296 298 297 295 295 294 293 292 291 291 290 289 289 289 288 289 289 289 289 288 289 286
307 310 313 316 317 317 316 315 312 307 302 302 301 300 301 303 303 301 298 297 296 297 297 295 295 294 293 292 290 290 290 289 289 288 289 288 288 288 288 286 285 284 283
307 309 310 311 311 312 310 310 306 303 301 302 301 301 301 301 300 298 296 296 296 297 295 295 293 293 292 291 290 290 290 289 288 288 287 288 290 287 286 284 283 281 281
307 307 308 308 309 308 307 307 304 301 300 301 302 302 298 298 296 295 296 296 295 294 293 294 293 293 292 291 291 289 289 288 288 287 286 286 285 284 283 282 281 279 280
306 306 306 306 306 307 307 304 302 300 300 300 299 296 298 298 297 296 295 295 295 293 292 293 293 292 292 292 291 290 288 288 287 287 286 286 284 283 282 281 280 279 277
304 304 305 305 306 306 305 304 302 300 301 299 297 296 298 297 295 295 295 294 294 293 293 293 293 293 293 291 290 289 288 286 285 285 285 285 285 287 283 280 279 277 276
301 302 302 303 305 305 304 302 300 299 300 298 297 297 296 295 295 295 293 292 293 293 294 293 292 292 292 290 290 289 286 285 284 283 283 282 286 286 288 287 283 279 277
295 295 297 299 300 301 302 299 298 298 297 297 297 295 294 293 292 292 293 293 293 293 292 292 291 291 290 290 290 290 285 284 283 282 282 281 281 283 282 285 285 283 282
291 290 291 292 293 295 295 296 296 294 292 291 292 293 294 294 294 293 292 292 292 292 291 291 290 289 289 288 289 288 285 283 282 282 281 281 281 281 281 280 278 278 278
289 288 289 289 289 289 290 290 290 291 291 292 293 294 294 293 293 292 292 292 292 291 290 290 288 286 284 287 288 287 283 281 281 282 282 281 280 282 285 279 278 278 278
289 288 288 288 288 288 290 290 290 290 291 292 293 294 294 293 292 291 291 291 291 290 288 286 285 285 283 286 287 287 281 280 282 282 282 285 282 283 284 280 277 275 277
289 290 289 288 288 290 291 290 291 291 292 293 294 294 294 293 293 292 290 288 287 285 283 283 283 282 283 283 287 288 282 282 282 282 282 282 284 285 285 284 278 277 278
288 289 288 288 289 290 291 289 290 291 293 293 293 292 291 289 288 286 285 284 283 282 282 280 281 282 282 284 285 287 287 285 281 281 281 282 284 284 285 284 282 281 279
285 287 287 287 288 288 289 287 288 289 287 286 285 285 285 285 284 283 283 282 281 279 280 281 281 282 282 281 284 286 286 286 283 282 282 284 284 284 284 284 283 281 279
285 287 287 286 286 287 288 287 287 285 284 284 283 283 283 283 282 283 282 281 279 279 281 281 281 282 282 280 281 281 280 281 282 282 284 284 283 282 283 281 282 282 279
287 288 287 286 285 286 285 285 284 284 283 283 283 283 281 281 282 282 282 282 282 282 282 282 282 282 282 283 284 282 279 278 280 278 284 282 280 279 279 279 279 279 277
287 286 285 285 284 283 282 282 283 283 282 282 282 280 280 279 281 280 281 284 285 286 286 286 285 285 286 286 286 286 286 286 285 282 281 278 279 278 278 278 278 278 277

GFSMW_sfc_thetae_039.txt.gz
Theta_e
321 320 322 323 323 325 326 328 328 329 327 325 324 325 326 327 327 326 326 325 321 317 316 314 312 312 311 309 309 307 307 306 306 304 303 303 302 302 302 302 302 300 301
319 320 321 322 323 323 326 329 328 328 327 327 326 326 326 324 324 322 321 322 318 316 315 313 311 310 308 308 308 308 306 306 305 302 300 298 299 301 301 302 300 300 300
318 318 319 321 323 323 325 327 328 327 327 328 325 320 320 318 317 316 316 317 315 314 313 311 309 309 309 306 306 306 305 301 303 302 300 296 295 298 300 300 300 300 299
318 321 320 321 322 323 326 327 328 327 326 325 324 322 322 319 318 316 314 313 313 311 310 309 308 306 305 305 304 304 304 303 300 301 301 302 301 295 293 299 300 300 298
317 319 321 323 324 326 327 328 328 327 326 325 325 324 322 321 317 313 311 310 310 309 307 306 305 304 304 304 304 304 302 301 299 301 301 300 300 300 294 291 294 296 297
315 317 322 325 325 327 327 328 327 326 325 323 323 322 321 316 313 310 307 306 306 305 304 303 304 304 303 303 302 300 300 298 302 302 301 299 297 295 294 292 293 293 295
316 316 317 320 324 325 326 326 326 322 322 322 321 320 318 316 315 310 306 303 302 303 301 302 302 301 302 301 298 298 299 302 301 301 300 301 299 299 297 294 292 291 294
315 315 316 319 322 324 325 325 325 323 321 321 321 321 319 317 316 312 307 304 304 302 302 302 302 302 301 300 297 298 300 301 301 300 300 300 300 300 298 295 293 290 291
311 314 315 317 320 323 324 325 325 325 322 322 322 321 319 317 315 310 306 306 303 301 302 303 303 302 298 299 298 299 299 300 301 301 301 300 299 299 298 297 296 293 286
308 311 314 316 318 322 324 325 325 325 325 324 322 319 320 319 314 308 306 306 303 302 301 302 302 299 300 296 299 299 299 299 300 300 299 298 298 298 297 297 296 294 290
312 313 315 319 320 322 323 323 324 325 324 322 321 319 316 316 312 308 307 304 303 302 301 302 298 297 299 299 298 298 297 297 298 298 297 297 297 296 296 297 296 294 292
311 314 317 319 321 322 322 322 322 321 320 318 314 315 313 310 308 307 306 304 303 302 301 300 297 297 298 298 297 296 296 296 296 296 296 295 294 295 296 295 294 293 293
311 314 315 317 318 318 317 318 318 317 312 310 310 309 308 308 309 308 307 304 302 301 298 296 296 298 298 297 296 295 297 295 296 296 295 295 295 294 294 294 292 292 290
310 313 313 314 315 315 316 316 312 310 308 308 308 308 306 307 306 303 301 299 299 297 298 297 296 296 295 297 296 296 296 295 295 295 295 295 294 294 293 292 291 290 288
308 309 311 313 313 313 312 311 309 307 307 305 305 304 304 303 301 300 297 297 296 296 295 296 297 296 296 296 295 295 296 295 294 294 294 294 294 292 292 291 290 288 286
302 304 305 308 310 311 311 308 307 306 306 304 302 302 300 299 297 296 295 294 294 296 297 294 295 294 295 291 291 291 294 294 293 293 294 293 291 291 289 287 287 287 286
298 299 300 301 303 305 307 306 304 304 303 302 301 299 297 294 294 295 295 294 295 295 294 294 296 295 294 291 291 290 292 293 293 293 293 292 289 288 289 287 287 285 283
295 295 296 297 297 300 300 300 300 299 298 297 296 297 296 295 295 295 296 294 295 295 295 296 294 293 293 289 289 288 292 292 292 293 293 292 291 290 288 287 287 287 286
293 293 294 294 295 296 297 296 296 297 296 296 296 296 296 296 296 294 294 296 295 296 294 292 292 293 293 288 287 288 291 291 291 291 291 290 289 288 286 285 285 285 285
293 293 293 294 294 294 296 295 295 295 295 296 297 298 298 297 296 296 294 293 292 292 293 293 293 290 291 288 287 288 290 289 289 290 289 286 288 286 285 286 285 283 284
292 293 294 293 294 296 296 295 295 294 296 297 297 296 295 294 293 293 294 294 293 292 291 290 291 291 290 290 287 288 289 289 288 288 288 289 286 286 286 286 286 285 286
292 293 293 293 294 295 295 293 292 294 295 293 291 291 291 291 291 291 291 291 290 289 289 288 289 290 290 288 288 287 287 288 288 288 289 289 286 285 286 286 285 284 282
291 293 292 291 291 292 293 290 290 291 290 289 289 289 289 289 289 289 289 289 289 288 287 287 287 288 289 290 287 286 286 286 287 290 289 286 286 285 284 285 285 284 283
290 290 290 288 288 289 288 289 289 289 289 288 288 288 287 287 288 288 287 287 287 286 286 286 285 286 286 288 289 289 289 286 286 286 288 286 284 285 285 284 285 285 284
289 289 288 287 286 286 286 286 287 288 287 286 285 285 285 284 284 284 284 284 285 285 283 283 284 283 283 284 286 286 286 287 287 285 285 285 285 283 283 284 284 284 284
288 287 286 284 283 283 282 283 285 284 284 282 282 281 281 282 281 281 281 282 282 282 282 282 283 284 282 280 281 282 283 285 285 285 284 284 284 284 282 282 282 283 282

GFSMW_sfc_thetae_042.txt.gz
Theta_e
321 325 328 330 329 329 328 328 329 331 332 332 329 325 323 327 332 334 335 332 331 329 328 326 324 322 319 318 317 314 312 310 311 309 309 308 308 307 306 306 306 305 305
321 321 325 327 328 328 330 330 329 330 332 333 332 327 328 328 330 333 334 333 332 328 326 324 321 320 318 316 314 313 310 310 311 307 306 305 305 305 306 306 305 305 305
320 321 321 325 327 327 328 329 330 332 333 333 332 328 331 331 330 330 329 330 329 326 325 323 321 319 317 314 314 311 308 308 309 308 304 301 300 303 305 305 305 304 304
322 323 323 323 325 327 329 329 331 333 334 334 332 328 325 324 327 328 327 326 326 325 322 320 319 318 316 313 311 309 310 306 303 303 304 304 303 298 298 303 303 304 302
321 322 324 325 326 327 328 330 331 333 333 333 333 330 329 328 330 328 325 324 323 321 320 319 318 316 313 312 309 309 307 304 303 304 304 304 303 303 299 295 298 301 302
321 323 325 327 328 329 330 330 330 330 333 333 332 331 331 330 326 324 321 320 319 318 316 315 315 314 311 310 309 310 307 302 304 304 304 302 301 299 298 297 297 297 299
321 323 323 325 328 329 330 331 330 328 330 329 327 328 329 330 324 324 321 317 316 313 312 312 311 310 308 308 309 304 305 302 305 304 303 303 302 301 300 297 296 295 298
320 322 324 325 327 329 332 332 329 327 329 329 323 327 327 326 325 326 322 318 312 312 310 309 309 307 307 306 304 302 301 304 303 304 303 302 303 302 300 297 295 293 294
315 318 322 325 326 329 331 333 332 329 331 329 325 325 326 324 323 324 322 316 312 309 308 308 305 306 305 304 301 301 300 303 304 304 303 302 301 301 300 299 298 295 291
314 316 318 321 324 327 330 333 333 332 332 330 327 325 326 325 324 323 320 313 311 309 307 307 306 305 303 301 297 297 302 302 303 301 301 301 300 300 300 299 298 297 294
316 317 319 322 324 325 328 329 330 330 331 331 330 325 325 325 324 323 320 316 313 308 305 304 305 303 300 299 299 301 300 301 299 301 299 299 300 299 299 298 298 296 295
315 319 321 323 324 325 326 327 328 328 330 331 331 328 325 322 320 317 316 313 309 304 306 306 304 300 302 300 299 299 299 300 299 299 299 298 298 298 299 297 297 296 296
315 318 321 323 325 326 327 327 328 328 328 327 325 324 320 316 314 312 310 307 305 306 305 304 300 300 301 299 299 299 298 299 300 299 299 298 298 297 297 297 296 295 294
310 317 320 322 323 324 325 326 325 324 320 320 319 318 317 317 317 314 311 308 306 304 300 300 300 299 298 298 298 298 298 297 299 299 299 299 298 298 297 296 296 294 293
312 316 319 321 322 322 322 322 320 319 319 317 316 315 314 313 311 309 309 307 308 303 299 298 297 299 298 298 299 298 295 297 298 299 299 299 298 295 295 295 295 294 292
311 313 316 318 318 318 318 316 316 315 315 313 311 310 308 306 305 303 302 298 297 297 297 298 297 297 298 293 292 292 294 297 296 296 297 298 296 294 291 290 290 291 292
308 309 310 311 312 314 315 313 312 312 311 309 307 305 304 301 300 298 297 296 298 296 297 297 299 298 298 292 292 291 295 295 296 296 296 295 295 294 296 290 288 287 286
304 305 307 308 309 310 310 310 309 308 306 305 303 303 302 300 300 299 299 297 298 297 298 298 298 300 298 291 291 289 294 295 295 295 295 295 295 296 295 294 293 292 292
304 304 305 306 306 306 306 306 305 304 303 302 302 302 302 301 301 300 300 301 301 300 299 297 294 293 293 292 289 289 294 293 293 294 294 294 294 292 291 292 291 291 290
302 302 303 304 304 304 305 304 303 302 301 301 301 302 302 301 300 300 297 294 294 294 295 297 297 294 296 292 289 290 293 292 292 293 293 289 291 289 288 291 290 289 289
300 302 303 302 302 303 303 302 301 300 300 301 300 299 297 294 296 297 297 297 297 296 295 294 295 295 294 294 290 289 291 292 292 292 292 293 288 287 287 287 289 289 291
299 301 301 301 302 302 301 298 296 298 298 296 294 295 294 293 293 294 294 294 294 293 292 293 293 294 294 291 290 289 288 288 289 290 293 293 289 288 287 287 286 286 286
300 300 299 299 300 300 300 296 295 295 294 293 293 293 293 293 293 293 293 293 292 291 290 289 289 289 290 290 287 287 287 287 289 290 289 287 287 287 286 285 285 284 287
298 298 297 295 294 295 295 294 294 294 293 292 292 292 290 291 290 290 289 288 288 287 286 285 285 286 287 287 285 284 285 284 286 286 288 287 286 286 287 286 286 286 287
297 296 295 293 292 292 292 292 292 293 291 290 289 288 287 286 287 286 286 285 286 283 283 284 284 283 283 281 280 281 282 282 283 283 286 285 286 286 286 287 286 286 287
295 294 293 291 289 289 288 288 289 290 288 286 285 284 285 286 285 285 285 281 281 280 280 280 280 282 280 278 278 279 279 280 281 284 284 285 286 286 287 286 285 285 284

GFSMW_sfc_thetae_045.txt.gz
Theta_e
318 323 322 323 322 324 325 326 326 327 330 329 326 323 321 323 325 329 332 334 334 332 331 330 329 328 326 324 323 319 315 313 312 310 313 313 312 310 309 309 308 307 306
321 323 325 325 326 326 326 326 326 327 331 331 330 326 325 323 326 329 333 334 334 333 331 331 328 327 324 323 321 318 314 313 312 311 311 308 308 309 309 308 307 308 307
317 320 323 325 326 325 326 327 328 329 330 331 331 329 326 326 324 327 329 332 333 333 331 330 328 326 324 320 319 317 315 310 312 313 307 302 302 305 309 307 308 308 306
319 319 321 325 326 328 330 330 330 330 330 332 331 328 323 323 327 329 330 331 333 332 330 328 327 324 322 321 319 316 314 313 310 309 308 308 307 300 300 306 306 306 305
319 320 320 321 326 329 329 331 331 330 332 333 332 331 327 327 329 330 330 331 331 330 327 326 325 323 321 320 318 315 313 312 308 309 308 307 307 306 302 299 302 304 304
319 321 323 323 323 326 330 333 329 329 331 332 332 332 330 329 330 331 328 327 327 327 326 324 323 323 320 318 315 313 312 308 308 304 306 305 302 303 302 299 300 300 302
319 320 321 323 325 325 328 330 329 327 331 333 331 332 332 332 326 328 327 325 324 323 323 322 320 317 315 315 313 310 308 306 302 305 306 305 305 304 302 300 298 297 299
319 320 321 323 325 327 328 330 328 328 329 331 330 331 332 331 329 326 325 323 322 321 322 318 313 312 312 310 308 307 304 303 304 304 305 304 304 304 302 300 297 294 295
317 320 322 323 325 327 331 334 331 330 330 332 327 329 331 329 329 327 327 323 321 320 317 312 309 309 307 308 308 304 300 305 304 302 305 303 304 304 302 301 299 296 291
316 318 320 323 326 328 333 338 335 333 331 330 332 330 329 328 328 327 325 322 321 316 311 309 308 308 308 308 305 303 302 301 304 302 302 303 304 302 301 300 299 298 295
317 318 320 321 324 327 329 332 334 334 332 332 331 331 328 328 327 325 324 322 318 313 311 310 307 305 306 304 302 300 300 302 301 301 301 302 302 301 301 301 299 297 296
315 319 321 323 324 325 327 330 332 333 333 332 330 330 328 328 324 323 321 320 317 316 312 308 304 306 304 301 299 300 300 300 299 299 300 300 300 301 300 299 298 297 297
314 318 322 323 325 326 327 329 330 330 331 332 331 328 325 322 320 318 316 313 313 310 306 305 306 302 301 300 299 299 299 299 299 299 300 300 300 299 300 299 298 297 296
312 316 320 323 325 327 327 328 329 331 330 330 328 326 320 318 317 314 312 309 307 306 307 305 301 301 300 299 299 298 297 298 299 298 301 301 299 299 299 299 299 297 296
311 314 319 322 324 326 327 327 326 325 325 324 323 320 319 319 317 316 313 311 308 305 302 301 301 299 298 298 297 298 299 299 298 297 299 300 299 297 296 297 298 298 295
313 316 320 322 323 323 324 322 321 321 321 319 316 316 314 312 311 310 308 307 306 303 301 297 298 298 299 295 293 294 299 296 296 295 298 299 296 297 293 293 292 292 294
314 316 318 320 321 320 320 318 317 317 315 313 311 309 308 306 304 303 302 301 301 301 300 299 299 299 301 293 292 291 295 295 295 297 296 296 295 295 296 293 290 290 289
312 313 314 315 316 317 316 315 314 312 311 309 307 307 305 303 303 303 302 302 301 301 300 300 301 300 297 292 292 291 295 296 296 296 295 295 295 296 295 296 295 296 295
311 311 312 312 312 312 312 311 309 309 307 306 305 305 305 304 303 302 301 302 301 301 300 297 297 297 299 292 291 292 295 294 294 294 294 294 295 293 292 292 293 293 294
309 309 310 310 310 310 310 308 307 306 304 304 304 305 304 303 302 301 300 300 299 299 299 298 298 295 296 292 290 291 293 292 292 293 294 291 292 290 289 292 291 289 291
307 308 308 308 308 309 308 306 305 303 304 304 303 302 302 301 301 300 299 298 297 297 297 295 296 296 294 294 290 289 290 290 288 289 290 292 289 289 289 288 291 290 291
305 307 306 306 307 308 306 304 302 303 302 301 300 299 297 295 296 296 295 295 295 295 294 294 293 295 295 289 288 287 285 284 286 285 289 290 288 287 287 287 287 287 286
305 306 305 304 305 305 304 301 301 301 300 298 295 295 295 295 295 295 294 294 293 291 290 289 289 289 290 290 286 285 284 283 283 285 285 284 284 286 286 286 286 285 287
305 305 304 302 302 303 302 300 300 298 297 295 294 294 293 292 292 292 290 289 289 288 286 286 286 286 286 287 284 282 283 282 283 283 284 283 282 282 284 285 287 287 287
304 303 301 300 299 299 298 297 297 296 294 293 292 291 289 289 289 288 287 286 285 283 283 284 283 283 282 281 278 278 279 281 280 280 283 285 286 286 286 287 287 288 287
302 300 299 297 296 295 294 295 295 294 292 289 288 288 288 288 287 287 285 281 282 281 280 279 279 281 279 277 277 278 278 278 279 281 282 282 283 282 283 284 284 287 286

GFSMW_sfc_thetae_048.txt.gz
Theta_e
318 319 318 319 318 315 316 315 313 316 321 321 319 321 319 322 323 324 325 331 330 331 329 328 327 324 323 321 321 317 313 308 307 304 306 307 308 306 305 305 303 303 303
318 318 316 318 318 317 317 319 320 320 323 323 324 324 322 321 323 324 327 331 330 330 329 327 325 324 323 321 318 315 310 310 308 304 305 302 303 305 306 304 303 302 303
316 317 317 318 319 320 320 321 322 322 324 327 327 326 324 321 319 322 328 330 331 330 329 328 326 324 323 319 317 315 312 307 306 307 304 299 298 298 303 303 303 303 301
318 319 320 320 320 322 324 325 324 324 324 328 327 326 321 318 319 321 326 329 330 329 329 329 327 324 322 318 316 315 312 309 305 306 307 305 303 295 294 300 301 303 301
317 319 320 323 323 325 325 325 325 325 327 327 328 325 324 321 324 322 326 327 328 329 328 327 325 323 321 320 317 315 313 308 306 306 304 305 305 301 297 293 297 300 300
317 318 320 323 324 326 327 326 326 326 328 328 327 326 324 324 323 325 325 326 326 327 326 326 323 322 320 319 317 313 310 305 305 304 302 301 301 299 299 296 295 295 297
316 318 318 318 322 324 325 327 327 326 327 329 328 327 327 328 326 325 324 322 322 321 322 323 321 319 318 314 312 309 307 304 302 302 301 303 301 302 300 298 294 293 295
317 318 319 320 319 322 326 327 327 326 327 328 329 328 328 328 327 326 325 322 321 322 320 320 318 315 312 310 308 306 305 302 301 299 302 301 300 302 301 297 294 290 292
317 318 319 322 322 322 323 326 326 326 326 328 329 327 325 327 327 326 325 323 322 321 319 318 311 310 308 306 305 303 300 300 301 302 301 300 301 302 301 299 297 293 287
316 317 319 321 322 324 325 326 326 326 327 328 330 328 323 324 328 328 325 324 322 320 316 311 309 307 306 306 303 301 300 301 301 301 300 300 301 301 300 297 297 295 291
316 317 318 321 322 324 325 327 328 328 328 330 330 328 327 326 327 325 323 324 320 314 310 309 308 306 305 304 302 300 299 299 298 300 299 299 300 299 297 297 295 294 293
315 318 320 321 321 322 326 330 331 331 330 329 329 329 328 327 323 322 321 319 313 311 309 309 307 305 304 303 300 297 297 300 298 298 299 299 300 297 298 295 294 293 293
313 316 320 321 322 324 324 327 331 331 329 331 329 328 326 323 321 318 315 315 313 312 308 306 304 304 302 300 298 299 299 298 298 298 298 298 298 297 297 297 294 294 295
312 313 318 321 323 325 326 327 328 330 329 329 327 322 319 317 314 312 309 308 306 304 303 304 303 300 299 299 299 298 297 297 297 298 298 298 298 297 297 295 293 294 293
310 312 315 320 323 325 326 327 326 326 326 325 321 318 317 317 314 312 311 308 307 305 301 300 299 299 298 298 298 297 296 296 295 297 297 297 297 297 296 296 292 291 291
309 313 315 320 323 324 325 324 323 322 323 319 317 317 316 315 314 312 309 307 304 301 300 298 297 295 298 294 295 295 296 297 295 294 296 296 296 296 293 292 292 292 290
312 315 317 321 323 323 322 321 320 320 317 315 313 311 309 306 305 303 302 301 299 299 297 297 297 297 298 293 293 292 294 294 294 294 294 295 295 292 292 291 291 289 290
313 316 319 320 320 320 319 318 316 314 311 309 308 306 305 302 302 301 300 299 299 298 297 297 299 299 295 292 292 291 293 293 293 293 292 290 290 291 291 289 287 288 290
315 315 317 318 317 315 315 313 311 309 307 306 305 305 304 303 302 300 300 300 300 299 298 298 297 295 296 291 291 291 292 291 290 292 291 291 290 290 290 288 287 288 288
313 312 313 313 312 311 311 308 307 306 305 305 305 305 304 303 301 300 300 299 298 298 298 298 297 293 293 291 289 289 287 286 284 286 288 288 288 288 288 285 285 284 285
310 311 310 309 309 309 309 306 305 303 305 305 304 303 302 301 300 299 299 298 296 296 292 291 292 293 289 287 287 286 283 280 281 282 282 283 286 285 285 284 282 282 285
308 308 307 307 308 308 307 304 302 303 303 302 300 300 300 298 297 295 294 293 293 291 289 288 287 288 286 285 285 284 283 283 280 280 281 281 284 284 283 283 284 285 284
306 307 306 306 306 307 306 302 301 302 300 300 297 294 294 295 295 293 292 291 290 287 285 284 284 284 284 284 283 282 281 281 279 280 281 281 282 283 282 284 284 282 282
305 306 305 304 303 304 304 302 301 301 298 294 293 293 292 291 291 290 289 288 285 284 283 283 282 281 282 279 278 278 278 279 279 279 278 278 280 281 282 283 284 284 283
305 305 303 302 302 302 300 300 299 297 295 294 292 290 289 288 287 284 285 282 281 281 281 280 280 278 277 276 277 277 276 276 277 276 276 278 278 278 278 278 279 281 280
304 303 302 301 300 298 297 296 297 295 292 289 288 287 286 286 286 284 282 283 281 281 280 280 278 279 278 277 277 277 278 278 279 276 275 274 273 274 275 276 276 277 277

GFSMW_sfc_thetae_051.txt.gz
Theta_e
314 314 313 312 311 312 311 312 312 313 314 314 313 312 312 316 316 319 320 323 326 327 326 324 323 322 319 317 317 314 311 306 304 301 300 302 302 303 302 301 300 300 300
312 313 313 312 312 312 312 311 312 312 312 317 312 311 315 317 320 320 319 323 327 327 326 324 322 320 319 318 316 312 307 306 303 300 301 299 301 302 302 301 301 299 300
311 312 312 312 311 311 311 311 311 312 314 319 317 315 318 317 314 316 318 322 328 326 326 324 323 320 319 317 313 311 308 305 304 304 302 297 296 296 300 301 301 299 298
313 313 313 312 312 311 314 314 312 312 316 320 318 316 317 316 316 314 317 325 326 325 326 325 323 320 320 317 314 314 311 309 304 305 305 301 301 295 293 300 301 299 299
313 313 312 313 314 314 314 316 316 315 318 320 320 320 320 319 316 316 317 324 324 324 324 324 323 321 322 319 316 314 312 310 307 304 303 302 303 302 298 292 297 299 299
315 315 315 315 316 317 316 317 317 318 319 320 321 323 323 321 317 316 318 323 323 324 326 326 323 322 319 318 315 312 311 307 306 304 303 302 300 300 299 296 293 295 295
313 315 316 316 317 317 318 319 320 319 320 320 320 324 323 322 320 319 320 319 320 319 321 322 320 319 318 316 313 309 306 306 305 303 302 302 302 302 300 295 292 294 292
314 316 317 318 319 319 320 320 320 320 321 321 322 324 324 323 323 321 319 320 321 320 320 320 318 316 315 311 309 307 305 305 303 301 301 303 301 301 300 297 295 289 289
312 314 317 318 319 320 320 321 321 321 322 323 324 323 323 323 323 321 321 320 317 316 316 318 315 314 310 308 307 305 304 303 300 299 301 300 300 301 301 300 296 292 285
311 314 315 316 318 320 322 322 323 323 324 323 325 325 324 321 322 322 319 319 319 316 315 315 312 310 307 306 304 303 301 300 300 301 299 300 300 301 301 300 297 293 289
307 309 313 316 317 317 320 323 323 323 324 323 324 325 322 320 322 322 321 320 317 314 313 310 309 307 305 304 302 301 300 300 299 299 299 299 300 299 299 296 293 292 290
309 310 311 312 314 318 320 321 323 324 324 324 324 324 323 322 321 320 320 319 316 312 310 309 308 305 304 303 301 299 299 299 298 298 299 299 300 297 295 294 293 291 293
306 310 312 313 315 315 320 320 322 322 322 325 326 324 323 323 320 319 317 315 311 310 309 308 306 304 303 302 300 298 299 299 298 298 298 298 297 295 297 297 296 296 296
305 310 311 313 315 317 320 322 324 324 325 326 324 319 318 316 315 313 311 310 311 307 306 305 304 303 301 299 299 299 298 298 298 298 297 297 296 296 295 294 293 292 289
305 306 311 313 315 318 320 320 321 323 324 322 318 315 314 313 312 310 308 307 306 304 303 302 300 299 299 299 298 298 297 296 295 296 297 296 297 296 294 294 293 288 288
303 305 308 317 319 320 319 318 318 317 318 316 315 315 314 313 311 308 307 305 302 301 299 298 298 297 298 294 294 296 295 295 295 293 295 295 295 294 293 293 292 291 287
304 307 310 317 318 319 318 316 315 315 314 314 314 313 310 308 308 307 304 299 296 295 294 293 294 294 295 293 293 292 294 294 294 293 292 292 295 291 289 288 288 287 289
308 310 316 316 317 317 316 314 312 310 308 306 306 306 303 301 301 300 298 296 295 293 293 293 294 294 294 292 292 291 293 290 290 290 290 287 286 287 288 286 284 285 287
309 311 313 315 313 313 312 310 308 306 305 304 303 301 300 299 298 297 295 296 295 294 294 294 293 294 294 292 291 290 289 288 286 288 286 286 285 288 287 283 280 280 281
308 309 310 310 310 308 309 307 304 303 302 302 301 301 301 299 298 297 296 295 297 297 295 294 294 290 287 288 289 287 282 281 280 282 284 285 284 285 285 280 279 278 278
307 307 307 306 305 306 305 303 302 301 302 302 302 300 299 298 298 297 296 295 294 293 289 288 288 286 285 285 285 284 280 279 279 279 279 279 283 283 283 283 281 280 282
305 305 304 303 303 303 303 300 299 300 300 299 298 298 298 298 297 295 293 292 290 287 285 284 283 282 282 283 283 282 281 281 278 278 278 278 281 281 282 282 284 284 283
302 303 302 301 302 302 302 299 298 299 298 298 297 297 295 294 292 289 288 288 287 283 282 282 281 279 279 278 280 280 279 279 277 278 278 279 280 281 280 282 281 280 280
300 301 301 300 299 300 300 299 298 298 297 292 290 290 289 289 287 288 286 283 280 280 281 280 279 279 276 276 276 277 276 278 278 277 276 277 278 277 277 277 278 278 277
300 301 300 299 298 299 298 298 298 294 291 291 289 287 286 283 282 283 281 279 280 281 279 279 280 277 275 276 277 277 277 274 277 275 273 274 275 275 275 275 275 275 275
300 300 299 298 296 296 295 295 294 292 289 286 285 283 282 282 281 280 279 282 281 282 281 281 279 278 278 277 277 277 278 278 279 274 271 268 266 271 273 272 272 272 272

GFSMW_sfc_thetae_054.txt.gz
Theta_e
311 310 311 312 314 314 314 313 314 315 316 314 313 313 312 313 314 317 318 318 322 322 322 323 321 320 319 317 316 314 311 307 305 301 299 300 301 300 300 299 299 300 304
310 310 310 310 312 311 312 313 312 313 315 315 314 312 312 311 315 316 317 318 321 323 323 322 321 320 318 316 315 312 307 307 302 301 301 301 301 301 301 299 300 298 298
309 310 310 308 311 310 310 312 312 312 313 315 313 309 309 314 314 315 315 317 320 322 323 323 321 319 318 316 314 311 309 307 305 304 304 299 297 296 298 300 299 298 297
311 311 310 309 309 310 311 312 312 311 312 314 314 309 309 309 313 315 316 317 320 323 324 324 321 319 319 317 315 313 310 311 306 304 305 303 302 297 296 300 300 300 300
311 310 311 310 311 312 311 311 311 312 312 312 317 312 310 312 316 315 313 316 320 323 324 323 321 320 320 320 317 315 311 311 307 305 303 303 303 301 298 294 296 300 300
312 312 312 312 312 311 310 310 309 311 312 312 315 315 312 313 315 314 312 314 320 321 323 324 322 320 320 320 319 316 314 310 307 307 305 304 302 301 300 296 296 295 296
312 312 311 311 312 310 310 312 310 309 311 311 314 315 315 315 317 318 314 314 319 318 321 323 321 320 319 319 318 313 311 307 305 305 304 304 304 303 301 297 295 294 295
313 312 312 312 312 312 312 312 313 311 311 312 314 316 316 318 321 321 317 316 319 320 319 320 318 318 317 315 313 310 307 306 305 304 304 304 303 301 301 298 296 292 292
311 314 314 313 313 314 314 314 314 314 314 315 316 317 318 319 322 322 319 319 318 318 318 318 316 314 314 311 308 306 305 305 304 303 303 302 301 299 301 300 298 294 289
311 313 315 315 316 316 316 317 317 316 318 319 319 319 319 321 322 320 319 319 318 316 315 315 314 312 310 307 306 304 304 302 301 301 301 300 300 300 300 300 299 296 293
310 312 315 317 318 319 318 318 319 319 320 321 320 320 321 322 320 321 320 320 319 317 315 315 311 308 305 304 304 303 302 301 300 300 299 299 300 299 299 298 296 294 292
309 312 313 316 317 318 319 320 320 320 321 322 322 322 323 322 322 320 320 321 318 316 315 312 309 307 305 303 302 301 301 300 298 298 299 299 300 298 297 296 293 291 291
305 307 309 311 313 315 316 319 321 321 323 324 323 322 321 321 322 321 321 318 315 313 312 310 308 306 304 302 301 300 299 299 299 299 298 298 298 296 295 294 293 294 295
306 307 308 310 313 314 315 316 321 323 323 323 321 321 320 321 323 321 318 316 315 311 310 310 306 304 302 301 299 299 299 299 299 298 298 298 297 294 293 292 290 291 288
301 307 308 309 312 315 315 317 319 321 321 319 318 318 321 320 319 319 315 312 311 309 306 303 302 301 300 299 299 298 298 298 297 297 297 297 297 296 294 292 289 287 286
302 305 310 311 315 318 317 318 319 320 321 320 320 318 315 314 313 311 308 307 304 305 302 300 299 298 299 294 294 297 296 296 295 294 295 295 295 294 290 289 289 287 283
301 302 308 314 317 317 318 316 317 318 319 318 316 314 313 310 308 308 305 302 301 301 298 298 298 297 298 293 293 292 295 294 293 292 293 292 291 288 286 287 286 285 287
301 301 308 314 317 316 315 314 314 314 314 313 312 311 310 308 306 303 300 298 299 296 295 295 295 295 294 292 292 290 291 290 289 288 287 285 284 285 284 282 280 280 281
304 309 312 313 313 314 312 310 309 307 307 305 306 306 304 303 302 300 298 295 293 293 292 292 292 291 291 291 290 291 289 286 285 285 284 284 282 284 285 281 279 279 280
310 311 310 310 310 308 309 306 304 303 302 303 302 301 301 300 297 296 294 293 293 293 293 293 293 291 291 289 290 287 283 280 279 281 281 283 282 283 282 279 278 278 279
308 309 310 310 307 307 306 303 302 301 301 300 299 298 298 296 295 295 295 295 294 293 288 286 285 284 285 285 286 284 280 279 279 279 279 280 281 281 282 283 280 280 280
305 306 305 304 303 304 304 300 299 300 300 299 298 297 297 297 296 295 293 293 290 286 284 281 280 280 281 283 283 283 281 280 279 278 279 279 280 281 282 281 280 280 279
303 303 302 300 300 301 302 298 297 298 298 297 297 296 296 295 294 292 289 288 287 284 282 281 279 278 278 278 280 280 280 279 278 279 278 279 280 280 280 279 279 277 276
301 300 301 299 297 298 299 298 298 298 297 295 294 292 291 287 286 286 286 284 282 282 282 281 279 277 276 276 277 277 277 278 278 278 277 277 278 277 277 277 277 276 275
300 302 300 298 296 297 297 297 297 296 293 290 288 284 284 283 281 280 280 281 281 282 281 280 280 277 276 277 278 277 277 277 278 275 274 274 274 274 274 274 274 273 273
300 299 298 296 295 296 296 294 293 291 288 285 283 281 281 281 279 278 279 282 283 283 282 281 279 279 279 278 278 277 278 279 279 275 273 270 269 270 272 271 271 270 270

GFSMW_sfc_thetae_057.txt.gz
Theta_e
308 309 312 314 314 313 313 314 314 315 315 314 313 313 312 314 315 318 319 320 322 321 321 321 320 319 317 316 315 312 310 307 305 301 299 299 300 299 298 298 300 300 303
307 308 310 311 313 312 313 313 314 314 315 314 314 313 312 312 315 316 316 318 318 320 320 321 320 320 318 315 313 311 308 308 303 301 301 296 299 300 300 298 298 298 299
307 307 308 308 312 312 312 312 313 313 314 315 313 311 311 311 313 314 315 316 317 319 320 320 319 317 316 316 313 312 309 308 303 304 305 300 298 299 300 301 301 298 296
310 308 309 306 308 311 312 312 311 311 312 315 313 311 309 309 309 312 314 315 317 317 319 320 319 318 318 316 315 314 310 310 306 305 307 304 304 299 299 301 301 301 300
309 309 308 307 308 311 308 311 311 311 312 312 313 310 307 307 309 312 313 313 315 317 319 320 319 318 319 318 316 313 310 309 310 308 305 305 303 303 300 295 299 300 301
310 310 310 310 308 309 309 309 310 311 311 310 312 312 308 307 308 310 311 312 313 316 318 320 320 319 319 317 317 316 313 312 311 308 307 306 304 302 300 297 297 297 299
309 309 309 308 308 308 309 309 309 309 311 310 310 313 313 309 309 310 312 312 311 313 317 319 318 320 321 320 319 317 316 313 310 307 307 307 305 305 303 300 297 295 296
310 310 310 309 309 309 309 309 309 309 310 310 310 311 313 314 312 311 314 314 314 315 317 318 319 320 317 315 315 314 313 310 308 306 305 306 305 303 301 299 296 292 293
310 311 312 311 310 310 309 309 310 309 310 311 310 310 312 313 313 313 315 318 315 316 316 319 318 316 315 315 312 309 307 306 306 305 305 303 302 301 301 300 298 295 289
310 312 312 312 312 312 311 310 311 310 309 309 310 310 311 313 314 315 316 319 319 317 316 315 315 314 313 312 309 305 304 305 304 303 302 301 300 301 301 299 299 298 294
309 311 313 314 314 314 313 312 311 312 312 312 311 311 312 314 315 316 318 319 318 318 318 317 315 314 310 307 304 303 303 303 301 301 301 300 300 300 299 298 297 295 294
308 310 312 314 314 313 314 314 315 314 315 314 314 314 315 316 317 318 320 320 319 319 319 319 315 311 310 308 306 303 303 302 301 300 300 299 300 299 298 296 295 294 293
303 308 310 312 314 315 314 315 315 316 317 317 317 318 319 318 318 319 321 321 321 320 317 315 312 310 309 306 306 304 303 301 300 300 299 299 299 297 296 295 294 294 293
303 305 307 311 314 315 316 317 316 317 318 318 318 318 319 319 319 320 321 321 322 318 314 312 310 308 307 306 304 302 300 299 299 299 299 299 298 296 295 294 292 289 286
301 303 306 308 310 312 315 317 318 319 319 318 318 318 320 320 320 320 321 320 317 314 312 310 307 305 304 302 300 300 299 298 297 298 298 298 297 296 294 293 289 284 283
300 302 307 308 309 310 312 313 314 317 319 319 319 320 319 319 319 320 317 314 311 310 307 305 303 302 301 294 295 298 298 298 297 295 296 296 295 290 289 289 288 285 281
300 300 305 309 312 313 313 312 313 315 318 319 318 317 318 318 316 312 309 308 307 305 302 301 300 300 300 293 294 293 297 296 295 294 293 291 289 288 286 285 284 283 284
300 300 301 309 312 314 314 312 314 315 316 316 316 316 314 312 309 308 305 301 302 301 300 300 300 298 296 292 292 291 294 292 291 290 289 286 285 285 282 280 279 279 280
302 301 301 310 312 313 311 311 310 315 314 313 312 312 310 308 306 303 301 300 299 298 298 298 297 295 294 291 290 290 289 287 284 284 283 282 281 283 283 280 279 279 281
301 307 310 310 310 308 310 309 305 309 309 309 308 307 307 305 302 300 298 297 297 295 294 292 293 291 291 290 290 288 284 281 280 281 280 283 281 282 282 280 279 278 278
308 309 310 310 308 307 307 304 303 303 305 304 303 303 303 301 300 297 296 296 295 291 286 283 284 285 287 288 288 286 283 280 279 279 278 278 280 281 282 282 279 278 278
307 308 307 305 305 305 306 302 301 299 299 298 298 298 298 297 296 295 294 293 289 285 283 281 281 282 282 284 284 283 282 281 280 279 278 278 280 281 281 279 279 279 277
305 306 305 302 301 303 304 301 297 298 297 296 296 296 295 295 294 292 289 287 286 283 283 281 279 278 279 280 281 281 280 279 279 279 279 279 280 280 279 278 278 276 275
301 301 302 301 298 299 299 298 298 298 296 294 294 293 288 286 287 287 287 286 285 284 282 280 277 276 276 276 277 277 278 278 278 278 278 278 279 278 277 277 276 275 274
301 301 300 298 296 297 297 297 297 297 294 291 288 285 284 282 281 282 283 282 283 284 282 280 278 276 275 277 278 278 277 277 278 277 276 274 274 273 274 274 273 273 272
299 297 296 295 295 295 294 294 295 293 289 285 284 283 282 282 281 279 279 283 283 283 283 282 280 279 279 279 279 279 278 279 279 276 272 270 270 271 271 270 270 270 270

GFSMW_sfc_thetae_060.txt.gz
Theta_e
307 310 312 314 314 315 315 315 314 315 315 316 315 315 314 314 316 318 321 322 322 322 321 321 320 320 318 317 316 313 311 309 307 304 302 301 301 300 300 300 301 303 304
308 310 310 312 312 312 314 314 314 315 315 318 318 315 314 313 315 316 317 320 321 321 321 321 320 319 318 316 314 312 310 309 305 303 300 299 300 301 301 300 299 300 302
306 308 308 310 311 311 312 314 314 314 315 315 314 311 311 313 312 313 314 316 317 318 320 319 320 318 318 315 313 312 310 308 305 304 306 299 298 299 300 301 300 300 300
308 308 307 307 311 312 313 313 314 314 314 314 314 311 312 311 311 312 314 315 317 316 318 318 317 317 316 315 314 314 311 309 306 303 305 306 305 300 299 300 301 302 300
308 307 307 308 310 312 312 312 311 313 314 312 312 310 306 309 309 313 313 314 315 315 316 317 317 317 317 316 314 312 310 309 307 304 303 304 304 304 303 300 301 301 302
308 309 309 307 307 308 310 311 309 310 312 312 312 311 309 307 306 307 309 311 312 313 315 316 316 316 316 316 316 314 314 313 312 309 308 306 304 303 302 300 299 299 300
308 308 307 306 306 306 307 308 310 309 309 310 311 312 309 308 307 306 307 308 309 310 312 314 315 315 317 318 318 317 316 315 313 312 311 310 309 307 305 302 300 298 298
308 308 309 308 307 307 308 308 308 309 310 309 308 310 312 311 309 308 308 309 310 310 312 313 315 316 316 318 319 318 317 315 313 312 311 309 307 306 304 302 298 294 294
307 309 309 309 308 308 308 308 308 309 309 309 309 308 309 312 312 310 308 310 311 312 312 314 315 315 315 315 316 315 313 311 309 307 306 308 305 304 302 301 299 298 292
307 309 310 309 310 309 309 309 309 308 309 309 310 309 309 310 312 312 311 311 313 313 313 313 314 314 314 313 312 310 307 308 304 305 306 304 302 301 301 300 299 298 296
306 309 310 311 311 311 310 309 309 309 308 309 309 310 310 310 310 311 312 313 314 317 317 317 317 316 314 314 313 310 306 306 304 302 303 301 300 300 300 300 299 297 296
305 308 310 311 311 310 310 309 309 309 310 310 309 310 311 311 310 310 312 313 315 318 318 318 318 318 315 310 309 307 307 306 303 302 302 301 301 299 299 298 296 295 294
302 305 307 311 311 311 311 311 311 310 311 312 310 310 310 310 310 311 312 314 316 318 317 318 317 316 313 312 310 309 307 305 303 302 301 300 300 298 297 296 294 295 295
299 302 305 309 312 312 312 312 312 313 312 312 312 311 310 311 311 313 314 316 318 318 318 318 318 315 311 310 308 306 304 304 303 301 301 300 299 298 295 294 293 291 290
299 300 304 307 310 312 312 313 313 314 314 313 312 313 314 314 315 316 316 317 318 318 319 318 313 310 307 306 305 304 303 301 299 299 299 299 298 296 295 294 290 288 286
300 299 303 304 307 311 312 314 314 314 314 314 314 315 315 316 316 317 317 317 318 319 319 314 311 306 305 297 297 300 300 299 298 297 296 296 294 292 290 289 288 287 284
300 299 301 305 307 308 311 312 314 314 315 315 315 315 315 315 316 317 317 318 317 313 311 308 306 304 302 294 295 294 299 297 297 296 294 291 290 288 287 286 285 283 284
301 300 300 302 306 308 308 308 309 311 314 315 315 315 315 316 317 315 314 311 308 308 305 305 303 301 297 293 292 292 295 294 293 293 290 287 285 285 284 281 280 280 281
300 300 300 301 304 309 310 310 310 311 312 312 312 313 316 315 310 309 304 302 303 302 300 299 298 297 293 292 291 291 290 287 286 285 286 285 283 284 283 281 280 281 281
298 299 300 302 307 308 310 311 312 310 311 311 312 312 311 308 305 303 302 300 300 296 295 294 295 293 291 290 290 289 286 284 282 282 282 283 282 282 283 281 280 279 278
304 306 307 307 308 309 310 307 309 311 308 307 306 306 306 304 302 299 298 296 294 290 288 286 287 288 289 289 288 288 285 283 281 280 279 280 282 283 283 282 280 278 277
306 307 307 305 305 306 307 302 302 301 303 302 301 300 300 298 297 295 294 291 289 286 284 283 282 282 284 285 286 285 284 283 281 279 278 279 282 282 281 279 279 278 277
304 304 304 302 302 304 304 301 296 297 298 298 297 296 295 295 295 292 290 288 287 285 283 282 280 279 280 281 282 282 282 281 279 279 279 281 281 280 279 278 277 276 275
301 302 302 300 298 299 299 297 298 298 297 295 293 292 290 289 289 289 289 287 285 284 283 281 279 278 278 278 279 279 279 279 278 278 279 279 279 278 277 276 276 274 273
300 300 299 296 296 297 298 299 298 297 293 290 289 287 286 285 283 283 284 284 285 286 284 282 280 277 276 277 278 278 277 278 278 277 276 275 275 274 274 274 273 272 272
297 294 293 291 291 291 290 293 294 292 289 285 284 283 283 282 283 282 280 284 284 283 283 282 280 279 280 280 280 280 280 280 279 276 273 271 271 271 272 271 270 271 270

GFSMW_sfc_thetae_066.txt.gz
Theta_e
321 319 319 317 319 319 319 321 319 319 323 322 320 320 321 323 322 322 324 327 325 326 328 325 325 326 325 327 327 326 324 322 323 318 317 316 316 316 316 317 316 316 317
319 317 318 318 318 319 320 319 320 322 321 322 321 323 324 323 323 322 323 325 327 324 324 326 324 326 325 326 327 326 323 324 323 320 321 316 317 317 316 316 315 317 316
318 317 316 317 317 318 319 319 319 320 323 322 322 319 320 320 322 322 322 323 325 322 323 326 326 327 327 325 326 326 325 322 324 325 321 315 313 320 321 319 318 317 314
319 319 318 317 320 317 320 322 320 319 320 321 319 319 315 313 323 323 323 321 325 323 323 327 328 328 328 326 327 327 326 326 322 323 323 325 322 315 313 318 318 318 314
320 320 319 318 319 321 319 322 321 319 319 319 318 317 315 316 321 321 323 320 323 325 325 327 328 327 329 328 330 327 328 327 327 323 323 322 322 322 317 314 317 315 314
320 321 321 320 320 321 322 321 322 320 319 318 319 317 320 320 320 318 320 319 320 323 323 324 326 327 327 327 327 329 330 328 328 327 326 323 320 318 318 313 317 316 308
320 321 320 319 319 319 320 319 320 320 320 318 319 318 319 318 316 318 317 318 318 319 320 324 325 325 324 326 325 328 328 328 327 327 326 326 324 319 315 312 315 314 313
320 321 321 321 319 319 320 321 320 320 320 321 320 321 319 318 320 318 318 317 319 321 321 323 324 324 326 326 327 328 327 329 328 328 328 326 323 315 320 314 312 308 312
318 320 322 322 321 319 320 321 321 321 321 322 322 320 321 321 322 323 322 321 320 321 323 325 322 323 325 326 326 327 326 327 329 329 328 324 320 319 320 320 318 313 307
318 320 321 322 322 321 320 322 321 320 322 322 323 323 323 323 323 324 323 323 324 324 325 325 324 324 324 324 325 326 326 326 328 328 325 325 325 323 321 319 317 315 311
318 319 321 323 323 323 321 320 320 320 321 322 322 322 323 325 325 324 324 324 324 324 323 323 323 323 323 324 325 324 324 324 325 323 320 319 318 317 316 314 314 312 311
315 320 321 322 323 322 321 320 320 320 321 322 322 322 323 323 323 323 324 325 325 325 324 324 322 322 323 324 324 324 323 322 319 318 316 314 313 310 311 311 308 308 309
312 316 320 321 321 322 322 321 321 320 321 321 321 322 322 322 322 322 322 323 323 324 324 323 323 323 323 323 324 323 320 317 316 316 314 312 311 310 309 307 306 306 306
312 314 317 319 321 322 323 322 322 322 321 320 320 320 322 322 323 322 322 323 323 322 323 324 323 324 323 323 323 322 318 317 315 314 314 313 311 309 307 303 303 300 297
311 312 313 317 320 322 322 323 323 323 322 321 320 321 322 322 322 322 322 323 323 322 322 322 323 324 323 322 323 322 321 319 317 315 314 312 308 303 304 302 299 298 296
311 312 313 314 316 320 322 322 322 323 323 321 321 321 321 321 321 322 322 322 322 321 321 322 322 323 321 307 301 310 321 319 316 313 310 307 300 298 295 295 295 296 294
310 311 313 314 315 317 320 322 323 324 322 321 322 322 322 321 321 321 320 320 321 321 322 322 321 321 322 300 300 300 317 315 312 307 303 299 299 296 295 290 289 288 288
309 310 312 313 314 315 318 322 323 323 323 322 321 321 321 321 322 321 320 321 322 321 322 321 321 322 322 300 300 299 310 306 303 301 299 297 293 292 290 288 286 285 284
312 312 313 313 315 313 313 315 318 322 322 321 322 322 322 321 321 321 322 323 323 322 322 321 320 318 308 294 293 297 298 294 292 292 293 291 287 287 288 284 283 283 282
312 312 313 316 316 317 315 313 314 317 319 321 322 323 323 323 322 323 322 322 322 314 304 299 300 295 296 291 292 295 291 287 286 286 287 287 286 285 285 284 283 281 281
312 314 316 316 315 316 318 315 314 314 317 320 322 322 323 323 323 322 315 306 298 295 292 290 290 292 292 290 290 290 288 285 284 283 283 284 285 285 284 284 284 282 282
311 313 313 312 312 314 317 316 315 315 317 318 318 317 315 308 308 303 299 297 294 289 287 286 285 286 287 288 288 288 286 286 284 282 282 283 284 283 282 281 280 280 281
310 311 309 308 306 305 309 310 305 305 303 302 301 299 297 297 297 296 293 291 290 288 286 285 283 282 283 284 285 284 284 283 282 282 283 283 282 281 280 279 279 279 280
304 305 306 304 301 297 296 298 301 301 299 296 294 294 292 291 292 291 290 289 287 286 285 283 281 280 280 280 281 281 281 282 282 282 282 281 281 281 279 278 279 280 279
297 298 299 298 296 295 292 292 294 296 293 292 290 288 287 286 284 284 286 286 287 287 285 283 282 279 278 279 281 281 280 280 280 281 281 280 280 280 280 280 279 280 279
292 289 288 287 289 290 289 288 289 291 290 288 288 286 286 285 284 282 281 284 284 283 283 282 281 281 281 282 282 282 281 281 281 281 281 281 281 281 280 280 279 279 276

GFSMW_sfc_thetae_069.txt.gz
Theta_e
323 323 322 323 323 322 322 321 319 320 321 322 322 319 319 320 321 322 325 326 327 327 328 325 327 328 326 326 328 327 327 323 324 319 317 318 319 320 318 318 317 318 319
321 322 322 321 320 321 321 322 321 321 321 324 323 322 320 321 320 322 323 327 328 326 325 325 326 327 327 329 329 328 325 324 326 319 319 315 316 318 320 321 319 322 318
320 321 321 321 321 320 322 322 322 322 323 324 323 322 322 321 319 320 321 324 327 326 325 328 328 326 328 328 329 330 328 322 326 326 324 315 313 318 322 321 321 321 320
322 322 321 320 322 320 322 323 323 323 322 324 323 321 320 318 318 318 321 321 326 325 326 327 326 327 329 329 329 329 329 325 320 324 324 326 324 316 312 321 322 323 320
322 322 322 321 323 322 320 322 322 322 323 324 324 320 318 322 320 319 319 321 323 325 324 324 325 324 329 329 331 328 328 327 322 320 325 324 322 323 318 313 316 319 320
321 323 323 323 321 324 323 323 321 321 322 323 323 321 320 320 317 320 319 319 321 325 326 323 323 325 326 328 327 325 325 325 327 325 326 323 319 318 319 317 319 319 319
321 322 321 322 320 322 324 323 322 319 320 320 322 324 322 317 317 321 322 319 319 321 325 323 321 321 323 325 326 322 325 326 327 327 324 324 324 325 323 321 319 316 315
321 322 322 322 321 321 323 324 322 320 321 320 320 323 323 322 321 322 324 322 321 319 323 323 322 325 324 326 326 327 324 327 324 326 326 326 326 327 326 323 314 308 313
320 322 323 323 323 322 322 323 322 323 322 321 321 322 325 323 323 323 324 325 324 320 320 322 324 326 326 326 326 325 325 323 324 328 327 327 327 329 327 323 318 312 308
319 321 323 323 324 323 323 324 324 323 323 323 323 322 323 324 324 325 324 324 324 324 323 322 323 323 322 323 324 323 326 325 326 327 327 327 328 327 326 322 320 319 313
318 321 323 325 325 325 323 323 323 323 323 324 324 324 324 324 325 326 326 326 327 326 325 324 324 323 323 324 325 324 325 324 325 326 326 326 326 325 322 322 319 315 313
319 320 323 324 325 325 324 322 323 323 324 325 324 326 327 326 326 326 327 328 327 328 326 327 326 325 325 325 325 324 324 324 324 325 325 323 322 322 321 315 313 314 313
314 318 321 322 323 325 325 323 323 323 323 324 324 326 327 327 327 328 328 328 327 327 327 326 325 325 325 325 326 325 325 324 324 324 324 323 320 315 315 314 313 312 311
314 315 318 321 323 324 325 325 324 324 323 322 322 324 326 326 327 328 328 328 328 327 326 326 325 325 324 324 325 324 324 324 324 324 324 321 318 314 314 312 311 310 307
312 313 315 318 321 323 325 325 325 325 325 323 322 323 327 327 326 327 327 327 327 326 327 326 326 326 325 324 324 324 324 322 321 323 322 318 316 309 311 312 309 307 303
312 313 314 316 317 320 323 324 325 327 326 325 324 324 325 325 326 327 327 327 326 326 326 325 325 325 323 309 303 312 325 321 322 320 318 318 307 306 299 299 299 302 300
311 312 313 314 316 318 320 323 325 326 327 326 325 325 325 325 325 326 325 325 325 326 325 325 325 324 325 304 301 299 320 322 318 316 319 315 310 303 305 294 291 288 290
311 313 315 315 316 318 318 319 322 325 325 324 325 325 326 325 325 325 324 325 325 324 324 325 325 325 324 302 299 297 318 321 321 320 317 310 300 299 294 290 285 284 284
311 313 316 317 318 319 320 317 316 319 323 324 325 325 326 325 325 324 324 325 325 324 324 324 323 322 323 298 295 298 311 300 293 294 294 294 291 290 290 286 284 284 283
312 313 315 316 316 317 319 319 317 315 316 322 324 325 326 325 325 326 325 326 325 324 322 311 303 296 306 295 296 298 294 289 286 286 288 288 288 287 289 287 285 281 280
312 314 314 313 312 312 315 317 317 315 318 320 321 323 325 326 326 326 326 326 319 303 295 292 291 291 291 291 292 292 289 286 285 285 284 285 286 286 286 286 284 282 282
311 312 312 311 308 307 310 310 306 308 312 315 313 310 310 312 315 314 308 305 299 293 290 288 286 286 287 287 288 288 287 286 284 283 283 284 284 284 283 283 282 282 281
308 308 309 307 303 299 298 298 298 300 301 301 300 298 297 296 296 296 295 293 293 291 288 285 283 282 283 284 285 285 284 284 283 283 283 282 282 281 280 281 281 281 282
301 302 303 300 296 293 292 292 295 295 293 291 290 290 289 289 289 290 290 288 288 286 285 283 281 281 281 281 282 283 283 282 282 281 281 281 280 279 279 280 281 281 280
296 296 295 293 290 289 288 289 290 293 290 288 287 286 285 284 283 282 284 284 285 286 284 282 281 280 278 280 282 282 282 281 281 281 282 281 281 280 280 280 280 280 280
290 290 288 289 288 288 286 287 287 289 288 286 285 284 284 283 282 281 281 283 283 283 283 282 282 282 283 283 283 283 283 283 283 283 282 282 282 281 281 280 279 279 278

GFSMW_sfc_thetae_072.txt.gz
Theta_e
322 323 323 324 323 325 322 322 322 322 322 321 320 319 319 320 319 320 323 324 325 325 326 325 326 325 322 322 323 322 320 320 320 316 313 314 315 314 313 313 313 314 315
320 321 321 322 321 321 322 321 320 321 322 323 321 321 321 321 319 320 322 324 324 324 324 323 323 324 323 322 322 321 319 320 320 314 312 309 310 313 314 313 313 312 313
319 320 320 320 320 319 321 319 320 322 322 323 322 321 320 319 318 317 319 321 323 323 323 323 322 323 323 323 323 323 321 317 319 319 316 309 308 311 313 313 313 312 313
320 321 320 319 319 320 322 322 321 321 322 323 321 318 317 314 316 315 317 320 323 323 323 323 323 322 323 324 324 325 322 321 316 319 321 320 318 311 310 314 314 315 313
320 320 320 321 320 321 320 322 322 321 322 322 321 319 318 318 317 315 315 319 321 322 323 323 324 323 322 324 324 323 323 322 318 317 316 317 317 317 311 307 311 314 315
320 321 322 322 320 322 320 323 322 321 321 322 321 321 319 318 317 315 315 318 318 322 322 323 324 323 325 324 322 323 322 320 318 318 319 317 314 314 312 310 311 311 313
319 320 320 319 320 320 320 321 320 320 321 321 321 321 321 319 318 315 315 317 317 318 321 321 322 321 322 324 324 321 320 320 318 317 317 318 317 318 316 313 311 310 312
318 320 320 320 319 321 321 320 321 320 321 321 321 321 321 320 320 319 317 316 318 319 321 322 321 321 321 321 320 319 320 319 319 318 318 318 318 318 318 315 312 307 308
318 320 321 321 320 320 322 321 321 320 320 320 321 322 322 322 319 320 321 320 319 319 320 321 321 319 319 319 319 319 318 319 319 318 318 319 319 320 319 318 317 313 308
316 320 321 321 321 321 322 324 322 321 321 320 320 321 321 322 320 320 319 322 322 321 320 320 321 320 319 319 319 318 319 319 318 319 318 318 319 320 321 320 318 316 313
317 319 321 322 322 322 322 322 322 321 322 321 320 320 320 322 322 321 321 321 322 322 320 319 319 319 318 319 319 319 318 317 317 318 318 319 320 320 320 320 320 317 316
318 320 320 322 322 322 321 321 322 322 322 323 321 321 321 321 321 321 321 322 321 322 321 320 319 319 319 319 318 317 318 317 315 317 317 318 319 319 320 320 318 318 318
315 319 321 321 322 322 322 321 322 322 323 323 323 322 321 321 321 321 322 322 322 321 322 321 319 319 319 318 318 318 317 317 317 317 317 317 317 317 319 319 317 317 316
314 315 318 320 322 324 324 323 322 323 322 322 322 322 322 322 322 322 322 322 323 321 321 321 320 320 320 320 319 319 318 318 318 318 318 318 318 317 318 317 316 315 313
311 313 313 317 320 323 324 325 324 323 323 321 321 322 323 324 324 323 324 323 323 323 322 322 321 321 321 321 320 320 319 318 319 319 319 319 316 309 314 316 314 312 310
311 312 313 313 314 320 322 324 325 325 324 322 320 321 322 323 323 323 324 324 323 323 322 322 321 320 320 309 303 311 318 318 317 317 318 318 306 306 301 301 302 309 311
309 311 313 315 315 315 318 318 324 326 325 323 323 322 322 321 322 323 323 322 322 322 322 321 321 320 320 304 301 300 317 318 317 317 317 315 314 304 311 299 293 289 288
309 311 313 315 317 318 318 319 320 318 324 324 324 323 323 322 322 322 321 322 322 321 320 320 321 320 320 302 301 298 310 315 316 316 316 312 311 306 300 290 286 286 286
311 312 314 315 314 313 314 317 319 318 316 321 323 324 324 323 322 321 321 321 321 320 320 320 320 319 319 301 299 298 309 312 297 294 293 296 294 292 292 287 286 284 283
312 312 313 311 307 307 311 313 310 309 310 314 317 318 324 323 322 322 321 321 321 320 320 316 301 294 303 292 294 298 297 290 287 286 287 288 288 288 288 287 285 282 280
309 311 310 304 301 301 305 303 302 301 304 307 307 305 306 310 316 321 321 320 319 301 294 290 289 289 290 290 292 293 291 287 285 284 284 285 287 287 286 285 283 281 282
303 305 306 301 297 296 296 296 295 297 297 296 295 293 293 295 299 304 301 300 297 292 288 287 285 285 286 287 288 288 287 287 284 283 283 284 285 285 284 283 283 282 282
299 299 298 296 293 292 291 290 291 295 293 290 289 288 287 286 288 290 292 291 292 289 287 285 283 282 284 285 286 286 285 284 283 283 283 283 283 282 282 283 283 282 282
293 294 293 291 289 289 289 289 290 293 291 289 287 286 284 283 283 284 285 285 286 285 284 283 281 281 281 282 283 282 282 281 281 280 279 279 279 280 280 280 280 279 279
288 289 287 287 286 287 286 287 288 290 289 287 286 284 283 282 281 282 282 282 283 285 282 281 281 280 280 282 283 281 280 280 280 281 280 280 280 279 279 279 279 279 279
284 283 283 282 282 282 283 284 286 287 287 285 283 283 282 282 281 280 280 283 284 284 284 283 282 282 283 284 284 284 284 284 283 282 281 280 280 279 279 278 277 277 275

GFSMW_sfc_thetae_075.txt.gz
Theta_e
315 318 319 319 320 321 322 321 320 321 322 320 320 319 318 321 321 322 322 323 323 324 324 324 324 325 323 321 319 317 316 314 315 310 309 310 311 312 311 312 316 317 318
315 316 317 317 318 320 321 321 320 321 321 321 321 321 319 320 321 322 322 322 322 322 322 323 322 324 322 321 318 318 316 316 315 310 310 306 309 309 310 309 310 309 314
313 314 316 315 315 319 320 319 319 320 322 322 321 321 320 319 318 319 319 320 321 323 322 323 323 323 322 320 318 318 316 315 316 314 312 307 304 307 310 310 309 308 309
315 315 315 314 314 316 320 320 320 320 322 322 319 319 317 315 316 318 319 320 322 322 321 321 320 321 320 319 319 320 318 318 314 316 319 317 314 308 306 313 310 310 310
314 314 314 315 315 315 319 319 320 320 321 321 320 318 317 318 318 317 317 319 320 322 321 321 319 318 319 319 320 320 319 318 316 314 314 314 314 314 310 307 310 312 311
315 315 316 316 315 317 319 320 319 319 321 321 320 318 317 316 315 315 315 316 318 320 320 320 319 318 318 320 321 320 320 318 317 317 316 313 311 311 309 307 307 308 310
314 314 314 314 315 315 318 320 319 317 320 320 319 318 318 316 315 313 312 314 316 317 318 318 319 319 319 320 321 321 320 319 317 317 316 318 316 316 316 313 311 310 311
315 315 315 314 315 316 316 319 319 319 319 320 319 320 319 317 315 314 312 313 316 318 320 319 321 319 319 322 320 320 320 319 318 317 317 317 316 317 317 315 311 306 308
313 315 315 315 316 316 316 317 317 318 320 319 320 320 320 319 318 316 314 314 316 318 319 320 319 320 319 319 319 319 318 319 319 318 317 316 316 316 316 317 316 312 306
314 315 315 314 317 317 317 317 318 317 318 320 321 320 320 320 319 319 316 315 316 318 319 319 320 319 319 319 318 317 317 317 317 318 317 316 316 316 317 317 317 316 313
313 315 316 316 316 318 318 317 318 318 318 318 319 320 320 320 320 318 318 317 317 316 318 319 320 320 318 318 317 317 316 316 316 317 317 316 316 316 316 317 317 316 315
311 315 316 316 315 316 318 318 318 318 318 318 318 318 320 321 320 318 318 318 319 319 318 318 318 319 318 317 316 315 316 315 315 316 316 315 316 315 317 317 316 316 316
311 313 316 316 316 316 317 318 319 318 318 318 317 317 317 318 319 320 320 318 318 319 320 319 317 317 317 317 316 315 315 316 316 315 314 314 314 315 316 316 316 317 317
309 311 312 315 317 317 317 318 318 319 319 319 318 317 316 317 317 319 320 320 319 318 319 319 318 317 317 316 316 316 315 315 316 315 315 315 314 314 315 315 316 317 317
308 310 310 311 314 317 317 318 318 319 320 319 318 318 318 318 318 318 319 319 319 319 319 318 319 318 317 317 316 316 316 315 315 315 315 315 313 308 311 315 315 316 316
308 310 312 313 313 314 315 317 318 319 320 318 318 319 320 320 319 319 319 319 319 319 319 319 318 318 318 308 302 310 316 315 314 314 315 316 306 306 301 301 303 313 315
308 310 310 310 310 310 312 313 316 318 319 319 318 318 318 319 320 320 320 319 319 319 318 319 318 318 318 303 301 299 315 316 316 315 315 314 314 305 312 298 292 289 289
309 309 307 305 304 305 310 312 310 310 311 314 316 318 318 318 319 320 320 320 320 319 319 319 319 319 319 302 300 297 309 315 315 315 315 314 314 309 306 293 287 286 286
308 305 302 300 299 299 304 305 304 305 305 306 307 306 309 310 319 317 318 319 319 319 319 319 318 317 319 301 300 299 311 312 313 297 295 301 303 297 295 289 285 283 283
303 301 298 296 294 295 300 299 299 299 299 300 300 299 299 301 302 307 310 316 318 318 318 315 304 294 306 292 294 296 307 300 289 287 288 289 291 289 289 287 285 281 281
297 299 295 292 291 292 295 293 293 294 295 296 296 294 293 294 294 298 299 299 305 305 299 295 290 289 290 291 292 293 294 294 286 285 285 286 288 288 287 286 284 282 282
293 294 292 290 290 290 290 289 289 292 293 292 291 289 289 289 289 289 291 292 293 293 290 287 285 285 286 287 287 288 287 287 284 283 284 285 285 285 284 283 283 283 282
289 291 290 289 287 287 287 286 287 291 290 289 287 286 286 285 286 285 285 285 288 287 285 284 283 284 284 283 285 285 284 284 283 283 283 284 283 283 282 283 283 282 282
286 287 286 285 283 284 284 285 287 289 289 286 284 284 283 282 283 284 283 283 283 283 283 283 281 281 282 281 281 281 281 280 280 280 280 280 280 280 279 279 280 280 279
284 283 283 282 282 283 283 284 285 287 286 284 284 282 282 281 281 281 282 282 282 283 281 281 281 280 279 281 282 281 280 280 280 281 280 279 279 278 277 278 277 277 277
280 281 280 281 281 281 282 283 284 284 284 282 282 281 281 281 280 280 280 283 283 284 284 284 283 283 284 285 285 285 284 284 283 280 278 277 277 277 276 275 274 275 275

GFSMW_sfc_thetae_078.txt.gz
Theta_e
314 318 318 320 319 317 316 316 317 321 321 321 320 321 320 322 323 324 324 324 324 324 321 319 322 320 319 319 318 315 313 311 311 309 308 309 312 314 315 315 316 316 317
313 316 317 319 319 318 317 318 318 320 320 320 321 320 321 322 322 323 322 323 323 322 322 321 322 323 320 318 315 315 313 312 312 309 307 303 307 310 311 313 314 313 316
312 314 315 316 318 317 317 318 319 319 319 320 320 320 319 319 320 320 320 321 322 322 322 322 322 323 321 318 315 314 315 312 311 312 309 305 303 307 308 308 309 310 312
313 315 314 315 316 316 318 318 319 320 320 320 319 318 317 315 318 319 320 319 321 322 321 322 322 321 321 319 319 318 314 314 312 312 316 315 312 306 305 311 308 308 307
313 314 314 315 316 316 317 319 319 320 321 320 318 318 317 317 318 319 318 318 319 321 320 321 321 321 320 319 319 319 317 315 314 311 313 314 313 312 307 303 308 309 309
313 314 315 314 313 315 316 318 318 319 321 320 319 318 316 316 316 316 316 317 318 320 320 320 320 321 320 318 319 321 318 316 316 314 314 313 311 309 308 305 306 307 310
312 311 312 312 312 314 315 318 319 318 319 320 319 318 316 317 316 315 316 315 316 317 319 318 318 319 320 320 320 320 317 315 314 316 315 315 314 314 312 309 307 308 310
312 312 312 313 313 314 315 316 318 318 319 320 319 319 318 317 317 316 314 315 317 318 320 319 319 318 318 319 320 319 318 318 317 314 315 316 316 316 316 314 311 307 308
312 312 313 313 314 314 315 316 317 317 318 320 319 319 319 318 315 315 315 313 316 318 319 319 320 319 319 319 319 318 317 318 317 317 317 316 316 316 317 316 314 311 306
312 313 313 313 314 315 316 316 317 318 319 320 320 319 319 318 316 314 312 313 314 317 318 319 318 320 319 320 320 318 318 318 317 317 316 316 317 317 317 316 316 315 312
312 313 313 314 315 315 315 316 316 316 318 319 320 319 320 319 318 316 314 312 313 315 316 318 318 318 319 319 318 319 318 317 317 317 315 315 316 316 316 316 316 315 314
312 313 313 314 315 315 315 315 316 316 316 318 318 319 320 320 319 318 318 315 313 314 315 317 317 318 318 318 318 317 317 315 315 315 315 314 315 314 315 315 314 314 314
310 311 312 313 315 315 315 315 316 316 317 317 317 317 318 318 319 319 319 319 316 315 314 315 316 316 317 317 316 316 315 315 314 314 313 314 314 313 314 314 314 313 313
309 310 310 311 313 314 316 316 316 317 317 317 316 316 316 317 318 320 319 318 319 318 318 316 316 316 316 317 317 316 314 314 313 313 314 314 313 313 313 313 313 314 313
309 309 309 310 313 314 314 315 316 317 317 317 316 315 316 317 317 317 318 319 319 318 318 318 318 317 316 316 316 316 315 314 313 313 314 314 313 308 310 313 313 313 312
306 305 305 305 306 310 312 314 315 316 318 316 317 317 317 316 316 316 316 317 318 319 319 317 317 317 317 307 302 309 314 314 313 312 313 314 305 305 300 300 302 309 311
303 301 300 300 301 303 306 305 307 309 312 316 316 316 317 317 317 317 316 316 316 317 317 317 317 316 317 303 300 299 314 314 313 313 313 313 313 305 311 302 297 296 293
298 297 297 296 296 300 301 302 302 303 304 304 304 305 304 308 311 318 317 317 317 317 316 317 317 317 317 301 300 297 310 314 315 315 315 314 313 312 311 310 300 294 288
295 294 294 294 294 296 297 297 297 297 298 299 299 299 301 302 304 305 306 314 317 317 317 318 317 316 317 298 299 299 312 313 314 315 315 312 313 308 300 304 291 285 284
293 291 291 291 290 292 295 293 293 293 293 293 293 294 295 296 297 299 299 300 303 310 315 301 292 289 291 288 290 293 307 309 309 294 290 288 291 292 293 304 290 284 282
291 291 289 287 288 290 292 290 290 290 290 290 289 288 288 290 290 293 294 295 297 294 291 287 286 286 286 286 288 288 291 295 287 285 285 286 287 287 287 286 285 282 283
288 289 287 286 286 287 288 287 287 290 289 287 285 284 284 285 286 286 288 290 290 288 287 286 284 283 283 284 285 286 286 286 284 283 283 284 285 285 284 283 284 283 282
285 287 285 285 284 285 285 284 285 289 287 284 282 283 283 283 283 283 283 284 286 285 284 283 282 282 282 282 283 283 283 283 282 282 283 283 283 283 281 282 282 282 281
283 284 283 282 282 283 284 284 285 288 286 284 282 282 282 281 282 283 283 282 282 282 282 282 281 280 280 280 281 281 282 281 281 280 280 280 280 279 278 278 279 278 278
281 282 282 282 281 283 283 284 284 285 284 283 282 282 281 281 280 280 281 282 283 283 281 281 281 280 279 281 283 282 281 281 281 280 279 278 277 276 276 276 276 277 276
279 279 280 280 281 281 281 282 283 283 282 281 281 281 280 280 280 279 278 282 283 283 283 284 283 282 283 283 283 283 282 282 281 278 276 275 275 274 274 273 273 273 273

GFSMW_sfc_thetae_081.txt.gz
Theta_e
309 314 317 318 316 314 314 316 317 319 321 322 321 322 322 325 327 328 327 324 322 319 316 317 315 315 312 314 316 314 311 309 312 310 308 309 313 313 313 314 314 315 316
311 315 317 319 318 315 314 315 316 319 318 321 321 321 322 323 325 325 326 326 322 318 317 318 315 316 314 315 315 313 310 309 310 309 307 304 307 309 312 314 315 315 315
310 313 316 317 317 316 315 316 316 317 319 321 320 320 320 321 320 321 323 323 323 322 317 319 318 318 318 317 316 314 312 310 309 311 307 303 302 307 307 310 313 313 312
312 314 316 316 316 316 317 317 315 318 320 320 319 319 318 316 319 320 321 321 322 322 321 320 322 320 319 318 317 316 315 313 310 308 313 311 310 304 303 309 309 311 311
311 313 314 317 317 317 316 317 316 318 320 319 319 318 316 317 319 320 319 319 320 321 321 322 321 321 321 320 318 316 315 313 311 308 311 312 311 310 307 305 308 307 308
310 313 315 317 315 316 316 315 316 317 319 319 318 317 317 316 317 317 317 317 318 320 320 321 321 321 320 320 319 319 316 315 314 312 312 311 310 309 307 306 305 306 308
310 312 312 313 313 314 314 315 315 316 319 317 317 317 317 316 315 316 317 317 317 318 319 319 320 320 320 319 319 319 318 316 313 313 313 314 313 312 311 309 308 306 308
310 311 312 312 314 314 314 315 315 317 319 319 318 317 317 317 316 315 317 317 317 318 320 319 319 320 320 318 318 318 318 317 316 315 314 315 314 314 314 311 309 305 305
310 311 312 312 312 313 314 314 315 316 318 319 318 318 317 317 316 316 317 317 317 317 319 319 318 318 319 319 318 317 317 318 317 316 315 316 316 316 316 315 314 310 305
310 311 312 312 313 314 315 315 316 316 317 320 319 318 317 316 316 314 313 313 313 315 316 317 317 318 318 319 319 318 318 317 318 317 315 315 315 316 316 315 314 314 311
310 311 312 313 313 314 314 314 315 315 315 319 320 319 318 318 317 314 311 312 311 313 315 317 318 317 318 318 318 318 318 316 317 316 315 315 316 315 315 315 315 314 313
311 312 312 313 313 313 314 314 314 315 316 319 319 319 319 319 317 315 313 311 311 312 314 315 317 318 317 317 317 317 317 315 315 315 315 315 315 315 315 314 313 313 314
309 309 311 312 312 312 313 314 314 313 314 316 316 316 317 318 318 317 317 315 311 311 313 314 315 316 316 316 316 317 317 316 316 316 315 315 315 313 314 314 313 313 313
309 309 310 312 314 314 314 315 316 315 315 315 315 314 314 315 317 318 318 318 317 314 312 312 314 314 315 316 316 316 315 315 315 315 316 315 314 313 313 313 313 314 313
303 305 306 309 311 312 314 315 315 316 316 315 315 315 314 315 315 315 316 317 318 318 316 315 314 314 314 314 315 316 315 314 313 313 313 313 312 307 310 313 312 311 310
299 300 302 304 304 305 306 307 308 310 316 316 315 315 315 315 315 315 315 315 315 316 316 317 317 315 315 304 300 307 314 314 313 312 313 313 305 305 299 299 301 308 310
296 296 296 298 299 300 301 300 303 305 306 307 307 307 313 316 314 314 314 314 314 315 315 315 315 316 317 302 301 299 313 314 313 313 313 312 313 305 311 302 296 297 297
293 293 294 294 296 297 297 297 298 299 299 299 299 299 303 304 307 310 316 315 315 315 315 316 317 316 316 296 298 297 310 314 314 314 314 313 313 313 311 310 309 305 305
291 291 291 292 294 294 295 294 294 293 293 293 293 293 296 296 298 300 300 303 305 311 316 317 316 311 298 289 290 292 306 311 313 315 315 303 307 304 299 306 306 294 285
289 288 289 289 290 292 293 292 290 288 288 288 288 289 291 290 290 292 293 296 300 297 294 288 287 287 287 287 289 290 295 304 306 291 288 287 287 287 288 292 302 288 282
289 288 287 286 286 290 290 289 289 286 286 286 285 285 286 287 287 288 290 290 291 289 287 284 283 284 285 286 288 289 289 287 287 285 284 284 286 286 286 286 285 284 283
286 287 285 284 285 286 288 286 287 287 285 284 284 284 284 285 285 285 286 286 287 285 285 284 283 283 283 285 285 286 286 287 285 283 283 284 285 285 284 284 284 283 282
284 284 284 284 284 284 284 283 286 287 285 283 282 282 283 283 284 283 283 283 284 283 282 282 281 280 281 282 283 284 283 283 282 282 282 282 282 282 281 281 281 280 279
281 283 283 281 281 283 283 283 285 286 284 282 282 282 281 281 282 283 283 282 282 281 281 281 280 280 280 280 281 281 281 281 280 280 279 279 279 278 277 277 278 277 277
280 280 280 280 280 281 281 282 283 284 282 282 281 281 281 280 279 280 281 280 282 282 281 281 281 280 280 281 283 281 279 278 278 277 276 275 275 274 274 274 274 274 274
277 277 278 279 279 279 279 280 281 281 281 280 280 280 279 279 279 277 276 280 281 281 282 282 281 280 282 282 282 281 280 280 278 274 273 272 272 272 272 271 272 272 272

GFSMW_sfc_thetae_084.txt.gz
Theta_e
300 305 313 316 315 314 317 317 315 315 320 321 323 324 323 323 324 327 328 327 326 327 323 319 316 317 316 314 313 313 312 311 313 311 308 309 311 313 313 314 314 315 316
307 311 314 315 316 315 317 317 317 317 321 318 322 323 323 325 325 326 325 323 322 321 319 316 316 314 314 314 314 312 309 310 314 309 308 305 308 311 313 314 315 315 316
303 312 314 314 316 315 315 315 316 317 319 321 321 321 321 321 323 324 323 321 320 318 318 316 315 313 314 313 314 312 311 311 310 314 309 304 304 308 310 312 314 314 314
305 313 314 314 316 316 316 316 316 317 318 320 320 319 318 318 319 322 323 320 319 318 318 316 314 314 314 314 315 315 313 313 309 309 312 311 309 306 303 309 312 314 313
307 312 313 315 318 316 316 316 315 315 319 319 320 319 318 318 320 321 320 321 320 318 319 320 317 316 316 317 316 315 314 313 311 310 311 311 311 310 306 304 307 309 312
308 313 313 316 317 316 315 316 315 316 318 319 319 318 316 317 318 318 318 319 320 319 319 320 320 320 318 318 317 316 315 313 312 312 312 311 310 309 308 306 307 307 309
307 311 312 314 314 314 314 314 315 315 318 316 317 317 317 316 318 317 317 318 318 318 319 319 318 320 319 319 318 317 316 314 313 311 312 313 313 313 311 309 308 307 310
308 311 312 314 314 314 314 314 313 314 317 318 317 317 317 317 318 318 318 318 319 319 320 320 321 320 319 319 319 319 318 316 315 313 312 313 314 314 313 311 309 306 307
305 310 312 314 314 313 314 314 313 315 316 316 317 317 316 316 316 316 318 318 319 319 319 320 319 320 320 319 318 318 318 317 316 315 315 314 314 315 315 314 314 311 305
304 310 311 313 314 314 314 314 314 315 317 317 317 317 316 317 317 316 313 314 317 318 318 318 319 319 319 319 318 317 317 317 317 317 315 315 316 316 316 315 314 313 312
308 310 311 312 314 314 314 314 313 313 314 318 316 317 317 316 314 313 312 312 312 314 317 318 318 317 318 318 317 316 316 316 316 316 316 315 316 316 316 316 316 314 313
309 311 310 311 312 312 313 313 312 312 313 315 317 318 317 316 316 315 313 311 311 313 314 316 317 317 317 317 317 317 317 316 315 316 315 315 316 315 316 315 314 314 314
309 309 311 311 312 312 312 312 311 311 313 315 317 318 317 317 315 314 313 310 310 311 312 314 315 316 316 317 317 316 316 315 315 316 316 315 315 314 315 314 314 314 314
309 309 309 310 312 313 313 314 313 313 313 313 313 312 313 315 317 317 315 313 312 310 310 313 314 313 314 316 316 316 316 316 316 316 316 316 315 315 314 314 314 313 313
302 304 306 308 310 312 313 314 314 314 314 313 312 312 312 313 313 313 314 315 315 313 311 311 312 313 313 314 314 315 314 314 314 313 314 315 313 308 311 315 314 313 311
297 299 300 302 303 304 304 306 307 310 316 313 313 316 313 313 312 312 312 312 313 313 313 312 313 312 313 303 300 309 315 315 314 314 314 314 305 305 300 300 302 310 313
293 294 295 297 297 297 299 299 301 304 305 304 304 304 309 314 314 314 314 315 315 315 313 314 315 315 314 298 299 298 312 313 314 314 314 313 313 304 311 302 296 297 297
290 290 292 293 293 295 295 295 295 295 295 295 295 297 299 300 302 304 304 308 312 315 315 314 315 315 294 289 290 290 304 312 313 314 314 313 313 313 310 310 309 306 303
288 288 289 291 292 292 292 291 289 290 290 289 290 292 293 293 295 294 295 298 302 299 293 292 293 292 289 288 289 290 298 305 310 309 290 290 292 290 292 296 301 294 284
287 287 287 287 289 291 291 287 286 285 285 286 286 288 289 289 289 290 291 293 292 289 288 286 286 286 286 287 288 289 295 295 289 286 286 286 287 287 289 292 292 285 283
286 287 286 284 285 289 289 287 285 283 284 285 285 285 286 286 287 287 288 289 288 286 284 283 283 283 284 285 286 287 287 286 285 284 283 284 285 285 286 286 286 284 283
284 285 284 283 284 285 287 286 284 285 284 283 283 283 284 284 285 285 285 286 286 284 283 282 282 282 282 284 285 285 284 284 282 281 281 282 283 282 282 282 282 282 281
283 283 283 282 282 283 283 283 284 285 284 283 282 282 282 283 283 283 283 282 283 282 282 281 281 281 282 282 283 283 282 282 280 280 280 280 280 279 279 279 279 278 278
280 281 281 280 279 280 281 282 284 284 283 281 280 281 280 280 281 281 282 282 282 281 281 280 280 280 280 280 279 279 279 279 278 277 276 276 276 275 275 275 276 275 275
278 279 279 279 278 279 280 281 281 283 282 281 280 279 279 278 278 279 279 280 281 281 279 279 280 278 278 280 281 279 276 275 276 275 275 273 273 272 273 273 273 273 273
277 276 277 277 277 278 278 279 280 280 280 279 279 278 278 277 276 275 276 280 281 281 281 281 280 280 281 281 280 280 279 278 277 273 271 270 270 270 271 270 270 270 270

GFSMW_sfc_thetae_087.txt.gz
Theta_e
309 310 309 318 322 325 326 326 326 325 327 327 325 324 323 324 324 326 327 326 328 329 328 325 322 323 324 322 322 322 321 321 323 320 319 320 322 322 323 323 323 323 324
307 308 314 319 321 322 324 323 325 324 324 327 327 327 326 326 326 326 327 327 326 328 325 322 321 322 324 322 320 321 320 320 321 318 317 311 315 320 320 321 322 323 323
306 308 314 318 320 320 322 321 324 324 324 324 324 325 325 325 325 324 325 326 326 327 324 322 322 324 323 320 321 321 321 316 320 322 319 313 312 315 319 320 321 322 322
307 308 314 317 319 320 320 322 323 323 324 325 323 322 320 320 321 324 323 321 323 324 321 322 322 321 320 321 320 320 320 321 318 320 319 322 320 315 313 317 319 321 319
308 308 314 318 320 319 318 319 321 320 321 322 323 321 320 321 323 323 320 318 318 319 319 320 319 318 319 320 319 317 320 323 321 318 318 318 319 319 316 312 314 318 319
308 310 317 319 320 318 317 318 317 320 319 320 322 322 321 321 320 320 318 317 316 318 317 317 317 317 319 319 320 320 320 320 321 321 321 318 316 314 316 315 315 316 318
308 314 316 317 319 316 317 317 316 319 319 320 321 322 322 322 321 318 319 317 316 317 319 318 318 319 320 318 318 321 319 318 318 318 319 320 320 320 319 317 315 314 317
311 313 317 318 318 316 316 317 316 317 318 319 320 320 321 321 320 320 319 320 318 317 318 317 317 319 320 319 319 319 320 318 320 319 320 320 320 320 319 317 316 313 315
311 311 316 318 318 317 315 316 316 317 318 318 319 319 320 320 320 321 320 320 321 320 318 317 316 316 315 317 319 318 318 318 321 321 321 320 319 321 320 320 320 316 311
311 310 314 317 318 319 316 316 316 316 317 318 319 318 318 319 320 319 319 319 319 321 320 320 318 317 316 315 317 318 319 319 318 318 317 316 319 320 319 321 321 320 316
311 312 315 317 317 316 315 315 315 315 316 317 319 318 317 318 318 319 320 319 318 319 319 319 319 319 318 316 315 314 317 317 317 317 316 316 317 316 316 316 317 318 317
312 313 313 313 314 314 314 314 315 315 317 318 320 320 319 317 317 318 318 319 321 322 321 320 318 318 318 319 317 315 316 317 317 317 317 316 317 316 317 316 315 315 316
309 311 312 311 312 312 314 314 316 318 319 318 320 319 318 318 317 317 317 316 318 320 320 321 321 320 318 317 318 318 318 317 316 317 316 316 317 316 319 320 319 317 317
301 307 310 311 312 313 313 314 317 319 320 321 321 319 319 320 319 318 317 316 317 318 320 320 321 321 321 321 319 318 318 318 318 318 320 320 319 320 320 317 316 315 315
296 298 301 305 309 312 313 314 316 318 320 319 320 319 320 322 321 321 321 320 318 317 318 319 320 321 321 320 321 320 318 318 318 319 320 322 318 309 314 320 321 320 318
292 294 295 297 299 301 304 304 308 317 318 317 316 318 319 320 320 320 320 321 320 319 318 317 318 318 316 303 301 311 317 318 318 318 320 320 308 307 300 300 302 311 316
289 290 292 293 294 296 297 298 299 301 301 301 301 303 309 309 310 314 316 317 318 319 317 317 316 315 307 290 292 295 316 317 317 317 316 315 315 308 316 304 297 298 296
287 287 289 290 291 292 292 293 294 294 294 294 294 296 298 298 299 300 302 305 304 300 302 299 303 294 290 289 289 289 304 309 313 305 297 298 300 293 294 299 305 301 287
286 286 287 289 290 289 289 289 288 289 289 288 290 291 293 293 293 294 295 297 294 291 290 289 290 289 287 288 289 292 301 302 292 289 288 288 289 288 289 293 293 285 284
285 285 285 286 288 289 289 286 285 286 285 286 287 288 289 290 289 290 290 290 289 287 286 285 285 286 285 287 288 291 296 290 286 285 285 285 286 286 287 290 291 285 284
285 285 284 283 284 288 288 285 285 284 285 286 287 287 287 287 288 288 288 288 287 285 284 283 283 284 284 285 286 287 287 285 283 282 282 283 284 284 284 284 283 283 282
283 283 282 281 283 284 286 284 283 285 285 285 284 285 285 286 287 286 286 286 286 284 283 283 282 283 283 284 284 284 284 284 282 281 282 282 282 282 282 282 281 281 280
281 282 281 280 281 282 282 283 283 284 283 283 282 282 283 284 284 285 285 285 285 284 283 283 282 282 283 283 282 282 281 281 281 281 280 280 280 280 280 279 280 281 281
279 280 280 279 278 280 281 281 284 283 283 282 281 282 282 282 283 283 283 283 283 283 282 282 282 282 283 283 283 282 282 280 280 279 279 278 278 278 278 280 280 280 280
278 278 278 278 278 279 279 280 281 283 281 281 281 280 280 281 280 280 281 281 282 282 280 280 281 280 280 281 282 281 281 281 279 280 280 279 279 278 278 277 277 278 278
277 276 277 277 277 278 278 279 280 282 281 280 279 279 279 279 279 279 278 280 280 281 281 281 281 281 280 280 280 279 278 278 278 278 277 276 276 275 275 275 274 274 273

GFSMW_sfc_thetae_093.txt.gz
Theta_e
311 314 317 319 320 321 323 329 335 343 338 334 332 333 332 332 333 333 333 334 333 331 331 330 330 330 325 326 326 326 324 324 330 324 322 325 327 326 323 324 324 325 327
310 312 314 317 319 320 322 329 332 338 337 334 336 338 335 334 333 333 331 332 331 331 329 330 328 327 325 324 324 324 322 323 327 322 321 316 318 322 324 323 323 327 324
310 311 313 315 319 320 324 327 331 336 337 338 338 336 335 331 329 330 331 331 331 330 329 329 327 325 324 324 324 325 323 322 325 326 320 314 311 317 322 324 322 326 324
314 315 314 314 316 321 326 329 331 336 334 338 336 334 328 325 328 330 330 328 328 328 328 328 326 324 325 323 323 325 324 325 321 325 326 325 322 315 313 320 322 323 323
315 315 315 315 316 320 325 330 331 334 335 338 336 334 331 331 330 330 330 329 327 327 327 326 325 324 323 324 324 324 326 326 325 324 324 325 323 324 318 313 318 321 322
317 318 317 317 316 319 328 331 331 332 334 335 335 334 332 330 326 329 329 327 326 325 325 325 325 324 324 324 324 326 326 326 328 327 326 323 319 319 319 317 318 319 321
318 318 318 316 317 320 327 330 330 331 333 333 333 333 331 329 327 327 328 323 321 322 323 323 323 323 323 324 324 325 328 329 328 328 324 326 325 325 322 318 318 316 320
318 319 319 320 321 324 327 326 329 329 331 332 332 331 330 327 328 328 326 322 319 320 322 323 323 323 323 323 325 326 328 328 327 325 325 325 327 325 323 320 317 314 315
315 320 321 320 324 326 322 322 328 329 330 330 330 328 327 327 327 326 323 320 319 317 318 320 321 322 323 323 323 323 323 325 326 326 327 324 324 327 327 325 321 318 311
312 314 321 320 324 325 320 321 327 327 327 327 328 326 325 326 327 325 320 318 319 318 317 318 318 319 321 322 321 321 323 324 326 325 324 323 325 325 326 324 324 323 318
307 307 316 322 324 325 320 320 324 325 325 325 324 324 323 325 326 325 322 318 318 318 317 318 318 318 319 320 321 322 321 320 320 319 318 319 321 323 325 324 321 323 321
303 303 305 316 320 319 320 319 324 323 323 323 322 323 323 323 323 323 321 320 317 317 317 316 316 315 314 315 315 314 315 314 314 316 318 318 320 321 321 324 321 321 321
301 298 300 302 313 316 317 318 319 320 321 321 321 322 322 322 321 321 323 321 319 318 317 316 315 314 313 313 313 312 312 313 313 315 318 317 320 320 320 320 317 317 316
296 295 295 297 300 309 316 317 318 320 320 320 319 321 323 323 323 324 324 322 323 320 320 320 319 318 316 315 314 313 312 313 314 316 318 319 320 319 320 318 317 316 314
293 291 292 293 295 297 302 316 317 318 320 319 319 320 323 323 324 323 323 324 324 323 323 322 322 321 319 317 315 315 314 313 313 315 319 320 318 309 314 318 319 318 316
291 289 290 290 291 293 295 300 308 316 322 319 318 320 322 321 321 322 322 321 322 322 323 322 323 322 301 291 292 308 317 316 318 315 318 321 308 307 301 301 300 305 314
289 287 287 288 289 290 292 293 298 303 303 302 303 306 309 309 310 315 315 314 317 318 312 310 302 296 294 290 291 291 313 316 310 307 306 314 302 298 305 300 292 289 289
285 285 285 287 287 288 289 291 292 294 295 295 296 298 300 300 300 301 299 297 296 296 296 295 294 293 290 289 290 291 306 295 292 291 293 294 293 290 293 299 290 286 286
284 285 286 285 285 287 287 288 288 289 289 289 291 291 293 293 293 291 291 291 290 288 288 288 288 288 288 289 291 297 294 289 287 287 287 287 287 287 290 293 286 284 283
283 283 284 284 284 285 286 285 285 286 286 287 288 289 289 289 288 288 287 287 287 286 285 284 285 286 285 288 289 290 288 284 283 284 284 285 285 286 289 288 286 282 282
282 282 282 281 283 285 285 283 283 283 285 287 287 288 288 288 287 287 287 286 285 285 284 283 283 283 284 286 287 287 285 284 283 282 282 284 284 285 285 285 283 282 283
282 282 281 281 282 284 284 283 282 284 285 285 286 286 287 288 288 288 286 286 286 285 284 284 283 283 283 284 285 286 286 286 283 282 283 284 284 284 285 285 284 284 285
283 283 281 280 281 282 284 282 283 284 285 283 283 284 285 284 284 285 286 286 287 286 285 284 284 284 286 284 283 283 283 283 283 284 283 283 283 284 283 283 284 284 286
280 281 281 279 279 281 282 284 285 285 284 283 282 281 281 281 283 283 282 281 284 283 284 284 284 283 282 283 285 285 285 283 284 284 285 283 283 283 283 284 284 284 284
280 280 280 279 279 281 281 282 284 285 283 283 283 283 281 279 278 279 280 280 280 282 282 280 281 281 279 280 282 283 284 284 284 285 285 284 284 283 283 282 282 282 282
279 279 279 279 279 279 280 281 282 283 282 281 282 282 282 282 280 277 276 279 279 280 280 280 281 280 280 280 281 281 282 283 284 283 281 281 281 280 280 280 279 279 278

GFSMW_sfc_thetae_096.txt.gz
Theta_e
309 311 315 319 318 320 320 326 336 342 340 338 335 334 332 334 334 337 337 336 334 333 333 331 330 330 328 327 327 325 324 323 325 322 320 320 319 318 318 323 321 322 322
307 309 311 315 319 318 320 324 333 341 338 337 336 334 332 333 333 332 333 333 332 332 331 331 329 328 327 326 326 324 322 323 324 319 316 312 315 319 319 321 322 321 322
307 310 312 314 316 319 322 324 329 341 339 337 335 334 334 334 332 330 329 330 331 331 330 330 329 328 327 325 325 324 322 320 322 322 316 310 308 312 316 318 317 320 321
314 315 315 315 316 319 323 323 326 330 340 336 333 333 331 327 328 328 329 329 330 330 330 329 328 327 326 325 324 325 323 322 318 321 320 317 316 310 308 315 318 319 318
316 316 316 317 316 317 323 325 326 328 337 335 335 333 331 329 328 328 328 327 328 329 328 328 327 326 326 325 324 324 323 322 320 319 318 316 318 316 311 308 311 316 318
316 317 318 318 316 317 322 326 327 330 335 335 335 334 329 329 327 326 326 326 326 326 327 327 326 325 324 324 324 324 324 323 322 321 320 317 315 314 314 311 311 312 315
315 317 316 317 316 316 322 327 327 328 333 332 334 334 331 331 329 326 326 326 324 323 324 325 324 324 324 324 325 324 324 323 321 321 320 321 318 319 319 316 314 313 314
313 314 315 320 320 320 327 327 327 327 332 331 333 332 329 329 328 326 327 325 322 323 325 324 324 324 324 324 324 324 323 323 322 322 322 321 321 321 320 316 314 310 312
309 310 313 317 322 326 327 327 326 327 331 330 329 328 329 327 326 326 325 323 321 321 322 323 323 323 323 323 323 323 321 321 323 322 322 320 321 321 321 320 318 313 308
307 306 309 310 320 323 323 324 327 326 328 327 327 326 325 326 326 325 322 320 319 319 319 319 322 322 322 323 323 322 322 322 322 322 321 320 320 320 320 320 320 318 313
303 302 302 306 309 322 320 321 324 324 324 324 324 323 323 324 324 323 321 319 318 318 317 317 318 321 321 322 322 321 321 321 321 320 319 318 319 318 319 318 319 317 314
301 299 298 299 300 306 319 319 321 321 322 323 322 322 322 323 324 322 320 319 317 318 318 318 317 316 318 321 320 319 320 320 318 317 317 316 318 317 316 318 317 316 316
297 296 295 295 296 298 304 318 318 319 321 321 321 321 321 321 322 322 320 318 317 317 317 316 315 314 314 313 316 316 315 315 315 315 315 316 316 315 316 316 317 316 316
295 292 292 292 293 294 296 300 317 319 320 319 320 320 320 320 320 321 321 319 317 316 316 316 315 314 313 313 312 312 312 312 313 313 313 313 315 314 316 316 316 314 314
291 290 289 290 290 291 292 296 300 318 320 319 318 319 321 321 322 322 321 321 319 318 317 317 316 315 314 314 313 312 312 311 312 314 315 316 313 308 311 316 315 313 313
286 287 287 287 288 288 290 292 294 300 318 314 316 319 320 321 321 321 322 321 321 320 320 318 318 314 297 291 294 308 313 313 313 311 312 314 305 305 301 298 291 296 310
284 284 285 285 286 287 287 289 291 295 300 302 303 306 308 308 306 307 306 304 306 303 300 299 297 293 292 290 292 297 313 312 308 307 308 306 299 298 302 290 289 288 288
282 282 283 284 285 286 287 288 289 290 292 293 295 298 298 297 297 296 295 294 294 294 293 292 292 291 290 290 291 294 297 292 290 290 292 293 292 290 297 290 287 285 285
282 282 283 284 285 285 286 286 286 286 287 288 289 291 293 292 290 289 289 289 288 287 286 287 287 287 287 289 290 293 290 287 285 286 287 287 288 289 294 288 285 283 283
282 282 282 283 283 284 285 284 284 284 285 286 287 288 288 288 287 287 286 286 286 284 284 283 284 286 286 287 288 288 287 284 284 284 285 286 286 289 289 286 284 282 282
282 282 281 281 281 284 284 283 282 282 284 285 285 285 287 287 287 287 286 286 285 284 283 282 282 283 284 286 287 287 285 284 282 282 283 284 285 285 286 285 284 282 284
281 281 280 280 281 282 284 282 282 283 283 283 283 283 284 284 286 287 286 286 286 285 284 283 282 282 283 284 285 285 285 284 282 281 282 283 285 285 285 285 285 285 285
280 281 279 279 280 281 282 282 283 284 283 281 280 280 281 282 282 281 282 284 285 284 283 282 281 281 283 283 284 284 283 283 282 283 284 284 284 284 283 284 284 284 284
280 280 280 278 279 280 281 282 284 284 284 281 280 279 278 278 279 280 279 279 281 280 281 281 279 279 280 282 284 284 284 284 283 283 283 282 282 282 282 282 282 282 282
280 280 279 279 278 280 281 281 283 284 282 282 282 280 279 277 277 278 278 278 279 280 278 278 279 278 278 280 283 283 283 283 283 283 283 282 281 280 280 278 277 277 277
279 278 278 278 278 279 279 280 283 282 282 281 281 281 282 279 277 276 275 279 280 280 280 281 279 279 281 282 283 283 284 284 283 280 279 278 278 277 276 275 274 274 274

GFSMW_sfc_thetae_099.txt.gz
Theta_e
304 305 306 308 309 310 312 324 339 338 339 336 333 332 332 334 335 335 332 335 336 334 332 331 330 330 328 326 327 326 325 323 325 321 320 320 320 319 321 321 321 320 320
300 302 305 303 308 308 310 324 339 338 338 337 335 333 333 333 333 334 334 334 333 333 332 330 329 329 327 327 326 325 323 323 324 318 317 312 315 315 319 320 320 318 320
298 301 303 303 303 309 310 329 338 338 337 335 333 330 329 331 330 330 331 331 332 332 331 330 329 329 328 326 326 324 323 320 322 322 316 310 308 312 315 317 318 317 318
300 306 309 309 308 308 310 329 338 336 335 334 332 329 328 326 329 330 330 330 331 330 330 330 328 328 327 326 326 325 324 322 319 322 322 316 315 309 309 316 317 318 318
308 311 312 312 312 309 311 323 336 335 334 333 331 329 327 327 329 328 327 328 328 329 328 328 328 327 327 326 325 325 323 323 321 320 319 315 315 313 311 307 311 315 319
310 312 314 314 316 316 310 314 330 335 333 331 329 328 327 326 325 324 324 326 326 327 327 328 327 327 327 325 325 325 323 323 322 322 320 316 313 312 311 309 310 311 313
308 308 309 310 312 313 311 316 321 332 331 329 329 329 328 327 323 322 323 322 323 324 324 326 325 326 326 325 325 325 324 323 321 321 320 319 317 317 314 311 311 310 310
305 304 306 308 309 316 315 317 325 329 329 329 328 328 329 329 327 324 324 323 323 323 323 324 326 326 326 325 325 325 324 323 322 321 321 320 318 318 318 315 312 309 311
301 301 302 304 304 316 318 317 320 324 327 326 326 327 329 327 325 325 324 321 319 321 323 325 324 324 324 324 324 324 323 323 322 321 321 321 321 319 320 317 317 313 308
297 297 298 301 302 304 315 317 319 320 324 325 326 326 324 325 324 323 319 317 317 319 319 322 323 323 323 323 323 322 323 322 322 321 321 321 320 319 320 318 317 316 311
294 294 295 298 299 301 302 309 318 318 320 325 323 323 322 323 323 321 318 318 318 317 317 318 319 321 322 322 322 322 322 321 321 321 320 320 319 317 316 316 317 314 312
292 292 292 293 295 295 297 299 306 319 320 322 322 321 322 322 322 320 317 318 317 317 317 317 318 319 321 321 321 320 321 319 319 320 319 319 318 316 316 315 315 315 314
290 289 289 290 291 292 294 295 298 302 320 320 320 320 321 321 320 319 318 318 317 317 317 317 315 315 317 320 320 321 320 320 320 320 319 319 317 315 315 314 315 315 315
287 287 286 287 288 290 291 293 295 298 306 320 319 319 319 320 320 319 318 317 317 316 316 316 315 315 314 315 318 318 318 318 318 317 317 317 316 315 315 315 314 314 314
284 285 285 285 286 287 289 291 292 295 299 317 319 319 319 320 319 319 318 318 317 316 317 316 314 314 313 310 314 315 315 314 313 314 315 315 311 306 309 315 314 314 313
283 283 283 284 285 285 287 289 290 292 295 300 310 316 318 320 319 320 319 318 317 316 316 315 315 303 298 291 295 307 312 312 312 311 313 315 306 305 296 293 292 301 312
281 281 282 283 284 285 286 287 288 290 290 291 295 301 303 303 304 304 302 301 299 298 297 296 296 293 293 291 293 296 312 311 310 309 311 310 299 300 295 289 289 288 288
280 280 281 282 284 285 285 287 287 287 287 288 289 292 294 294 294 294 293 292 291 290 290 290 290 290 290 291 292 292 294 290 289 290 292 294 293 293 294 289 286 286 286
281 281 281 282 283 284 285 285 285 286 285 284 286 288 289 288 288 287 287 288 287 286 286 286 287 287 288 289 290 290 288 286 286 286 288 288 290 290 291 287 284 283 284
280 280 280 281 281 284 284 282 281 282 282 284 284 286 287 287 286 286 285 285 285 284 284 284 285 286 286 288 288 288 286 284 284 285 285 287 288 288 287 286 284 282 282
279 280 279 279 280 283 283 281 281 279 281 282 284 284 284 286 287 286 286 285 284 284 283 282 283 284 285 286 287 286 285 283 283 283 283 285 286 287 287 286 284 283 285
279 279 278 278 280 281 283 281 281 282 281 280 280 280 281 282 284 284 284 285 284 283 282 282 282 282 284 285 286 285 285 284 283 282 283 284 286 286 285 285 285 285 284
279 280 278 277 279 281 281 280 282 282 280 279 278 278 279 279 280 280 282 281 282 281 280 280 280 281 283 283 284 284 284 284 283 283 284 284 284 283 283 284 284 283 283
277 278 278 276 277 278 280 281 282 283 282 279 278 278 277 277 278 279 279 279 279 278 279 278 278 280 281 282 283 284 284 283 283 282 282 281 280 279 278 278 279 279 279
277 277 276 276 276 278 278 280 281 282 281 281 281 278 277 276 276 278 278 278 279 279 278 278 279 279 280 282 284 283 282 282 282 282 281 279 278 276 275 275 276 276 276
276 275 275 276 275 276 277 279 281 281 280 279 280 280 279 277 276 275 276 280 280 281 282 282 280 281 283 284 284 283 283 282 281 279 276 275 274 274 274 273 273 274 274

GFSMW_sfc_thetae_102.txt.gz
Theta_e
300 302 303 304 305 307 308 320 334 337 339 337 335 332 333 333 332 333 334 334 332 331 330 329 329 330 329 328 328 326 325 324 325 323 321 322 321 323 323 324 323 321 321
296 298 299 300 302 306 307 315 332 336 338 337 337 335 335 332 333 333 334 336 335 333 331 330 330 330 328 327 326 325 324 324 325 320 318 313 315 317 321 321 321 320 320
296 297 299 298 298 301 304 314 329 335 338 338 336 330 331 328 327 331 333 333 334 333 332 331 330 329 329 326 326 325 324 321 323 322 317 311 309 313 317 318 319 318 318
299 301 308 309 309 306 303 313 326 335 337 337 334 331 330 328 330 331 332 332 332 332 331 330 329 329 329 327 326 326 325 323 319 320 321 319 315 311 309 316 317 317 317
308 308 308 310 312 312 312 325 331 335 336 335 333 331 329 329 326 328 329 329 330 330 329 330 328 328 328 327 327 326 324 324 321 320 319 318 314 315 313 309 311 315 317
304 305 307 308 309 314 317 319 334 334 334 334 332 330 328 326 326 327 327 327 328 329 329 328 328 328 328 327 326 326 324 323 321 322 320 317 313 312 312 310 312 312 314
300 300 301 303 304 306 315 312 333 333 333 332 331 329 327 326 325 325 325 325 325 326 327 327 326 327 327 326 326 325 324 323 322 321 321 320 317 316 314 312 311 310 310
297 297 299 301 301 303 305 316 324 331 330 329 328 328 327 326 326 325 323 324 324 323 325 326 326 326 326 326 326 325 324 324 323 321 322 320 318 317 316 314 312 307 308
293 293 296 297 298 299 301 304 317 321 327 326 326 325 325 325 325 323 324 324 323 322 324 324 324 325 326 325 325 324 323 323 323 322 322 321 318 318 317 317 315 311 306
290 291 293 293 295 297 298 301 305 311 320 323 325 326 325 323 323 323 323 322 320 321 321 322 323 324 324 324 324 323 324 323 322 322 321 320 320 319 318 317 316 314 311
287 288 290 291 293 294 295 297 300 303 309 319 320 322 321 322 321 322 320 319 317 316 318 320 321 322 322 323 323 323 323 322 321 322 321 320 321 318 318 318 316 315 313
286 286 287 289 289 290 292 295 298 297 302 314 318 320 322 322 320 319 319 318 315 316 317 315 317 318 319 322 321 321 321 321 320 320 320 319 320 318 316 316 316 314 313
284 284 285 286 287 288 289 291 294 295 299 304 318 320 320 320 320 319 318 316 317 317 316 317 316 316 317 319 320 321 320 320 320 320 320 319 319 317 316 315 314 315 314
283 283 283 284 285 287 288 289 291 294 296 302 319 319 319 320 319 319 317 316 316 317 316 316 316 315 314 315 319 320 320 320 320 320 320 320 319 318 316 315 315 314 313
281 282 282 283 284 285 286 288 289 292 295 296 300 308 319 320 319 318 317 317 317 317 316 315 315 314 309 303 306 319 319 318 318 319 319 319 315 307 311 316 314 314 313
280 281 281 282 283 284 285 287 288 289 291 292 292 296 303 317 317 318 318 315 310 312 312 311 309 303 299 291 293 306 315 316 316 315 316 313 306 303 300 297 293 304 313
279 279 280 281 283 283 284 284 286 288 288 288 289 290 293 297 299 300 298 297 296 296 294 295 295 293 293 291 293 296 308 302 304 308 311 306 302 300 294 289 289 288 288
278 278 279 280 283 283 283 284 284 285 286 286 286 288 289 289 291 291 290 289 289 289 289 289 289 290 290 290 291 291 293 291 290 291 295 299 297 296 294 290 287 286 286
279 279 280 280 282 283 283 282 281 281 281 283 284 285 287 286 286 286 286 286 286 285 285 286 286 287 287 288 289 290 289 287 286 288 289 291 291 290 291 288 284 283 284
279 278 279 280 280 282 283 281 279 279 279 280 282 284 285 285 285 285 284 284 284 283 284 284 285 286 285 287 288 288 286 285 285 285 286 287 287 288 288 287 285 283 282
278 278 278 278 279 281 282 279 279 277 279 280 280 280 281 283 284 285 285 284 284 283 282 282 283 284 285 285 287 286 285 284 283 284 284 285 286 287 286 286 285 283 284
277 277 276 276 278 280 280 280 279 280 279 279 278 279 279 280 281 282 282 283 282 282 282 282 282 283 284 285 286 285 285 285 283 282 283 285 286 286 285 284 284 284 283
276 277 275 275 277 278 279 278 281 282 280 278 277 277 278 279 279 279 279 279 280 280 281 281 281 281 283 283 284 284 283 283 281 281 281 281 281 281 281 282 282 282 282
275 276 275 274 274 277 278 279 279 282 281 279 278 277 276 277 278 279 279 279 278 278 279 279 280 281 282 282 283 283 283 282 281 280 279 278 278 277 277 278 278 278 277
274 274 274 274 273 275 276 278 279 279 279 279 280 278 277 276 276 278 279 279 280 281 278 279 280 280 280 282 284 282 281 281 280 279 278 276 276 275 275 275 276 276 276
273 272 273 273 273 274 274 276 278 279 278 278 278 279 279 277 276 275 275 280 281 281 282 282 282 281 283 283 283 282 282 281 279 276 274 273 273 273 273 272 273 273 273

GFSMW_sfc_thetae_105.txt.gz
Theta_e
298 299 300 300 300 301 303 308 324 336 337 337 335 333 332 334 333 335 335 333 334 332 331 330 329 329 327 327 328 326 324 323 324 322 322 323 325 325 326 326 325 324 322
294 297 297 297 297 298 302 306 322 333 336 337 337 335 334 334 334 334 334 334 333 332 332 331 329 329 328 327 327 326 324 324 324 320 318 313 315 320 324 325 324 323 322
296 295 296 295 297 297 297 304 318 328 335 337 336 329 328 329 330 331 333 334 333 332 331 331 330 330 329 327 327 326 324 321 324 324 318 312 309 314 319 320 322 321 319
303 303 307 308 307 309 310 304 311 327 333 336 334 331 330 329 331 332 333 334 334 333 332 330 330 330 329 328 327 327 325 324 320 323 323 318 316 311 309 317 318 319 318
301 301 303 305 306 308 312 313 308 323 331 335 335 332 329 330 328 330 330 331 332 331 332 330 329 329 329 328 327 326 325 325 323 321 320 319 317 316 312 310 312 315 317
298 299 302 303 304 305 306 313 321 325 332 334 334 331 330 328 327 328 329 329 329 330 330 330 330 329 328 327 327 327 325 324 324 323 321 319 315 313 313 311 313 313 314
294 296 297 298 300 300 302 307 320 329 332 333 333 332 330 327 327 327 328 328 327 327 328 329 328 328 328 328 327 326 325 324 323 323 321 321 318 318 317 315 313 312 311
291 292 295 296 296 298 299 301 306 311 333 333 332 332 328 327 327 327 328 326 326 328 328 328 328 328 327 327 327 326 326 325 324 322 322 321 320 318 317 315 313 307 308
287 288 290 293 294 295 296 299 301 305 310 330 331 329 326 324 324 324 325 326 324 323 324 327 326 326 326 326 325 325 323 324 324 323 322 321 320 318 318 316 316 312 306
285 286 288 290 292 294 295 296 300 301 305 317 327 325 324 324 322 322 321 321 320 322 322 322 323 323 324 325 325 324 323 323 323 323 322 321 321 318 317 316 316 314 311
284 284 286 288 289 292 293 294 296 298 301 305 316 323 322 321 321 321 319 321 321 321 321 321 321 321 323 323 323 323 323 322 322 322 321 321 321 318 317 317 316 314 312
283 284 285 286 287 288 290 292 294 296 299 302 308 320 320 321 320 319 319 319 318 318 319 318 318 319 319 321 321 321 322 321 321 321 321 320 321 318 318 317 315 315 313
282 283 283 284 285 286 288 289 291 294 297 300 307 319 319 319 318 318 318 317 317 316 315 316 316 316 316 316 317 318 320 321 320 321 320 320 320 318 317 317 316 315 314
281 281 281 283 284 285 286 287 289 291 294 296 298 302 313 319 318 318 317 317 317 314 315 316 316 315 314 314 314 316 318 319 320 321 321 321 320 319 317 316 316 315 314
279 280 280 282 283 283 284 285 287 289 291 293 293 295 302 317 319 317 317 316 316 317 316 316 315 313 309 301 298 304 316 319 318 319 320 320 317 310 314 317 315 315 314
278 279 280 281 282 282 282 283 284 286 288 288 289 292 293 296 298 309 314 310 306 306 305 303 304 300 299 290 291 296 311 316 318 317 318 320 308 305 300 302 302 310 313
277 278 279 280 281 282 282 281 282 284 285 285 287 288 289 289 290 292 294 294 295 294 293 293 294 292 291 290 292 294 302 300 297 302 311 308 302 298 295 290 290 288 289
277 278 278 279 281 282 281 282 282 282 282 282 283 286 287 286 287 286 286 287 288 288 288 288 289 289 289 289 290 290 293 291 290 291 294 300 298 297 295 291 288 286 286
278 278 279 279 281 282 281 280 279 280 280 280 281 282 285 285 285 284 284 284 285 285 285 286 286 286 286 288 288 289 289 287 286 287 289 291 291 290 293 290 286 285 284
278 277 278 279 279 280 282 279 277 277 277 279 280 281 282 283 284 283 283 284 284 283 284 284 285 286 285 287 288 287 286 285 285 285 285 287 287 288 288 287 286 284 283
276 276 277 277 277 280 281 279 278 277 277 278 279 280 281 281 281 282 283 283 283 283 283 282 283 284 285 285 287 286 285 284 283 283 284 285 286 287 287 286 285 283 284
274 275 274 275 277 278 278 277 278 280 278 277 277 278 279 280 280 280 280 281 281 281 282 282 282 283 283 284 284 284 284 283 281 281 282 283 285 285 284 284 284 284 282
273 274 273 273 275 276 278 276 277 280 278 276 275 276 277 279 279 279 280 280 280 280 280 281 281 281 282 283 284 283 282 282 280 280 281 281 281 281 280 281 281 280 280
271 272 273 272 272 274 275 276 278 277 278 278 277 276 276 276 278 279 279 279 279 279 279 280 279 280 281 281 281 281 281 280 279 278 278 278 278 277 277 278 278 277 277
271 271 272 272 272 273 273 275 277 278 277 278 278 277 277 276 276 276 278 278 279 281 279 279 280 279 278 280 282 281 278 278 278 277 276 275 275 274 274 274 275 275 276
272 271 272 272 272 272 273 274 276 278 277 277 277 276 276 276 275 275 275 279 279 280 281 281 281 280 281 282 282 281 280 279 278 275 273 272 272 272 272 272 272 272 272

GFSMW_sfc_thetae_111.txt.gz
Theta_e
300 302 308 311 308 306 305 306 309 314 326 333 334 333 331 334 337 337 338 338 337 336 337 338 333 334 332 330 329 330 329 328 330 327 326 327 331 329 330 331 330 329 329
301 306 307 308 309 311 312 314 313 309 312 329 335 335 334 334 337 336 336 336 336 336 335 335 333 332 332 330 329 328 326 327 328 324 323 319 323 328 330 331 329 329 328
299 302 303 304 305 307 308 309 312 315 316 315 331 337 338 338 333 333 334 334 335 335 334 334 333 332 332 329 329 329 327 324 325 328 324 317 315 320 326 326 326 327 327
295 296 298 299 301 303 305 307 308 310 315 319 321 333 331 329 331 333 334 334 334 335 334 333 333 331 331 331 330 330 329 328 323 325 326 330 326 319 315 321 324 326 325
290 291 292 294 296 298 299 301 304 308 314 318 322 333 333 334 335 336 336 334 333 334 333 333 332 331 332 332 330 330 329 330 327 324 324 326 324 322 318 315 317 321 324
288 288 291 291 292 294 296 298 300 304 312 320 321 332 334 333 333 335 332 332 333 332 333 332 332 332 331 331 330 330 330 328 327 327 327 323 321 317 317 316 316 319 319
286 286 287 288 290 291 292 295 298 299 305 312 320 332 335 336 335 334 334 331 330 330 330 332 331 331 331 331 331 330 329 328 327 327 326 326 325 323 320 319 318 315 318
285 285 286 287 287 289 292 292 297 297 302 307 316 330 331 331 334 335 335 334 333 331 332 331 331 331 331 331 331 330 329 329 327 327 327 326 325 324 322 321 319 312 313
284 284 285 286 287 287 288 292 294 297 299 303 308 326 331 331 332 334 336 336 335 332 332 332 330 330 330 329 330 330 327 327 327 327 327 326 326 325 326 324 323 319 310
283 283 283 284 286 287 288 290 293 295 298 301 305 311 331 330 331 333 333 334 334 331 330 330 329 329 328 329 328 328 328 326 326 327 326 325 326 326 325 325 322 323 316
281 281 282 283 285 286 286 288 289 292 296 298 302 311 326 328 329 329 333 333 331 328 328 329 331 329 326 327 327 327 326 325 325 325 326 325 325 324 324 324 325 319 318
281 282 281 282 283 283 284 285 287 288 292 297 300 303 309 324 324 324 324 325 325 327 328 327 325 324 325 325 324 323 323 324 324 325 325 323 323 323 324 322 320 320 319
280 280 280 281 281 282 283 283 285 286 289 294 297 298 300 307 321 321 321 322 322 322 322 324 323 322 321 321 321 321 320 321 321 322 322 324 324 321 321 321 319 318 317
279 279 279 280 281 281 281 282 283 285 287 291 292 294 294 298 303 315 317 318 319 319 319 319 318 317 315 311 311 313 314 315 317 319 321 320 320 320 321 321 320 318 316
277 278 278 279 280 280 280 281 282 284 285 287 288 290 292 292 295 296 298 301 299 300 301 307 304 302 297 293 295 303 308 312 313 315 316 319 318 310 314 320 319 318 315
277 277 278 278 279 280 280 280 281 282 284 284 285 287 290 290 289 290 291 293 292 292 292 292 292 291 291 289 290 293 303 309 308 306 308 311 307 307 301 301 303 314 316
276 276 277 278 279 280 280 279 280 281 281 282 283 284 286 287 285 287 287 286 287 287 286 287 288 287 287 288 289 290 299 297 295 295 297 300 303 297 302 294 293 294 297
276 276 277 278 279 280 281 281 281 280 280 280 281 282 283 284 285 285 284 285 285 284 284 284 285 285 285 287 288 289 291 289 288 289 290 292 294 294 296 291 288 287 287
276 276 277 278 278 280 281 281 280 279 279 279 280 281 282 282 283 283 284 284 284 283 283 284 283 283 283 286 287 288 287 286 285 286 287 288 289 289 291 289 286 285 285
275 274 276 277 277 278 280 279 279 278 277 278 279 280 282 282 282 283 283 284 284 283 283 282 282 283 282 284 285 284 284 283 283 284 284 285 286 287 287 290 288 285 285
273 274 274 275 275 277 279 277 278 277 278 279 279 279 280 281 282 283 284 285 284 284 283 282 283 282 282 283 283 283 281 280 280 280 280 282 284 285 285 285 284 284 285
273 273 272 273 274 276 277 276 276 279 279 278 278 278 279 280 281 281 282 282 283 283 283 283 283 283 283 283 283 282 281 280 279 278 279 280 281 282 282 282 282 283 282
272 273 272 272 273 274 275 275 276 278 277 276 276 276 278 279 279 279 280 280 281 280 280 280 280 281 283 283 282 281 281 280 279 279 279 280 279 279 278 280 280 280 280
273 273 273 272 271 273 274 275 276 276 276 274 275 276 276 276 278 280 280 279 279 279 278 278 278 280 281 281 282 282 281 280 279 279 278 278 278 277 276 276 277 277 277
272 273 273 272 272 274 274 275 276 276 276 275 275 275 276 275 275 276 277 278 278 278 278 278 278 278 278 279 280 280 280 280 278 279 279 277 276 275 275 275 275 275 276
273 273 273 273 273 274 274 275 277 277 275 275 275 274 274 274 274 274 275 275 276 277 277 278 278 278 278 279 279 279 278 277 277 277 276 275 274 273 273 273 273 274 274

GFSMW_sfc_thetae_114.txt.gz
Theta_e
308 311 312 314 314 316 316 318 319 322 316 317 328 331 336 339 342 343 344 345 347 347 345 342 343 339 337 337 339 338 337 338 339 334 333 335 335 335 335 336 335 336 335
304 305 307 309 310 311 313 314 315 317 320 319 317 330 334 336 338 343 345 345 344 345 345 343 340 337 336 335 336 335 332 333 335 329 328 323 328 332 334 335 333 334 334
300 301 302 304 305 306 308 309 311 313 315 318 322 319 331 334 335 339 342 344 343 343 345 342 339 337 337 333 333 335 332 328 330 336 329 323 320 324 331 332 332 333 332
298 298 298 299 300 301 304 306 308 309 312 316 318 320 320 326 333 335 338 341 344 342 342 341 339 337 336 333 333 335 335 332 326 329 334 333 329 321 319 328 330 332 331
297 296 296 296 299 300 300 301 304 305 309 313 316 319 319 330 332 336 337 339 339 338 338 339 339 336 337 334 333 333 334 333 330 327 328 331 331 329 323 320 324 327 331
295 295 296 296 297 298 298 298 299 301 303 306 312 317 322 325 330 332 335 337 337 335 335 336 336 336 335 334 333 333 334 333 332 329 333 330 327 326 323 321 323 323 327
292 292 292 292 293 293 293 294 294 295 297 301 305 311 320 325 333 332 335 335 333 332 333 334 333 334 335 334 332 332 333 332 330 333 333 333 329 328 327 325 324 323 325
289 288 289 290 290 291 291 292 291 291 294 298 302 307 317 327 332 334 334 336 334 333 334 334 334 334 335 334 334 332 331 332 332 334 334 333 331 332 330 326 324 317 319
287 287 287 288 289 287 288 288 288 290 292 296 301 305 316 329 333 335 338 337 336 333 334 334 332 332 333 333 332 330 330 331 331 333 335 333 333 333 332 330 327 322 316
285 285 285 285 287 286 286 288 287 288 291 295 300 304 313 322 335 333 333 334 338 337 336 334 334 331 331 332 331 330 330 329 330 331 330 330 331 331 331 329 327 324 322
283 284 284 284 286 285 284 285 285 287 290 295 300 303 310 330 334 332 333 336 337 336 334 335 332 330 329 330 330 330 329 327 329 329 328 328 329 327 326 326 326 325 323
284 283 283 283 283 283 283 283 284 286 289 293 298 299 302 309 329 330 332 334 332 333 332 331 328 327 327 329 328 326 326 327 326 326 325 326 327 327 329 329 325 325 324
283 282 282 280 281 282 282 282 283 285 288 291 295 297 297 300 304 319 324 324 324 325 325 326 326 327 326 326 325 324 325 325 325 324 325 326 327 327 327 325 324 323 322
282 282 281 280 281 282 281 280 282 284 286 289 289 292 293 295 297 300 303 304 310 316 312 309 302 300 299 300 305 313 317 318 319 322 325 325 324 323 323 323 321 320 320
280 280 280 280 281 281 281 281 281 283 284 286 287 289 291 291 292 293 295 297 297 298 298 295 294 294 292 292 295 304 311 313 316 320 320 320 311 302 302 311 320 322 319
279 279 280 280 281 282 282 281 281 282 283 283 284 286 287 288 289 288 290 289 291 290 290 289 290 290 291 290 291 296 306 305 302 302 301 305 305 304 296 296 295 299 315
278 278 280 280 281 282 283 282 283 282 281 282 282 283 284 285 285 286 285 285 286 287 287 287 287 287 288 289 290 292 294 292 291 291 291 294 298 297 300 299 294 291 289
278 278 280 280 280 282 283 285 284 283 281 281 282 283 283 283 284 284 284 284 284 284 284 284 284 284 286 287 288 288 289 288 287 286 286 288 291 291 292 297 294 289 288
277 278 279 279 280 281 282 283 283 283 281 281 281 283 284 283 283 283 284 284 283 283 283 283 283 283 284 286 286 286 286 285 284 284 285 285 286 287 289 293 290 287 287
277 277 278 279 278 280 282 281 280 280 280 280 281 283 284 284 283 284 284 284 285 284 283 282 283 283 282 284 284 284 283 281 281 282 282 283 284 285 286 287 288 285 284
276 277 276 275 276 278 279 278 278 277 279 281 281 282 283 283 284 284 284 284 284 284 284 284 284 283 283 283 283 283 280 280 280 279 279 281 283 283 283 283 283 283 284
276 276 275 275 276 277 278 276 276 278 279 280 280 280 281 282 283 283 284 283 284 284 285 285 285 286 284 284 283 283 281 281 280 278 279 280 281 282 282 281 281 281 281
277 277 275 275 276 277 277 276 277 278 278 278 279 280 281 281 282 281 281 281 282 282 282 283 283 283 284 284 283 283 282 282 283 281 281 281 280 280 279 280 280 279 279
276 278 277 276 275 277 278 278 278 279 279 278 278 279 279 280 280 281 280 278 278 278 278 279 278 280 281 281 282 283 284 282 283 283 283 282 282 281 280 279 279 280 280
277 277 277 276 276 277 278 279 279 279 279 278 279 279 279 279 279 278 276 277 277 277 277 277 278 277 278 279 279 279 280 280 281 283 283 282 282 281 281 281 280 281 280
277 277 277 277 277 277 277 279 279 279 278 278 278 278 279 279 278 278 278 276 276 275 275 276 277 278 277 277 278 278 278 279 280 281 279 278 279 278 279 279 279 279 279

GFSMW_sfc_thetae_117.txt.gz
Theta_e
310 310 311 312 313 314 314 315 317 320 321 322 317 323 335 339 343 344 347 345 348 351 349 347 347 346 342 342 344 343 341 338 341 337 336 336 338 338 337 337 335 334 335
305 306 307 308 309 310 311 312 313 315 317 318 321 320 324 333 340 344 345 348 348 349 349 348 347 347 342 338 339 339 339 341 342 334 331 324 329 334 336 335 334 336 335
302 303 304 304 306 306 308 308 309 311 313 316 317 319 324 323 334 339 340 344 347 349 349 349 348 346 344 340 337 337 335 332 339 340 330 323 320 327 333 335 334 335 335
301 301 301 302 303 303 306 307 307 307 309 313 313 315 316 318 326 336 339 340 345 347 349 349 348 347 344 340 336 336 335 333 329 334 336 335 330 323 321 330 333 335 334
299 298 298 299 300 301 302 303 303 304 307 309 310 311 315 319 323 325 338 339 343 344 347 348 347 345 343 341 339 335 334 334 331 330 333 336 335 334 326 322 324 330 331
297 296 297 296 296 298 299 299 300 301 303 304 306 306 310 315 318 324 329 334 338 341 345 344 344 342 340 340 340 337 334 334 332 331 332 331 330 329 326 324 325 324 328
294 293 292 292 292 293 294 294 295 296 298 300 302 302 305 310 315 319 325 333 335 337 340 341 338 340 340 338 339 334 333 333 331 331 330 335 333 334 330 327 326 324 326
291 289 289 289 289 289 290 290 290 292 294 295 297 299 301 305 312 319 325 326 335 338 341 340 337 336 340 337 336 334 333 333 332 331 332 334 336 336 331 327 326 323 324
288 287 288 287 287 287 287 288 287 289 291 291 293 294 299 303 308 318 328 330 335 339 340 339 334 334 334 336 334 332 331 333 333 332 332 335 335 337 335 333 328 326 320
286 286 285 285 286 286 287 288 286 287 288 290 292 295 298 303 308 320 328 333 336 339 337 337 333 332 333 333 333 332 331 330 331 332 331 331 335 335 335 333 333 331 326
285 285 285 285 284 286 285 285 285 285 287 289 292 294 300 303 309 322 331 335 336 335 335 336 332 331 331 331 331 330 329 329 330 330 330 331 334 332 329 328 331 330 327
285 286 285 284 284 284 284 283 284 284 286 287 291 296 297 301 304 316 330 334 333 334 335 335 334 333 330 329 329 328 328 328 326 328 328 327 329 330 329 327 325 325 326
284 284 284 284 283 284 284 283 283 283 285 287 289 293 293 295 295 299 303 307 324 325 319 323 317 320 323 326 326 327 327 328 327 327 325 327 327 324 325 327 327 327 325
283 283 283 283 285 284 284 283 283 283 284 286 287 289 290 291 293 294 294 298 300 299 299 297 297 296 296 300 307 321 322 322 322 323 323 324 323 320 316 320 321 324 324
281 281 282 282 284 284 285 285 283 283 284 284 285 286 288 289 289 290 290 291 292 292 295 297 295 294 294 294 296 310 314 315 315 310 309 307 302 297 298 305 309 308 311
279 280 281 282 282 283 285 286 284 284 284 284 284 285 286 286 287 286 287 288 288 287 288 289 290 292 292 292 293 300 302 300 298 297 298 301 300 298 295 295 294 294 300
279 279 280 281 281 283 285 286 286 285 283 283 284 284 284 284 284 285 285 284 284 285 285 285 286 285 286 289 290 290 291 290 288 288 291 293 293 292 295 296 294 292 289
278 278 280 280 281 284 283 285 286 285 283 283 283 284 284 284 284 284 284 283 283 283 283 283 283 283 284 286 286 287 286 285 285 285 285 287 287 287 289 295 296 291 290
278 278 279 280 280 281 283 282 283 283 282 281 282 283 284 283 283 284 284 284 284 284 283 283 283 282 283 285 284 285 284 283 282 283 284 284 284 285 287 292 291 287 285
278 277 278 279 278 279 281 279 279 280 280 281 282 284 284 283 283 284 284 284 285 284 284 283 284 284 283 285 284 282 282 280 281 282 282 283 284 284 284 284 285 284 284
277 278 277 276 277 279 280 278 278 277 280 282 283 282 283 283 283 283 284 285 285 284 284 284 283 283 283 284 285 284 282 281 280 279 279 281 282 283 283 283 282 281 283
278 278 276 276 278 279 279 277 277 279 280 281 281 282 281 282 282 280 282 283 282 283 282 283 283 283 283 283 283 284 283 284 282 281 282 282 283 282 282 281 281 281 281
279 279 278 277 278 280 279 277 279 280 280 281 280 281 282 280 281 280 278 278 280 280 280 280 281 282 282 282 281 282 283 283 283 284 283 284 284 283 283 282 281 281 281
279 280 279 278 277 279 280 280 280 281 281 280 281 282 281 282 280 280 280 276 276 276 277 278 276 278 279 280 281 281 283 282 284 284 285 284 283 284 284 283 284 284 283
279 279 279 278 278 279 280 281 281 281 282 282 282 282 282 282 282 278 277 277 276 276 275 275 277 274 274 276 278 279 280 282 283 284 283 282 282 281 282 282 282 282 282
280 279 279 279 278 279 279 280 280 281 280 280 281 280 281 281 281 280 280 278 277 277 276 275 275 276 276 276 278 279 279 279 281 281 279 279 279 279 278 279 279 279 279

GFSMW_sfc_thetae_120.txt.gz
Theta_e
307 308 308 308 308 308 309 310 311 313 314 314 316 318 318 324 338 341 342 342 342 343 342 342 342 340 338 339 340 338 336 336 336 333 331 333 333 333 333 334 332 333 333
304 304 305 306 306 306 306 306 308 309 310 311 313 314 315 318 321 336 341 342 342 343 343 342 340 340 337 337 340 339 335 335 336 330 328 324 327 331 332 333 332 332 333
300 300 301 302 302 302 302 303 305 306 307 308 309 312 314 316 317 320 328 340 341 341 344 342 340 340 339 337 338 337 336 332 334 333 326 320 317 322 329 330 331 329 329
299 299 298 298 298 299 300 301 301 302 303 306 306 307 308 309 314 317 322 335 340 341 342 343 342 341 341 338 337 337 335 334 331 333 333 329 325 316 317 326 329 328 328
297 296 295 295 296 296 296 297 298 297 299 301 303 303 304 307 312 315 318 322 329 337 340 339 341 341 340 340 337 335 334 335 332 332 330 330 329 327 321 316 321 327 328
294 294 294 293 292 293 292 293 293 294 295 296 298 299 300 301 304 308 312 316 323 331 336 337 338 340 339 336 337 334 334 333 332 332 331 329 327 325 323 319 318 320 323
291 290 289 289 289 289 289 290 290 289 291 292 294 296 297 298 300 302 307 312 316 323 330 334 336 339 339 337 337 334 333 333 331 331 330 330 329 330 327 322 319 319 322
289 288 287 287 287 287 287 287 287 287 288 290 291 293 294 296 298 300 304 309 315 320 327 331 333 337 337 338 337 336 334 333 331 330 330 330 330 330 328 325 322 316 318
287 286 286 286 286 285 286 286 286 286 287 288 289 291 293 294 296 299 303 306 312 319 323 330 331 334 336 337 336 334 333 332 331 330 330 329 330 330 330 327 325 319 313
286 286 286 286 286 286 286 286 286 285 286 287 289 290 293 295 297 299 302 305 309 317 324 327 329 329 332 333 332 332 331 330 329 330 330 329 330 330 330 328 327 325 320
285 285 285 286 286 286 286 286 285 285 285 286 289 291 295 297 300 302 305 306 310 315 323 323 323 319 328 329 330 331 330 329 329 329 329 328 330 330 328 327 326 325 322
285 285 284 284 284 285 285 285 285 284 285 286 289 291 292 294 295 297 301 308 313 318 324 326 326 322 328 329 330 329 328 328 327 327 327 327 328 328 329 325 323 321 321
283 283 283 283 283 284 285 285 284 284 284 285 287 288 289 290 290 292 294 296 297 300 301 301 304 306 309 325 329 329 327 327 327 327 326 327 328 327 325 324 323 321 323
281 281 282 282 283 284 285 285 284 284 284 285 285 286 286 288 289 290 289 290 292 291 295 298 297 298 299 301 305 326 326 326 325 325 320 315 315 315 315 316 315 316 314
280 280 281 281 282 283 284 285 284 284 284 284 284 284 286 287 287 287 288 288 287 287 289 289 292 293 295 297 301 303 302 305 304 305 304 298 299 296 297 306 304 305 307
279 279 280 280 281 282 283 285 284 283 284 283 283 284 285 285 286 285 285 286 286 286 287 287 287 287 290 291 293 292 291 291 291 291 295 297 292 294 294 295 290 293 297
278 278 279 279 280 281 282 283 283 283 283 283 283 284 284 284 284 285 284 284 284 285 284 285 285 286 286 287 288 290 289 289 287 286 287 288 289 288 293 294 290 289 289
277 277 278 278 279 281 280 282 282 282 282 282 282 282 283 283 284 284 284 284 284 283 282 282 283 283 284 285 285 285 284 283 283 284 284 285 285 285 289 294 290 287 287
277 277 278 278 278 279 280 279 279 280 280 280 281 282 281 281 282 282 283 284 284 283 282 282 281 282 283 285 285 283 282 281 280 282 283 283 283 285 286 287 287 285 283
277 276 277 278 277 278 280 277 277 278 278 280 279 280 281 279 279 280 281 283 283 283 283 281 281 282 281 285 285 284 283 281 281 281 281 283 283 284 284 282 282 281 281
277 277 276 276 277 277 278 276 277 277 279 280 281 279 279 280 278 279 279 280 281 280 281 280 280 280 281 281 284 284 282 282 281 281 281 283 284 284 284 283 281 280 281
277 277 275 275 277 277 277 276 276 278 279 280 279 280 278 278 278 276 276 277 277 278 277 277 277 278 278 281 281 283 283 284 282 281 282 283 284 284 284 283 283 283 281
278 279 274 274 276 278 277 275 277 278 278 279 279 279 279 278 278 275 274 274 275 274 275 275 273 274 276 277 280 281 282 283 282 283 283 284 284 284 282 283 283 282 282
279 279 279 275 274 276 277 278 278 279 278 278 279 280 279 277 277 277 275 273 273 272 272 273 272 272 273 275 277 278 278 280 281 282 281 281 281 281 280 281 280 280 280
279 279 278 277 277 278 278 278 279 280 280 280 279 280 280 279 278 276 276 274 275 275 272 272 272 272 272 274 278 279 277 278 280 279 279 278 277 277 277 277 278 278 278
279 278 278 277 277 277 277 278 279 279 279 279 279 278 279 279 279 278 278 280 279 278 277 276 276 275 276 277 278 279 280 279 279 276 275 274 274 274 275 275 275 276 276

GFSMW_sfc_thetae_123.txt.gz
Theta_e
300 300 300 299 299 299 299 300 301 303 304 304 304 305 306 309 312 317 322 337 338 340 339 340 336 336 336 336 335 335 334 333 334 329 325 327 331 331 331 330 330 332 332
297 298 297 296 296 296 296 297 297 298 299 301 302 303 304 307 310 314 317 320 329 338 339 337 337 339 336 334 335 335 333 333 334 327 325 321 324 329 331 329 330 331 330
293 293 293 292 292 292 292 293 293 294 295 297 298 300 303 304 306 309 312 316 322 332 337 337 337 337 337 333 335 336 334 330 332 330 323 316 315 320 325 329 329 329 329
292 291 290 290 289 289 290 290 291 291 293 294 293 293 295 297 302 304 308 310 315 320 329 337 337 336 337 336 332 337 336 332 329 330 330 323 321 316 314 323 329 327 326
289 289 288 288 288 288 288 288 289 290 290 290 291 291 291 296 299 301 301 304 309 315 321 328 335 337 336 337 335 333 335 333 331 330 329 326 321 322 317 314 319 323 326
287 287 287 287 286 286 286 286 287 287 288 289 289 289 289 292 294 296 297 299 303 308 315 321 328 334 336 335 336 336 335 334 331 332 331 329 325 322 318 315 317 321 322
285 285 285 285 284 284 285 286 286 286 287 287 287 288 289 291 292 293 296 297 300 303 309 317 321 329 332 335 336 334 333 331 329 330 331 331 329 328 325 320 317 316 320
285 285 284 284 284 285 285 285 286 286 286 286 286 287 289 290 291 293 295 296 298 301 305 309 315 324 329 331 333 333 330 325 326 329 331 330 330 329 328 325 319 312 316
284 283 283 283 284 284 285 286 286 285 286 286 287 288 289 290 291 293 295 296 299 301 303 307 312 318 325 328 329 331 330 329 327 328 330 329 329 329 329 325 322 319 311
282 282 282 283 284 285 286 287 286 285 285 286 287 289 291 293 294 296 296 297 299 301 302 304 307 314 321 326 326 327 329 329 329 329 328 328 329 328 329 326 324 320 317
281 281 281 283 284 285 285 286 285 285 285 286 287 289 290 292 293 294 297 298 301 302 305 305 308 313 320 323 321 324 326 327 329 329 328 327 328 327 328 327 325 321 320
280 281 281 282 282 284 284 284 284 284 285 286 287 287 289 290 291 291 293 295 297 303 307 309 310 315 313 315 315 316 319 313 326 326 327 326 327 327 328 325 324 324 321
280 281 281 281 281 283 283 284 284 283 284 285 286 286 287 287 288 289 290 291 292 293 295 296 296 297 299 301 306 312 316 324 327 327 326 326 327 326 326 321 321 320 320
279 280 280 280 281 282 282 283 283 283 284 284 285 285 285 286 286 287 287 288 289 289 288 290 290 290 291 294 299 310 322 323 323 317 315 309 311 318 322 323 320 317 317
278 278 278 278 279 280 280 282 282 282 283 283 282 283 284 286 286 286 286 286 286 287 287 286 287 288 288 289 291 295 297 298 299 298 294 294 295 295 297 307 307 309 309
277 277 278 277 278 279 278 280 280 281 282 281 280 282 283 284 285 285 284 284 284 284 284 285 285 284 285 287 287 287 287 289 290 290 289 290 291 295 292 291 291 290 300
276 276 276 276 277 278 278 278 279 280 280 279 280 279 281 281 282 284 284 282 282 282 281 283 283 283 284 286 286 286 284 284 285 285 286 287 289 292 295 291 289 288 288
275 275 276 276 277 278 278 278 279 279 279 277 278 279 278 278 280 281 281 283 281 280 280 280 281 282 284 286 285 285 284 283 283 283 283 284 284 286 290 288 286 284 285
275 275 276 277 277 277 278 277 278 279 278 277 277 278 277 276 277 277 279 279 280 279 278 278 279 279 282 285 285 284 283 282 282 283 284 283 283 285 285 284 283 282 281
275 274 275 277 276 276 277 274 275 276 277 278 277 278 277 276 275 276 276 278 277 277 277 276 277 280 278 284 285 284 283 281 282 283 283 285 284 285 284 281 280 279 279
273 274 273 272 272 274 273 273 272 274 275 277 279 277 277 276 275 275 275 276 276 276 275 275 275 276 278 279 283 284 282 281 281 281 281 283 284 284 284 284 282 280 280
273 271 270 270 272 273 272 272 273 272 274 274 274 276 276 276 275 274 274 274 274 273 273 273 274 275 276 280 281 282 282 283 280 279 281 281 283 283 282 281 282 282 282
273 272 269 268 271 273 273 274 274 272 273 275 273 272 274 274 274 273 273 273 272 272 271 272 272 273 275 277 280 280 281 281 279 280 280 281 280 280 279 280 280 279 279
274 275 272 270 271 270 273 273 276 276 273 274 274 274 271 273 272 273 273 273 272 271 271 271 271 272 273 275 277 277 277 278 278 278 277 277 278 277 277 277 277 277 277
274 275 274 274 273 274 273 273 276 276 276 275 275 275 276 273 271 273 273 273 275 274 272 272 272 272 272 274 278 278 276 276 276 275 274 274 274 273 273 274 275 275 275
276 275 274 273 273 274 274 276 277 276 275 276 276 275 275 275 275 274 274 279 278 278 277 277 276 274 277 277 277 277 277 276 276 272 270 269 270 270 271 271 272 273 273

GFSMW_sfc_thetae_129.txt.gz
Theta_e
289 289 289 288 288 288 287 288 288 288 289 290 289 290 291 291 296 297 301 306 309 312 314 318 319 317 327 329 332 334 334 332 332 326 325 324 326 326 329 331 330 329 329
286 287 287 286 286 286 286 287 286 287 288 288 288 289 289 291 292 295 298 300 304 305 305 307 312 316 323 327 328 331 330 332 332 325 324 321 324 326 328 329 330 330 330
284 285 285 284 284 284 285 286 286 286 287 288 288 287 288 289 290 290 291 295 297 300 304 305 308 313 318 324 324 327 329 326 330 330 323 317 317 322 324 328 329 328 329
284 285 284 283 283 284 285 286 286 286 288 288 286 285 284 284 286 287 289 291 294 297 300 302 303 307 312 316 324 326 324 326 325 328 329 327 323 318 316 323 328 329 327
283 283 283 283 284 284 285 286 288 287 287 286 286 285 284 285 286 287 287 289 291 294 296 300 302 304 309 315 320 324 322 323 326 327 325 326 324 322 317 316 323 327 329
282 283 283 283 283 284 285 286 287 285 287 286 286 286 285 285 286 287 287 288 290 292 294 296 298 302 307 312 319 321 325 325 327 328 327 325 322 320 319 314 316 323 326
281 281 280 282 283 283 284 285 285 284 285 285 286 286 286 287 288 288 289 290 291 293 294 295 297 298 301 304 305 308 317 324 326 326 327 328 327 325 323 321 319 316 320
280 280 280 282 282 283 283 284 284 284 285 285 286 287 288 288 289 291 292 292 292 293 295 296 297 297 299 300 303 306 309 316 324 326 327 326 327 325 325 322 319 315 314
279 279 281 281 282 283 282 284 283 283 283 285 285 286 288 288 289 290 292 293 295 296 297 298 299 299 300 301 303 303 306 314 321 324 324 324 325 326 321 319 319 318 311
278 279 280 280 281 281 281 282 282 282 283 284 284 285 286 288 289 289 289 291 293 294 295 297 297 300 301 302 303 303 305 309 315 322 321 319 323 321 321 323 321 321 320
276 277 277 279 279 280 280 281 281 281 281 282 283 284 284 287 287 287 288 289 290 290 291 293 294 300 302 305 305 305 306 308 315 321 321 318 318 318 318 319 320 322 322
277 277 276 275 277 279 279 280 280 280 280 282 282 282 283 286 285 285 286 287 288 289 289 290 291 291 294 298 302 307 310 312 315 320 317 316 318 315 316 318 318 318 320
277 276 276 275 276 278 278 279 279 279 279 280 280 280 281 283 283 283 284 284 285 286 287 287 288 288 289 291 295 298 301 298 298 299 300 300 310 316 317 319 319 318 318
276 275 275 277 277 278 278 278 279 278 278 279 278 278 278 280 282 282 281 282 283 283 285 286 286 287 287 288 290 291 292 292 293 294 294 292 292 296 297 307 320 318 317
276 276 276 276 277 278 278 278 279 278 277 277 276 276 277 279 279 280 279 280 280 281 282 284 285 285 286 286 286 287 287 288 288 289 290 292 291 290 291 293 291 294 314
275 276 276 276 276 277 277 278 278 278 278 276 275 275 276 276 277 277 277 277 278 278 280 281 282 283 284 286 286 285 284 284 284 285 286 288 289 289 288 288 287 286 290
275 275 275 276 276 276 278 277 278 278 277 276 275 274 274 273 274 275 275 275 275 277 278 279 281 281 283 285 285 284 283 282 282 282 283 284 285 287 288 286 285 285 286
275 275 275 276 276 277 277 278 278 277 276 276 275 275 274 272 272 273 273 273 274 275 276 277 278 280 282 284 284 283 281 281 281 281 281 281 282 284 285 284 282 282 283
274 272 274 276 275 276 277 277 276 276 275 275 275 275 274 273 272 271 272 273 273 274 275 276 277 277 279 283 282 281 280 279 278 279 281 280 281 283 284 282 281 280 280
274 273 273 275 274 273 276 272 272 274 273 274 274 275 275 274 273 272 272 273 273 273 274 275 276 278 276 281 281 279 278 277 277 277 278 281 280 281 282 279 279 278 279
273 273 272 270 269 269 273 270 269 268 269 272 274 274 273 274 274 273 273 273 274 274 273 273 274 275 276 277 279 279 276 275 275 274 274 277 280 280 280 280 278 277 279
273 269 270 267 267 269 271 270 269 266 268 268 269 269 270 272 271 272 272 272 273 273 273 272 272 274 274 277 277 277 276 276 273 273 274 275 277 277 277 276 277 277 276
272 271 269 267 267 269 267 269 267 268 270 268 267 264 267 269 268 269 271 271 271 272 272 272 270 271 273 273 276 276 275 274 271 272 273 274 274 274 273 275 274 272 272
272 271 271 267 266 265 269 267 269 269 269 268 268 269 268 269 271 270 272 271 270 271 270 270 269 269 270 271 272 272 271 271 269 269 268 268 270 268 268 269 270 269 269
274 274 273 273 271 271 270 268 271 273 273 272 271 271 272 268 268 271 273 271 272 274 271 269 270 269 269 270 273 272 270 269 269 266 266 265 265 265 265 266 266 266 266
275 273 273 273 272 273 273 274 275 275 274 274 273 271 271 271 271 268 267 275 275 276 276 276 273 269 274 274 274 273 273 271 270 265 263 262 262 263 263 263 263 263 263

GFSMW_sfc_thetae_132.txt.gz
Theta_e
287 287 287 286 286 286 286 287 287 287 287 287 286 287 288 289 291 292 295 298 297 304 304 303 306 309 313 317 324 324 326 326 331 327 328 328 330 328 330 331 330 330 330
285 286 285 285 284 284 285 286 286 287 287 287 287 287 287 288 289 291 292 293 296 296 297 299 303 306 308 313 320 323 321 322 326 325 324 320 323 325 328 329 329 330 330
283 284 284 283 283 283 284 285 286 287 287 287 287 286 287 287 287 287 288 290 291 293 295 298 300 302 305 308 313 321 323 320 323 325 324 316 316 322 326 328 329 329 329
283 283 283 282 282 283 284 286 287 286 287 287 286 285 285 284 286 287 288 288 290 292 294 295 296 298 299 303 307 313 325 324 318 324 329 328 323 316 315 324 328 329 328
282 281 282 282 282 284 285 284 287 285 287 287 287 286 285 286 287 288 288 290 291 292 292 294 295 297 300 302 305 310 314 323 322 320 321 321 322 323 318 314 321 327 329
281 281 282 283 283 285 284 283 286 285 286 285 286 285 285 285 285 286 288 290 292 293 294 295 296 295 296 298 304 311 314 319 321 321 320 319 319 319 319 317 318 321 324
279 279 280 280 282 282 281 282 283 282 283 284 285 285 286 287 287 287 289 290 291 292 294 295 296 297 296 297 299 301 304 307 320 321 320 322 323 323 323 320 319 317 320
279 278 280 279 280 280 280 281 281 281 282 283 284 283 286 286 288 288 289 291 291 293 296 296 296 297 298 297 298 299 300 304 307 313 321 322 322 326 324 322 320 316 315
277 278 279 279 279 280 279 280 281 281 282 282 283 283 284 286 286 287 289 290 291 292 294 295 296 298 299 299 299 300 300 305 308 314 318 322 324 325 326 326 323 317 307
277 277 278 278 278 279 279 279 280 280 281 281 282 283 283 286 286 286 286 288 289 290 291 292 294 296 299 300 300 301 302 304 305 307 309 319 323 325 325 324 322 320 316
274 275 275 276 277 277 278 279 280 279 279 280 281 281 281 283 284 283 284 285 288 288 289 290 290 291 294 297 302 302 304 305 306 308 313 315 319 322 321 320 320 318 317
275 274 272 272 273 274 277 279 279 278 278 279 280 280 280 281 282 281 282 284 284 287 287 288 288 288 290 292 294 298 304 307 307 306 311 314 318 318 317 316 317 319 319
276 274 273 273 271 275 278 278 279 277 277 278 278 278 278 279 279 280 280 281 283 284 286 286 286 286 287 288 290 291 293 293 294 294 294 294 297 310 315 315 316 317 318
275 274 274 276 276 278 278 278 278 277 277 276 276 276 276 277 277 278 279 280 281 282 284 284 285 285 285 285 286 286 287 288 288 290 291 290 290 290 295 303 302 314 317
276 275 275 275 277 277 278 278 277 276 277 275 274 274 275 276 277 277 278 278 279 280 282 282 283 284 284 285 284 284 283 283 284 285 286 287 290 289 288 289 289 292 300
276 276 276 276 277 277 277 278 277 276 277 274 273 274 274 274 275 275 276 277 277 278 278 280 281 281 283 284 284 282 281 282 281 281 283 284 286 287 286 286 286 286 287
275 276 276 276 277 276 277 276 277 277 276 275 274 274 274 273 273 274 274 274 275 277 277 277 278 279 280 283 283 281 279 279 280 279 280 281 283 284 284 284 284 284 285
275 276 275 276 276 277 277 277 276 276 276 275 274 274 273 272 272 272 273 273 274 274 275 275 276 277 279 281 281 280 278 277 277 279 279 279 280 281 281 282 281 281 282
273 271 275 275 275 276 276 276 275 275 275 274 274 274 274 272 272 271 272 273 273 273 273 274 274 274 276 280 279 277 276 275 275 276 279 278 278 281 282 278 278 278 278
271 273 274 274 273 273 275 272 271 272 272 273 273 274 275 273 272 272 272 273 273 272 272 272 273 276 273 278 278 275 274 272 273 274 275 279 278 279 279 276 276 274 275
273 273 272 271 269 269 273 269 266 268 267 273 274 273 273 273 272 273 273 273 273 272 272 271 272 272 274 274 277 276 272 271 271 271 271 274 276 277 277 276 274 273 275
272 270 270 269 266 267 270 268 268 266 266 269 269 269 269 272 271 270 271 272 272 272 270 270 271 272 272 275 276 275 274 272 269 269 270 271 274 274 274 272 273 273 272
271 271 270 268 265 267 267 269 266 267 269 269 267 266 268 268 268 266 268 270 270 270 270 270 269 269 271 271 274 274 273 271 268 269 270 271 271 270 269 271 270 268 268
271 271 270 268 266 264 269 267 269 269 269 267 267 267 266 267 266 269 270 269 270 269 268 269 267 268 269 270 271 270 269 268 267 266 266 266 268 265 266 266 266 265 266
273 274 273 272 270 272 270 268 270 273 272 271 271 270 271 266 266 267 267 271 271 272 269 268 268 268 268 270 273 272 268 267 267 264 264 263 263 263 263 263 263 263 263
274 273 273 273 272 273 273 274 275 274 273 273 272 270 270 269 269 266 266 274 275 275 276 275 272 268 274 274 273 273 272 271 269 263 261 260 261 261 261 261 261 261 261